[[{"header":{"parameterUnit":"m.s-1","parameterCategory":1,"la1":31.0,"la2":29.5877,"lo1":-88.7671,"lo2":-86.6584,"dy":0.0162,"dx":0.0185,"nx":115,"ny":88,"refTime":"2023-06-26T18:00:00:Z","depth":0,"parameterNumber":2,"parameterNumberName":"U-component_of_WINDS"},"data":[0.0,0.0,0.0,0.0,0.0,0.0,0.0,0.0,0.0,0.0,0.0,0.0,0.0,0.0,0.0,0.0,0.0,0.0,0.0,0.0,0.0,0.0,0.0,0.0,0.0,0.0,0.0,0.0,0.0,0.0,0.0,0.0,0.0,0.0,0.0,0.0,0.0,0.0,0.0,0.0,0.0,0.0,0.0,0.0,0.0,0.0,0.0,0.0,0.0,0.0,0.0,0.0,0.0,0.0,0.0,0.0,0.0,0.0,0.0,0.0,0.0,0.0,0.0,0.0,0.0,0.0,0.0,0.0,0.0,0.0,0.0,0.0,0.0,0.0,0.0,0.0,0.0,0.0,0.0,0.0,0.0,0.0,0.0,0.0,0.0,0.0,0.0,0.0,0.0,0.0,0.0,0.0,0.0,0.0,0.0,0.0,0.0,0.0,0.0,0.0,0.0,0.0,0.0,0.0,0.0,0.0,0.0,0.0,0.0,0.0,0.0,0.0,0.0,0.0,0.0,0.0,0.0,0.0,0.0,0.0,0.0,0.0,0.0,0.0,0.0,0.0,0.0,0.0,0.0,0.0,0.0,0.0,0.0,0.0,0.0,0.0,0.0,0.0,0.0,0.0,0.0,0.0,0.0,0.0,0.0,0.0,0.0,0.0,0.0,0.0,0.0,0.0,0.0,0.0,0.0,0.0,0.0,0.0,0.0,0.0,0.0,0.0,0.0,0.0,0.0,0.0,0.0,0.0,0.0,0.0,0.0,0.0,0.0,0.0,0.0,0.0,0.0,0.0,0.0,0.0,0.0,0.0,0.0,0.0,0.0,0.0,0.0,0.0,0.0,0.0,0.0,0.0,0.0,0.0,0.0,0.0,0.0,0.0,0.0,0.0,0.0,0.0,0.0,0.0,0.0,0.0,0.0,0.0,0.0,0.0,0.0,0.0,0.0,0.0,0.0,0.0,0.0,0.0,0.0,0.0,0.0,0.0,0.0,0.0,0.0,0.0,0.0,0.0,0.0,0.0,0.0,0.0,0.0,0.0,0.0,0.0,0.0,0.0,0.0,0.0,0.0,0.0,0.0,0.0,0.0,0.0,0.0,0.0,0.0,0.0,0.0,0.0,0.0,0.0,0.0,0.0,0.0,0.0,0.0,0.0,0.0,0.0,0.0,0.0,0.0,0.0,0.0,0.0,0.0,0.0,0.0,0.0,0.0,0.0,0.0,0.0,0.0,0.0,0.0,0.0,0.0,0.0,0.0,0.0,0.0,0.0,0.0,0.0,0.0,0.0,0.0,0.0,0.0,0.0,0.0,0.0,0.0,0.0,0.0,0.0,0.0,0.0,0.0,0.0,0.0,0.0,0.0,0.0,0.0,0.0,0.0,0.0,0.0,0.0,0.0,0.0,0.0,0.0,0.0,0.0,0.0,0.0,0.0,0.0,0.0,0.0,0.0,0.0,0.0,0.0,0.0,0.0,0.0,0.0,0.0,0.0,0.0,0.0,0.0,0.0,0.0,0.0,0.0,0.0,0.0,0.0,0.0,0.0,0.0,0.0,0.0,0.0,0.0,0.0,0.0,0.0,0.0,0.0,0.0,0.0,0.0,0.0,0.0,0.0,0.0,0.0,0.0,0.0,0.0,0.0,0.0,0.0,0.0,0.0,0.0,0.0,0.0,0.0,0.0,0.0,0.0,0.0,0.0,0.0,0.0,0.0,0.0,0.0,0.0,0.0,0.0,0.0,0.0,0.0,0.0,0.0,0.0,0.0,0.0,0.0,0.0,0.0,0.0,0.0,0.0,0.0,0.0,0.0,0.0,0.0,0.0,0.0,0.0,0.0,0.0,0.0,0.0,0.0,0.0,0.0,0.0,0.0,0.0,0.0,0.0,0.0,0.0,0.0,0.0,0.0,0.0,0.0,0.0,0.0,0.0,0.0,0.0,0.0,0.0,0.0,0.0,0.0,0.0,0.0,0.0,0.0,0.0,0.0,0.0,0.0,0.0,0.0,0.0,0.0,0.0,0.0,0.0,0.0,0.0,0.0,0.0,0.0,0.0,0.0,0.0,0.0,0.0,0.0,0.0,0.0,0.0,0.0,0.0,0.0,0.0,0.0,0.0,0.0,0.0,0.0,0.0,0.0,0.0,0.0,0.0,0.0,0.0,0.0,0.0,0.0,0.0,0.0,0.0,0.0,0.0,0.0,0.0,0.0,0.0,0.0,0.0,0.0,0.0,0.0,0.0,0.0,0.0,0.0,0.0,0.0,0.0,0.0,0.0,0.0,0.0,0.0,0.0,0.0,0.0,0.0,0.0,0.0,0.0,0.0,0.0,0.0,0.0,0.0,0.0,0.0,0.0,0.0,0.0,0.0,0.0,0.0,0.0,0.0,0.0,0.0,0.0,0.0,0.0,0.0,0.0,0.0,0.0,0.0,0.0,0.0,0.0,0.0,0.0,0.0,0.0,0.0,0.0,0.0,0.0,0.0,0.0,0.0,0.0,0.0,0.0,0.0,0.0,0.0,0.0,0.0,0.0,0.0,0.0,0.0,0.0,0.0,0.0,0.0,0.0,0.0,0.0,0.0,0.0,0.0,0.0,0.0,0.0,0.0,0.0,0.0,0.0,0.0,0.0,0.0,0.0,0.0,0.0,0.0,0.0,0.0,0.0,0.0,0.0,0.0,0.0,0.0,0.0,0.0,0.0,0.0,0.0,0.0,0.0,0.0,0.0,0.0,0.0,0.0,0.0,0.0,0.0,0.0,0.0,0.0,0.0,0.0,0.0,0.0,0.0,0.0,0.0,0.0,0.0,0.0,0.0,0.0,0.0,0.0,0.0,0.0,0.0,0.0,0.0,0.0,0.0,0.0,0.0,0.0,0.0,0.0,0.0,0.0,0.0,0.0,0.0,0.0,0.0,0.0,0.0,0.0,0.0,0.0,0.0,0.0,0.0,0.0,0.0,0.0,0.0,0.0,0.0,0.0,0.0,0.0,0.0,0.0,0.0,0.0,0.0,0.0,0.0,0.0,0.0,0.0,0.0,0.0,0.0,0.0,0.0,0.0,0.0,0.0,0.0,0.0,0.0,0.0,0.0,0.0,0.0,0.0,0.0,0.0,0.0,0.0,0.0,0.0,0.0,0.0,0.0,0.0,0.0,0.0,0.0,0.0,0.0,0.0,0.0,0.0,0.0,0.0,0.0,0.0,0.0,0.0,0.0,0.0,0.0,0.0,0.0,0.0,0.0,0.0,0.0,0.0,0.0,0.0,0.0,0.0,0.0,0.0,0.0,0.0,0.0,0.0,0.0,0.0,0.0,0.0,0.0,0.0,0.0,0.0,0.0,0.0,0.0,0.0,0.0,0.0,0.0,0.0,0.0,0.0,0.0,0.0,0.0,0.0,0.0,0.0,0.0,0.0,0.0,0.0,0.0,0.0,0.0,0.0,0.0,0.0,0.0,0.0,0.0,0.0,0.0,0.0,0.0,0.0,0.0,0.0,0.0,0.0,0.0,0.0,0.0,0.0,0.0,0.0,0.0,0.0,0.0,0.0,0.0,0.0,0.0,0.0,0.0,0.0,0.0,0.0,0.0,0.0,0.0,0.0,0.0,0.0,0.0,0.0,0.0,0.0,0.0,0.0,0.0,0.0,0.0,0.0,0.0,0.0,0.0,0.0,0.0,0.0,0.0,0.0,0.0,0.0,0.0,0.0,0.0,0.0,0.0,0.0,0.0,0.0,0.0,0.0,0.0,0.0,0.0,0.0,0.0,0.0,0.0,0.0,0.0,0.0,0.0,0.0,0.0,0.0,0.0,0.0,0.0,0.0,0.0,0.0,0.0,0.0,0.0,0.0,0.0,0.0,0.0,0.0,0.0,0.0,0.0,0.0,0.0,0.0,0.0,0.0,0.0,0.0,0.0,0.0,0.0,0.0,0.0,0.0,0.0,0.0,0.0,0.0,0.0,0.0,0.0,0.0,0.0,0.0,0.0,0.0,0.0,0.0,0.0,0.0,0.0,0.0,0.0,0.0,0.0,0.0,0.0,0.0,0.0,0.0,0.0,0.0,0.0,0.0,0.0,0.0,0.0,0.0,0.0,0.0,0.0,0.0,0.0,0.0,0.0,0.0,0.0,0.0,0.0,0.0,0.0,0.0,0.0,0.0,0.0,0.0,0.0,0.0,0.0,0.0,0.0,0.0,0.0,0.0,0.0,0.0,0.0,0.0,0.0,0.0,0.0,0.0,0.0,0.0,0.0,0.0,0.0,0.0,0.0,0.0,0.0,0.0,-0.874,0.0,0.0,0.0,0.0,0.0,0.0,0.0,0.0,0.0,0.0,0.0,0.0,0.0,0.0,0.0,0.0,0.0,0.0,0.0,0.0,0.0,0.0,0.0,0.0,0.0,0.0,0.0,0.0,0.0,0.0,0.0,0.0,0.0,0.0,0.0,0.0,0.0,0.0,0.0,0.0,0.0,0.0,0.0,0.0,0.0,0.0,0.0,0.0,0.0,0.0,0.0,0.0,0.0,0.0,0.0,0.0,0.0,0.0,0.0,0.0,0.0,0.0,0.0,0.0,0.0,0.0,0.0,0.0,0.0,0.0,0.0,0.0,0.0,0.0,0.0,0.0,0.0,0.0,0.0,0.0,0.0,0.0,0.0,0.0,0.0,0.0,0.0,0.0,0.0,0.0,0.0,0.0,0.0,0.0,0.0,0.0,0.0,0.0,0.0,0.0,0.0,0.0,0.0,0.0,0.0,0.0,0.0,0.0,0.0,0.0,-0.8854,-0.898,-0.9136,-0.9199,-0.9194,0.0,0.0,0.0,0.0,0.0,0.0,0.0,0.0,0.0,0.0,0.0,0.0,0.0,0.0,0.0,0.0,0.0,0.0,0.0,0.0,0.0,0.0,0.0,0.0,0.0,0.0,0.0,0.0,0.0,0.0,0.0,0.0,0.0,0.0,0.0,0.0,0.0,0.0,0.0,0.0,0.0,0.0,0.0,0.0,0.0,0.0,0.0,0.0,0.0,0.0,0.0,0.0,0.0,0.0,0.0,0.0,0.0,0.0,0.0,0.0,0.0,0.0,0.0,0.0,0.0,0.0,0.0,0.0,0.0,0.0,0.0,0.0,0.0,0.0,0.0,0.0,0.0,0.0,0.0,0.0,0.0,0.0,0.0,0.0,0.0,0.0,0.0,0.0,0.0,0.0,0.0,0.0,0.0,0.0,0.0,0.0,0.0,0.0,0.0,0.0,0.0,0.0,0.0,0.0,0.0,0.0,0.0,0.0,0.0,0.0,0.0,0.0,-0.9676,-0.9673,-0.9554,0.0,0.0,0.0,0.0,0.0,0.0,0.0,0.0,0.0,0.0,0.0,0.0,0.0,0.0,0.0,0.0,0.0,0.0,0.0,0.0,0.0,0.0,0.0,0.0,0.0,0.0,0.0,0.0,0.0,0.0,0.0,0.0,0.0,0.0,0.0,0.0,0.0,0.0,0.0,0.0,0.0,0.0,0.0,0.0,0.0,0.0,0.0,0.0,0.0,0.0,0.0,0.0,0.0,0.0,0.0,0.0,0.0,0.0,0.0,0.0,0.0,0.0,0.0,0.0,0.0,0.0,0.0,0.0,0.0,0.0,0.0,0.0,0.0,0.0,0.0,0.0,0.0,0.0,0.0,0.0,0.0,0.0,0.0,0.0,0.0,0.0,0.0,0.0,0.0,0.0,0.0,0.0,0.0,0.0,0.0,0.0,0.0,0.0,0.0,0.0,0.0,0.0,0.0,0.0,0.0,0.0,0.0,0.0,0.0,0.0,-1.0176,-1.0327,-1.0302,0.0,-0.9771,0.0,0.0,0.0,0.0,0.0,0.0,0.0,0.0,0.0,0.0,0.0,0.0,0.0,0.0,0.0,0.0,0.0,0.0,0.0,0.0,0.0,0.0,0.0,0.0,0.0,0.0,0.0,0.0,0.0,0.0,0.0,0.0,0.0,0.0,0.0,0.0,0.0,0.0,0.0,0.0,0.0,0.0,0.0,0.0,0.0,0.0,0.0,0.0,0.0,0.0,0.0,0.0,0.0,0.0,0.0,0.0,0.0,0.0,0.0,0.0,0.0,0.0,0.0,0.0,0.0,0.0,0.0,0.0,0.0,0.0,0.0,0.0,0.0,0.0,0.0,0.0,0.0,0.0,0.0,0.0,0.0,0.0,0.0,0.0,0.0,0.0,0.0,0.0,0.0,0.0,0.0,0.0,0.0,0.0,0.0,0.0,0.0,0.0,0.0,0.0,0.0,0.0,0.0,0.0,0.0,0.0,0.0,0.0,0.0,0.0,-1.0283,-1.0348,-1.0218,-1.0039,0.0,0.0,0.0,0.0,0.0,0.0,0.0,0.0,0.0,0.0,0.0,0.0,0.0,0.0,0.0,0.0,0.0,0.0,0.0,0.0,0.0,0.0,0.0,0.0,0.0,0.0,0.0,0.0,0.0,0.0,0.0,0.0,0.0,0.0,0.0,0.0,0.0,0.0,0.0,0.0,0.0,0.0,0.0,0.0,0.0,0.0,0.0,0.0,0.0,0.0,0.0,0.0,0.0,0.0,0.0,0.0,0.0,0.0,0.0,0.0,0.0,0.0,0.0,0.0,0.0,0.0,0.0,0.0,0.0,0.0,0.0,0.0,0.0,0.0,0.0,0.0,0.0,0.0,0.0,0.0,0.0,0.0,0.0,0.0,0.0,0.0,0.0,0.0,0.0,0.0,0.0,0.0,0.0,0.0,0.0,0.0,0.0,0.0,0.0,0.0,0.0,0.0,0.0,0.0,0.0,0.0,0.0,0.0,0.0,0.0,-1.0364,-1.073,-1.0982,-1.0787,-1.0604,-1.0485,0.0,0.0,0.0,0.0,0.0,0.0,0.0,0.0,0.0,0.0,0.0,0.0,0.0,0.0,0.0,0.0,0.0,0.0,0.0,0.0,0.0,0.0,0.0,0.0,0.0,0.0,0.0,0.0,0.0,0.0,0.0,0.0,0.0,0.0,0.0,0.0,0.0,0.0,0.0,0.0,0.0,0.0,0.0,0.0,0.0,0.0,0.0,0.0,0.0,0.0,0.0,0.0,0.0,0.0,0.0,0.0,0.0,0.0,0.0,0.0,0.0,0.0,0.0,0.0,0.0,0.0,0.0,0.0,0.0,0.0,0.0,0.0,0.0,0.0,0.0,0.0,0.0,0.0,0.0,0.0,0.0,0.0,0.0,0.0,0.0,0.0,0.0,0.0,0.0,0.0,0.0,0.0,0.0,0.0,0.0,0.0,0.0,0.0,0.0,0.0,0.0,0.0,0.0,0.0,0.0,0.0,0.0,0.0,-1.0301,-1.1031,-1.1826,-1.2642,-1.2512,-1.2328,0.0,0.0,0.0,0.0,0.0,0.0,0.0,0.0,0.0,0.0,0.0,0.0,0.0,0.0,0.0,0.0,0.0,0.0,0.0,0.0,0.0,0.0,0.0,0.0,0.0,0.0,0.0,0.0,0.0,0.0,0.0,0.0,0.0,0.0,0.0,0.0,0.0,0.0,0.0,0.0,0.0,0.0,0.0,0.0,0.0,0.0,0.0,0.0,0.0,0.0,0.0,0.0,0.0,0.0,0.0,0.0,0.0,0.0,0.0,0.0,0.0,0.0,0.0,0.0,0.0,0.0,0.0,0.0,0.0,0.0,0.0,0.0,0.0,0.0,0.0,0.0,0.0,0.0,0.0,0.0,0.0,0.0,0.0,0.0,0.0,0.0,0.0,0.0,0.0,0.0,0.0,0.0,0.0,0.0,0.0,0.0,0.0,0.0,0.0,0.0,0.0,0.0,0.0,0.0,0.0,0.0,0.0,0.0,0.0,-1.1288,-1.2135,-1.2757,-1.3009,-1.2826,-1.2389,0.0,0.0,0.0,0.0,0.0,0.0,0.0,0.0,0.0,0.0,0.0,0.0,0.0,0.0,0.0,0.0,0.0,0.0,0.0,0.0,0.0,0.0,0.0,0.0,0.0,0.0,0.0,0.0,0.0,0.0,0.0,0.0,0.0,0.0,0.0,0.0,0.0,0.0,0.0,0.0,0.0,0.0,0.0,0.0,0.0,0.0,0.0,0.0,0.0,0.0,0.0,0.0,0.0,0.0,0.0,0.0,0.0,0.0,0.0,0.0,0.0,0.0,0.0,0.0,0.0,0.0,0.0,0.0,0.0,0.0,0.0,0.0,0.0,0.0,0.0,0.0,0.0,0.0,0.0,0.0,0.0,0.0,0.0,0.0,0.0,0.0,0.0,0.0,0.0,0.0,0.0,0.0,0.0,0.0,0.0,0.0,0.0,0.0,0.0,0.0,0.0,0.0,0.0,0.0,0.0,0.0,0.0,0.0,0.0,-1.2197,0.0,-1.3502,-1.3803,-1.3433,-1.2818,0.0,0.0,0.0,0.0,0.0,0.0,0.0,0.0,0.0,0.0,0.0,0.0,0.0,0.0,0.0,0.0,0.0,0.0,0.0,0.0,0.0,0.0,0.0,0.0,0.0,0.0,0.0,0.0,0.0,0.0,0.0,0.0,0.0,0.0,0.0,0.0,0.0,0.0,0.0,0.0,0.0,0.0,0.0,0.0,0.0,0.0,0.0,0.0,0.0,0.0,0.0,0.0,0.0,0.0,0.0,0.0,0.0,0.0,0.0,0.0,0.0,0.0,0.0,0.0,0.0,0.0,0.0,0.0,0.0,0.0,0.0,0.0,0.0,0.0,0.0,0.0,0.0,0.0,0.0,0.0,0.0,0.0,0.0,0.0,0.0,0.0,0.0,0.0,0.0,0.0,0.0,0.0,0.0,0.0,0.0,0.0,0.0,0.0,0.0,0.0,0.0,0.0,0.0,0.0,0.0,0.0,0.0,0.0,-1.16,-1.313,-1.3381,-1.4001,-1.5098,-1.4341,-1.3855,0.0,0.0,0.0,0.0,0.0,0.0,0.0,0.0,0.0,0.0,0.0,0.0,0.0,0.0,0.0,0.0,0.0,0.0,0.0,0.0,0.0,0.0,0.0,0.0,0.0,0.0,0.0,0.0,0.0,0.0,0.0,0.0,0.0,0.0,0.0,0.0,0.0,0.0,0.0,0.0,0.0,0.0,0.0,0.0,0.0,0.0,0.0,0.0,0.0,0.0,0.0,0.0,0.0,0.0,0.0,0.0,0.0,0.0,0.0,0.0,0.0,0.0,0.0,0.0,0.0,0.0,0.0,0.0,0.0,0.0,0.0,0.0,0.0,0.0,0.0,0.0,0.0,0.0,0.0,0.0,0.0,0.0,0.0,0.0,0.0,0.0,0.0,0.0,0.0,0.0,0.0,0.0,0.0,0.0,0.0,0.0,0.0,0.0,0.0,0.0,0.0,0.0,0.0,0.0,0.0,0.0,0.0,0.0,0.0,-1.3381,-1.3932,-1.435,-1.4656,-1.4341,-1.3597,0.0,0.0,0.0,0.0,0.0,0.0,0.0,0.0,0.0,0.0,0.0,0.0,0.0,0.0,0.0,0.0,0.0,0.0,0.0,0.0,0.0,0.0,0.0,0.0,0.0,0.0,0.0,0.0,0.0,0.0,0.0,0.0,0.0,0.0,0.0,0.0,0.0,0.0,0.0,0.0,0.0,0.0,0.0,0.0,0.0,0.0,0.0,0.0,0.0,0.0,0.0,0.0,0.0,0.0,0.0,0.0,0.0,0.0,0.0,0.0,0.0,0.0,0.0,0.0,0.0,0.0,0.0,0.0,0.0,0.0,0.0,0.0,0.0,0.0,0.0,0.0,0.0,0.0,0.0,0.0,0.0,0.0,0.0,0.0,0.0,0.0,0.0,0.0,0.0,0.0,0.0,0.0,0.0,0.0,0.0,0.0,0.0,0.0,0.0,0.0,0.0,0.0,0.0,0.0,0.0,0.0,0.0,0.0,0.0,-1.3199,-1.3674,-1.3983,-1.4163,-1.3795,-1.3174,-1.2258,0.0,0.0,0.0,0.0,0.0,0.0,0.0,0.0,0.0,0.0,0.0,0.0,0.0,0.0,0.0,0.0,0.0,0.0,0.0,0.0,0.0,0.0,0.0,0.0,0.0,0.0,0.0,0.0,0.0,0.0,0.0,0.0,0.0,0.0,0.0,0.0,0.0,0.0,0.0,0.0,0.0,0.0,0.0,0.0,0.0,0.0,0.0,0.0,0.0,0.0,0.0,0.0,0.0,0.0,0.0,0.0,0.0,0.0,0.0,0.0,0.0,0.0,0.0,0.0,0.0,0.0,0.0,0.0,0.0,0.0,0.0,0.0,0.0,0.0,0.0,0.0,0.0,0.0,0.0,0.0,0.0,0.0,0.0,0.0,0.0,0.0,0.0,0.0,0.0,0.0,0.0,0.0,0.0,0.0,0.0,0.0,0.0,0.0,0.0,0.0,0.0,0.0,0.0,0.0,0.0,0.0,0.0,0.0,-1.2826,-1.2765,-1.3078,-1.3631,-1.2948,-1.2642,0.0,0.0,0.0,0.0,0.0,0.0,0.0,0.0,0.0,0.0,0.0,0.0,0.0,0.0,0.0,0.0,0.0,0.0,0.0,0.0,0.0,0.0,0.0,0.0,0.0,0.0,0.0,0.0,0.0,0.0,0.0,0.0,0.0,0.0,0.0,0.0,0.0,0.0,0.0,0.0,0.0,0.0,0.0,0.0,0.0,0.0,0.0,0.0,0.0,0.0,0.0,0.0,0.0,0.0,0.0,0.0,0.0,0.0,0.0,0.0,0.0,0.0,0.0,0.0,0.0,0.0,0.0,0.0,0.0,0.0,0.0,0.0,0.0,0.0,0.0,0.0,0.0,0.0,0.0,0.0,0.0,0.0,0.0,0.0,0.0,0.0,0.0,0.0,0.0,0.0,0.0,0.0,0.0,0.0,0.0,0.0,0.0,0.0,0.0,0.0,0.0,0.0,0.0,0.0,0.0,0.0,0.0,0.0,0.0,-1.3078,-1.2666,-1.2597,-1.3017,-1.2826,-1.2581,0.0,0.0,0.0,0.0,0.0,0.0,0.0,0.0,0.0,0.0,0.0,0.0,0.0,0.0,0.0,0.0,0.0,0.0,0.0,0.0,0.0,0.0,0.0,0.0,0.0,0.0,0.0,0.0,0.0,0.0,0.0,0.0,0.0,0.0,0.0,0.0,0.0,0.0,0.0,0.0,0.0,0.0,0.0,0.0,0.0,0.0,0.0,0.0,0.0,0.0,0.0,0.0,0.0,0.0,0.0,0.0,0.0,0.0,0.0,0.0,0.0,0.0,0.0,0.0,0.0,0.0,0.0,0.0,0.0,0.0,0.0,0.0,0.0,0.0,0.0,0.0,0.0,0.0,0.0,0.0,0.0,0.0,0.0,0.0,0.0,0.0,0.0,0.0,0.0,0.0,0.0,0.0,0.0,0.0,0.0,0.0,0.0,0.0,0.0,0.0,0.0,0.0,0.0,0.0,0.0,0.0,0.0,0.0,-1.2842,-1.3683,-1.339,-1.3147,-1.3017,-1.2567,-1.2514,0.0,0.0,0.0,0.0,0.0,0.0,0.0,0.0,0.0,0.0,0.0,0.0,0.0,0.0,0.0,0.0,0.0,0.0,0.0,0.0,0.0,0.0,0.0,0.0,0.0,0.0,0.0,0.0,0.0,0.0,0.0,0.0,0.0,0.0,0.0,0.0,0.0,0.0,0.0,0.0,0.0,0.0,0.0,0.0,0.0,0.0,0.0,0.0,0.0,0.0,0.0,0.0,0.0,0.0,0.0,0.0,0.0,0.0,0.0,0.0,0.0,0.0,0.0,0.0,0.0,0.0,0.0,0.0,0.0,0.0,0.0,0.0,0.0,0.0,0.0,0.0,0.0,0.0,0.0,0.0,0.0,0.0,0.0,0.0,0.0,0.0,0.0,0.0,0.0,0.0,0.0,0.0,0.0,0.0,0.0,0.0,0.0,0.0,0.0,0.0,0.0,0.0,0.0,0.0,0.0,0.0,0.0,0.0,-1.3683,-1.4332,-1.446,-1.4222,-1.3563,-1.2373,-1.2425,0.0,0.0,0.0,0.0,0.0,0.0,0.0,0.0,0.0,0.0,0.0,0.0,0.0,0.0,0.0,0.0,0.0,0.0,0.0,0.0,0.0,0.0,0.0,0.0,0.0,0.0,0.0,0.0,0.0,0.0,0.0,0.0,0.0,0.0,0.0,0.0,0.0,0.0,0.0,0.0,0.0,0.0,0.0,0.0,0.0,0.0,0.0,0.0,0.0,0.0,0.0,0.0,0.0,0.0,0.0,0.0,0.0,0.0,0.0,0.0,0.0,0.0,0.0,0.0,0.0,0.0,0.0,0.0,0.0,0.0,0.0,0.0,0.0,0.0,0.0,0.0,0.0,0.0,0.0,0.0,0.0,0.0,0.0,0.0,0.0,0.0,0.0,0.0,0.0,0.0,0.0,0.0,0.0,0.0,0.0,0.0,0.0,0.0,0.0,0.0,0.0,0.0,0.0,0.0,0.0,0.0,0.0,0.0,-1.4392,-1.5108,-1.4706,-1.4775,-1.5313,-1.336,-1.2696,0.0,0.0,0.0,0.0,0.0,0.0,0.0,0.0,0.0,0.0,0.0,0.0,0.0,0.0,0.0,0.0,0.0,0.0,0.0,0.0,0.0,0.0,0.0,0.0,0.0,0.0,0.0,0.0,0.0,0.0,0.0,0.0,0.0,0.0,0.0,0.0,0.0,0.0,0.0,0.0,0.0,0.0,0.0,0.0,0.0,0.0,0.0,0.0,-1.4233,0.0,0.0,0.0,0.0,0.0,0.0,0.0,0.0,0.0,0.0,0.0,0.0,0.0,0.0,0.0,0.0,0.0,0.0,0.0,0.0,0.0,0.0,0.0,0.0,0.0,0.0,0.0,0.0,0.0,0.0,0.0,0.0,0.0,0.0,0.0,0.0,0.0,0.0,0.0,0.0,0.0,0.0,0.0,0.0,0.0,0.0,0.0,0.0,0.0,0.0,0.0,0.0,0.0,0.0,0.0,0.0,0.0,0.0,0.0,-1.5108,-1.5836,-1.5594,-1.542,-1.5526,-1.4172,-1.3683,0.0,0.0,0.0,0.0,0.0,0.0,0.0,0.0,0.0,0.0,0.0,0.0,0.0,0.0,0.0,0.0,0.0,0.0,0.0,0.0,0.0,0.0,0.0,0.0,0.0,0.0,0.0,0.0,0.0,0.0,0.0,0.0,0.0,0.0,0.0,0.0,0.0,0.0,0.0,0.0,0.0,0.0,0.0,0.0,0.0,0.0,0.0,0.0,0.0,0.0,0.0,0.0,0.0,0.0,0.0,0.0,0.0,0.0,0.0,0.0,0.0,0.0,0.0,0.0,0.0,0.0,0.0,0.0,0.0,0.0,0.0,0.0,0.0,0.0,0.0,0.0,0.0,0.0,0.0,0.0,0.0,0.0,0.0,0.0,0.0,0.0,0.0,0.0,0.0,0.0,0.0,0.0,0.0,0.0,0.0,0.0,0.0,0.0,0.0,0.0,0.0,0.0,0.0,0.0,0.0,0.0,0.0,-1.5439,-1.5836,-1.6374,-1.6374,-1.6077,-1.5342,-1.4801,-1.4801,-1.5177,0.0,0.0,0.0,0.0,0.0,0.0,0.0,0.0,0.0,0.0,0.0,0.0,0.0,0.0,0.0,0.0,0.0,0.0,0.0,0.0,0.0,0.0,0.0,0.0,0.0,0.0,0.0,0.0,0.0,0.0,0.0,0.0,0.0,0.0,0.0,0.0,0.0,0.0,-1.2629,-1.322,0.0,0.0,0.0,0.0,0.0,0.0,0.0,0.0,-1.5716,0.0,0.0,0.0,0.0,0.0,0.0,0.0,0.0,0.0,0.0,0.0,0.0,0.0,0.0,0.0,0.0,0.0,0.0,0.0,0.0,0.0,0.0,0.0,0.0,0.0,0.0,0.0,0.0,0.0,0.0,0.0,0.0,0.0,0.0,0.0,0.0,0.0,0.0,0.0,0.0,0.0,0.0,0.0,0.0,0.0,0.0,0.0,0.0,0.0,0.0,0.0,0.0,0.0,0.0,0.0,0.0,-1.5639,-1.6007,-1.6316,-1.6374,-1.6374,-1.6202,-1.5778,-1.5349,-1.5206,-1.5313,0.0,0.0,0.0,0.0,0.0,0.0,0.0,0.0,0.0,0.0,0.0,0.0,0.0,0.0,0.0,0.0,0.0,0.0,0.0,0.0,0.0,0.0,0.0,0.0,0.0,0.0,0.0,0.0,0.0,0.0,0.0,0.0,0.0,0.0,0.0,0.0,0.0,0.0,0.0,-1.4296,-1.4452,0.0,0.0,0.0,0.0,0.0,0.0,0.0,0.0,-1.7756,0.0,0.0,0.0,0.0,0.0,0.0,0.0,0.0,0.0,0.0,0.0,0.0,0.0,0.0,0.0,0.0,0.0,0.0,0.0,0.0,0.0,0.0,0.0,0.0,0.0,0.0,0.0,0.0,0.0,0.0,0.0,0.0,0.0,0.0,0.0,0.0,0.0,0.0,0.0,0.0,0.0,0.0,0.0,0.0,0.0,0.0,0.0,0.0,0.0,0.0,0.0,0.0,0.0,0.0,0.0,-1.5722,-1.6146,-1.6374,-1.6374,-1.6374,-1.6259,-1.5914,-1.5703,-1.5392,0.0,0.0,0.0,0.0,0.0,0.0,0.0,0.0,0.0,0.0,0.0,0.0,0.0,0.0,0.0,0.0,0.0,0.0,0.0,0.0,0.0,0.0,0.0,0.0,0.0,0.0,0.0,0.0,0.0,0.0,0.0,0.0,0.0,0.0,0.0,0.0,0.0,0.0,0.0,0.0,-1.5865,-1.6257,-1.7925,0.0,0.0,0.0,0.0,0.0,0.0,-1.8635,-1.8647,0.0,0.0,0.0,0.0,0.0,0.0,0.0,0.0,0.0,0.0,0.0,0.0,0.0,0.0,0.0,0.0,0.0,0.0,0.0,0.0,0.0,0.0,0.0,0.0,0.0,0.0,0.0,0.0,0.0,0.0,0.0,0.0,0.0,0.0,0.0,0.0,0.0,0.0,0.0,0.0,0.0,0.0,0.0,0.0,0.0,0.0,0.0,0.0,0.0,0.0,0.0,0.0,0.0,0.0,0.0,-1.5512,-1.6094,-1.6374,-1.6374,-1.6374,-1.6202,-1.5914,-1.5743,-1.5286,0.0,0.0,0.0,0.0,0.0,0.0,0.0,0.0,0.0,0.0,0.0,0.0,0.0,0.0,0.0,0.0,0.0,0.0,0.0,0.0,0.0,0.0,0.0,0.0,0.0,0.0,0.0,0.0,0.0,0.0,0.0,0.0,0.0,0.0,0.0,0.0,0.0,0.0,0.0,0.0,0.0,-1.8154,-1.9208,-1.9258,0.0,0.0,0.0,0.0,-1.9345,-1.9508,0.0,0.0,0.0,0.0,0.0,0.0,0.0,0.0,0.0,0.0,0.0,0.0,0.0,0.0,0.0,0.0,0.0,0.0,0.0,0.0,0.0,0.0,0.0,0.0,0.0,0.0,0.0,0.0,0.0,0.0,0.0,0.0,0.0,0.0,0.0,0.0,0.0,0.0,0.0,0.0,0.0,0.0,0.0,0.0,0.0,0.0,0.0,0.0,0.0,0.0,0.0,0.0,0.0,0.0,0.0,0.0,-1.4963,-1.5883,-1.6374,-1.6374,-1.6239,-1.6077,-1.5904,-1.5049,-1.4562,0.0,0.0,0.0,0.0,0.0,0.0,0.0,0.0,0.0,0.0,0.0,0.0,0.0,0.0,0.0,0.0,0.0,0.0,0.0,0.0,0.0,0.0,0.0,0.0,0.0,0.0,0.0,0.0,0.0,0.0,0.0,0.0,0.0,0.0,0.0,0.0,0.0,0.0,0.0,0.0,0.0,-1.9258,-2.0338,-2.0037,-1.9886,0.0,0.0,-2.1192,-2.1204,-2.1606,0.0,0.0,0.0,0.0,0.0,0.0,0.0,0.0,0.0,0.0,0.0,0.0,0.0,0.0,0.0,0.0,0.0,0.0,0.0,0.0,0.0,0.0,0.0,0.0,0.0,0.0,0.0,0.0,0.0,0.0,0.0,0.0,0.0,0.0,0.0,0.0,0.0,0.0,0.0,0.0,0.0,0.0,0.0,0.0,0.0,0.0,0.0,0.0,0.0,0.0,0.0,0.0,0.0,0.0,0.0,-1.4864,-1.4818,-1.5852,-1.6374,-1.6249,-1.6114,-1.6009,-1.5788,-1.5123,-1.4602,0.0,0.0,0.0,0.0,0.0,0.0,0.0,0.0,0.0,0.0,0.0,0.0,0.0,0.0,0.0,0.0,0.0,0.0,0.0,0.0,0.0,0.0,0.0,0.0,0.0,0.0,0.0,0.0,0.0,0.0,0.0,0.0,0.0,0.0,0.0,0.0,0.0,0.0,0.0,0.0,0.0,0.0,-2.0104,-2.0499,0.0,0.0,0.0,-2.1796,-2.1176,0.0,0.0,0.0,0.0,0.0,0.0,0.0,0.0,0.0,0.0,0.0,0.0,0.0,0.0,0.0,0.0,0.0,0.0,0.0,0.0,0.0,0.0,0.0,0.0,0.0,0.0,0.0,0.0,0.0,0.0,0.0,0.0,0.0,0.0,0.0,0.0,0.0,0.0,0.0,0.0,0.0,0.0,0.0,0.0,0.0,0.0,0.0,0.0,0.0,0.0,0.0,0.0,0.0,0.0,0.0,0.0,0.0,-1.4682,-1.5786,-1.6239,-1.6056,-1.6009,-1.5894,-1.572,-1.5189,0.0,0.0,0.0,0.0,0.0,0.0,0.0,0.0,0.0,0.0,0.0,0.0,0.0,0.0,0.0,0.0,0.0,0.0,0.0,0.0,0.0,0.0,0.0,0.0,0.0,0.0,0.0,-0.8984,0.0,0.0,0.0,0.0,0.0,0.0,0.0,0.0,0.0,0.0,0.0,0.0,0.0,0.0,-2.0084,-2.0195,-2.094,-2.1543,0.0,0.0,-2.1918,-2.1226,-2.2252,-2.2621,0.0,0.0,0.0,0.0,0.0,0.0,0.0,0.0,0.0,0.0,0.0,0.0,0.0,0.0,0.0,0.0,0.0,0.0,0.0,0.0,0.0,0.0,0.0,0.0,0.0,0.0,0.0,0.0,0.0,0.0,0.0,0.0,0.0,0.0,0.0,0.0,0.0,0.0,0.0,0.0,0.0,0.0,0.0,0.0,0.0,0.0,0.0,0.0,0.0,0.0,0.0,0.0,0.0,0.0,-1.4576,-1.4457,-1.5553,-1.6066,-1.5914,-1.5788,-1.573,-1.5672,-1.5019,-1.4359,0.0,0.0,0.0,0.0,0.0,0.0,0.0,0.0,0.0,0.0,0.0,0.0,0.0,0.0,0.0,0.0,0.0,0.0,0.0,0.0,0.0,0.0,0.0,0.0,0.0,0.0,0.0,0.0,0.0,0.0,0.0,0.0,0.0,0.0,0.0,0.0,0.0,0.0,0.0,0.0,0.0,-2.0763,-2.1319,-2.1468,-2.1669,0.0,-2.1876,-2.17,-2.2133,-2.2673,-2.277,-2.1606,0.0,0.0,0.0,0.0,0.0,0.0,0.0,0.0,0.0,0.0,0.0,0.0,0.0,0.0,0.0,0.0,0.0,0.0,0.0,0.0,0.0,0.0,0.0,0.0,0.0,0.0,0.0,0.0,0.0,0.0,0.0,0.0,0.0,0.0,0.0,0.0,0.0,0.0,0.0,0.0,0.0,0.0,0.0,0.0,0.0,0.0,0.0,0.0,0.0,0.0,0.0,0.0,0.0,-1.4427,-1.4437,-1.5461,-1.5914,-1.5788,-1.573,-1.5614,-1.5391,-1.4896,-1.4304,0.0,0.0,0.0,0.0,0.0,0.0,0.0,0.0,0.0,0.0,0.0,0.0,0.0,0.0,0.0,0.0,0.0,0.0,0.0,0.0,0.0,0.0,0.0,0.0,0.0,0.0,0.0,0.0,-1.113,-1.1768,-1.26,0.0,0.0,0.0,0.0,0.0,0.0,0.0,0.0,0.0,0.0,-2.0819,-2.1391,-2.1753,0.0,0.0,-2.2451,-2.2373,-2.1876,-2.2579,-2.268,-2.1264,-2.0978,0.0,0.0,0.0,0.0,0.0,0.0,0.0,0.0,0.0,0.0,0.0,0.0,0.0,0.0,0.0,0.0,0.0,0.0,0.0,0.0,0.0,0.0,0.0,0.0,0.0,0.0,0.0,0.0,0.0,0.0,0.0,0.0,0.0,0.0,0.0,0.0,0.0,0.0,0.0,0.0,0.0,0.0,0.0,0.0,0.0,0.0,0.0,0.0,0.0,0.0,0.0,0.0,-1.4374,-1.431,-1.5349,-1.574,-1.5614,-1.5614,-1.5498,-1.5205,-1.4917,-1.4383,0.0,0.0,0.0,0.0,0.0,0.0,0.0,0.0,0.0,0.0,0.0,0.0,0.0,0.0,0.0,0.0,0.0,0.0,0.0,0.0,0.0,0.0,0.0,0.0,0.0,0.0,0.0,0.0,-1.1453,-1.2366,-1.3598,0.0,0.0,0.0,0.0,0.0,0.0,0.0,0.0,0.0,0.0,-2.1025,-2.1418,-2.1815,-2.2071,-2.2058,-2.2291,-2.2197,-2.1574,-2.2176,-2.2275,-2.115,0.0,0.0,0.0,0.0,0.0,0.0,0.0,0.0,0.0,0.0,0.0,0.0,0.0,0.0,0.0,0.0,0.0,0.0,0.0,0.0,0.0,0.0,0.0,0.0,0.0,0.0,0.0,-0.9773,0.0,0.0,-1.1087,0.0,0.0,0.0,0.0,0.0,0.0,0.0,0.0,0.0,0.0,0.0,0.0,0.0,0.0,0.0,0.0,0.0,0.0,0.0,0.0,0.0,0.0,-1.432,-1.4141,-1.517,-1.5614,-1.542,-1.541,-1.5303,-1.5205,-1.5079,-1.4694,-1.41,0.0,0.0,0.0,0.0,0.0,0.0,0.0,0.0,0.0,0.0,0.0,0.0,0.0,0.0,0.0,0.0,0.0,0.0,0.0,0.0,0.0,0.0,0.0,0.0,0.0,0.0,-1.0278,-1.1839,-1.3438,0.0,0.0,0.0,0.0,0.0,0.0,0.0,0.0,0.0,-1.9626,-2.0728,-2.1492,-2.1469,-2.1506,-2.1531,-2.1543,-2.1134,-2.0957,-2.1418,-2.1549,-2.1493,0.0,0.0,0.0,0.0,0.0,0.0,0.0,0.0,0.0,0.0,0.0,0.0,0.0,0.0,0.0,0.0,0.0,0.0,0.0,0.0,0.0,0.0,0.0,0.0,0.0,0.0,0.0,-1.0105,-1.0633,0.0,0.0,0.0,0.0,0.0,0.0,0.0,0.0,0.0,0.0,0.0,-1.0871,-1.2414,0.0,0.0,0.0,0.0,0.0,0.0,0.0,0.0,0.0,0.0,0.0,0.0,-1.4194,-1.4126,-1.5037,-1.5478,-1.541,-1.5313,-1.5205,-1.5098,-1.4902,-1.4529,-1.3949,0.0,0.0,0.0,0.0,0.0,0.0,0.0,0.0,0.0,0.0,0.0,0.0,0.0,0.0,0.0,0.0,0.0,0.0,0.0,0.0,0.0,0.0,0.0,0.0,0.0,-1.1019,0.0,0.0,0.0,0.0,0.0,0.0,0.0,0.0,0.0,0.0,0.0,-1.8402,-1.9495,-2.007,-2.0653,-2.14,-2.1481,-2.1619,0.0,0.0,0.0,0.0,0.0,0.0,0.0,0.0,0.0,0.0,0.0,0.0,0.0,0.0,-2.2665,-2.1632,-2.1654,-2.1878,-2.2074,0.0,0.0,0.0,0.0,0.0,0.0,0.0,0.0,0.0,0.0,0.0,0.0,0.0,0.0,-1.047,0.0,-1.0631,0.0,0.0,0.0,0.0,0.0,0.0,0.0,0.0,-1.1284,-1.1607,-1.1654,-1.2897,-1.3551,0.0,-1.3669,-1.3654,0.0,0.0,0.0,0.0,0.0,0.0,0.0,0.0,-1.4287,-1.4126,-1.498,-1.5362,-1.5303,-1.5264,-1.5088,-1.4911,-1.4725,-1.4359,-1.3794,-1.3002,-1.2002,0.0,0.0,0.0,0.0,0.0,0.0,0.0,0.0,0.0,0.0,0.0,0.0,0.0,0.0,0.0,0.0,0.0,0.0,0.0,0.0,0.0,0.0,0.0,-1.2165,0.0,0.0,0.0,0.0,0.0,0.0,0.0,0.0,0.0,-1.7263,-1.7793,-1.8589,-1.975,-2.0189,-2.0592,-2.1149,0.0,0.0,0.0,0.0,0.0,0.0,0.0,-2.069,-2.0266,-2.0498,-2.079,-2.1179,-2.1699,-2.2021,-2.1992,0.0,0.0,-2.2466,-2.2708,-2.3149,-2.355,-2.3658,-2.3875,-2.4747,-2.4926,-2.5394,0.0,0.0,0.0,0.0,0.0,0.0,0.0,0.0,-1.0257,-1.0393,0.0,-1.0492,0.0,0.0,0.0,0.0,-1.1589,-1.1545,0.0,0.0,-1.1909,-1.2221,-1.2458,-1.2294,-1.2772,-1.3871,-1.4811,-1.5086,-1.4873,-1.5244,0.0,0.0,0.0,0.0,0.0,0.0,-1.4561,-1.4145,-1.499,-1.5303,-1.5205,-1.5215,-1.502,-1.4706,-1.4556,-1.413,-1.3494,-1.2654,-1.1693,-1.0608,-0.9603,0.0,0.0,0.0,0.0,0.0,0.0,0.0,0.0,0.0,0.0,0.0,0.0,0.0,0.0,0.0,0.0,0.0,0.0,0.0,0.0,-1.3036,0.0,0.0,0.0,0.0,0.0,0.0,0.0,0.0,0.0,0.0,-1.775,-1.8289,-1.9101,-2.025,0.0,0.0,0.0,0.0,-2.1142,-2.0137,-1.9845,-1.979,-1.9815,-2.0221,-2.0674,-2.0981,0.0,0.0,-2.2239,-2.1914,-2.1655,-2.15,-2.1926,-2.2508,-2.3675,-2.3933,-2.4259,-2.4843,-2.4959,-2.5247,-2.5903,-2.6254,-2.6603,-0.8335,0.0,0.0,0.0,0.0,-1.0337,-1.0698,-1.1294,-1.1519,-1.155,-1.1338,-1.1467,0.0,0.0,0.0,0.0,0.0,0.0,-1.1435,-1.1622,-1.2134,-1.2555,-1.2893,-1.4059,-1.4774,-1.5095,-1.5742,-1.6049,-1.612,-1.6056,-1.5438,-1.4336,0.0,0.0,0.0,0.0,-1.4414,-1.4619,-1.5032,-1.5215,-1.5205,-1.4961,-1.4725,-1.4556,-1.407,-1.37,-1.3511,-1.2493,-1.1533,-1.0629,-0.9993,0.0,0.0,0.0,0.0,0.0,0.0,0.0,0.0,0.0,0.0,0.0,0.0,0.0,0.0,0.0,0.0,0.0,0.0,0.0,-1.233,-1.4234,-1.5331,0.0,0.0,0.0,0.0,0.0,0.0,0.0,0.0,0.0,-1.7606,-1.7338,-1.755,0.0,0.0,-1.947,-1.9884,-2.0962,-2.1737,-2.1823,-2.0652,0.0,-2.2102,-2.1316,-2.08,-2.1489,-2.1802,-2.1947,-2.1959,-2.2204,-2.2377,-2.233,-2.2774,-2.3257,-2.3602,-2.4006,-2.4553,-2.5273,-2.5714,-2.6394,-2.7561,-2.7919,-2.8074,-0.8222,-0.8747,-0.8998,-0.953,-1.0254,-1.0725,-1.1087,-1.1379,-1.167,-1.1683,-1.1514,-1.1906,-1.1874,-1.1635,-1.1785,0.0,0.0,0.0,-1.1934,-1.2058,-1.2621,-1.31,-1.3506,-1.4799,-1.5549,-1.5829,-1.6459,-1.6751,-1.6844,-1.6677,-1.6081,-1.4955,0.0,0.0,-1.4043,-1.4389,-1.4586,-1.4749,-1.4994,-1.5088,-1.502,-1.4725,-1.4556,-1.4515,-1.383,-1.3321,-1.3009,-1.2027,-1.1078,-1.0342,-0.9849,-0.9282,0.0,0.0,0.0,0.0,0.0,0.0,0.0,0.0,0.0,0.0,0.0,-1.0715,-1.0528,0.0,0.0,0.0,-1.254,-1.2729,-1.3308,-1.4888,0.0,0.0,0.0,0.0,0.0,0.0,0.0,-1.5856,-1.6922,-1.7733,-1.7726,-1.7376,-1.7519,-1.8614,-1.9008,-1.9304,-1.9575,0.0,-2.1305,-2.1524,-2.1212,-2.1223,-2.2238,-2.2078,-2.1883,-2.197,-2.1934,-2.1934,-2.1946,-2.2287,-2.2482,-2.2555,-2.2775,-2.3053,-2.3053,-2.3467,-2.4202,-2.5302,-2.5748,-2.6371,-2.7528,-2.7652,-2.7653,-0.8069,-0.8038,-0.769,-0.8061,-0.9081,-1.0267,-1.0535,-1.0368,-1.1111,-1.1261,-1.1056,-1.1939,-1.2199,-1.1977,-1.1902,0.0,-1.2395,-1.2586,-1.2635,-1.2706,-1.3255,-1.3729,-1.4055,-1.4809,-1.5491,-1.6133,-1.6943,-1.7193,-1.7033,-1.7033,-1.6766,-1.6182,-1.6085,-1.5654,-1.4846,-1.5071,-1.5032,-1.4676,-1.4849,-1.4911,-1.4715,-1.4497,-1.4446,-1.4396,-1.37,-1.2956,-1.2274,-1.1392,-1.0591,-0.9856,-0.9363,-0.9156,-0.9058,0.0,0.0,0.0,0.0,0.0,0.0,0.0,0.0,0.0,0.0,0.0,0.0,0.0,0.0,-1.3629,-1.4404,0.0,-1.4801,-1.5232,0.0,0.0,0.0,-1.6999,-1.793,-1.8037,-1.7803,-1.725,0.0,0.0,-1.8105,-1.8105,-1.8567,-1.9848,-2.0033,-1.9959,-1.9599,-2.0023,-2.0374,-2.0236,-2.1571,-2.2219,-2.1332,-2.2344,-2.3008,-2.2149,-2.2197,-2.2161,-2.2161,-2.2173,-2.2197,-2.2197,-2.2197,-2.2197,-2.2197,-2.2633,-2.3391,-2.4826,-2.5243,-2.5555,-2.6222,-2.6184,-2.6025,-0.8052,-0.7959,-0.7625,-0.8082,-0.9085,-1.0415,-1.0968,-1.0962,-1.1781,-1.2044,-1.1978,-1.2191,-1.2218,-1.2163,-1.2163,-1.2349,-1.2556,-1.2322,-1.236,-1.2558,-1.3517,-1.3983,-1.4162,-1.535,-1.6005,-1.6151,-1.6249,-1.6279,-1.6436,-1.652,-1.63,-1.5756,-1.5756,-1.5441,-1.4887,-1.4963,-1.5065,-1.5343,-1.4946,-1.4666,-1.4556,-1.401,-1.3761,-1.37,-1.2466,-1.1732,-1.1545,-1.0611,-0.9989,-0.9804,-0.9545,-0.9292,-0.9144,-0.8998,0.0,0.0,0.0,0.0,0.0,0.0,0.0,0.0,0.0,-1.1252,-1.1435,0.0,-1.2318,0.0,-1.546,-1.6195,-1.5782,-1.6729,0.0,0.0,-1.7562,-1.7716,-1.7988,-1.8291,-1.8308,-1.7843,-1.8498,-1.8975,-1.8965,-1.9165,-1.9463,-1.9865,-1.9594,-1.9191,-1.8903,-1.9966,-2.0765,-2.0796,-2.2151,-2.2971,-2.1695,-2.1908,-2.2162,-2.1458,-2.1862,-2.2197,-2.2197,-2.2197,-2.2197,-2.2197,-2.2197,-2.2197,-2.2197,-2.2306,-2.249,-2.296,-2.3917,-2.4976,-2.5508,-2.5521,-2.5521,-0.8012,-0.8012,-0.7757,-0.8048,-0.8658,-1.0256,-1.1111,-1.1467,-1.2317,-1.2632,-1.2498,-1.2365,-1.2305,-1.2305,-1.2305,-1.2378,-1.2439,-1.2349,-1.2278,-1.2346,-1.3332,-1.3703,-1.3643,-1.4861,-1.5617,-1.5964,-1.5969,-1.6193,-1.6637,-1.6732,-1.6609,-1.616,-1.616,-1.5955,-1.5536,-1.5055,-1.4946,-1.5172,-1.5014,-1.4823,-1.4772,-1.4389,-1.3917,-1.322,-1.2177,-1.1328,-1.0767,-0.991,-0.9482,-0.9474,-0.9252,-0.9166,-0.9244,-0.9124,-0.9104,0.0,0.0,0.0,0.0,0.0,0.0,0.0,0.0,0.0,0.0,0.0,-1.3413,-1.4347,-1.6102,-1.6801,-1.6053,-1.6951,-1.7708,-1.8,-1.8151,-1.8508,-1.8957,-1.9282,-1.9399,-1.9194,-1.9594,-1.9853,-1.9863,-2.0049,-2.0031,-1.9941,-1.9773,-1.9575,-1.9331,-1.9957,-2.0467,-2.0626,-2.0967,-2.096,-2.0147,-2.0875,-2.1456,-2.1267,-2.1726,-2.2197,-2.2197,-2.2197,-2.2197,-2.2197,-2.2197,-2.2197,-2.2197,-2.2197,-2.2197,-2.2332,-2.2894,-2.3577,-2.3929,-2.3992,-2.3992,-0.7998,-0.8002,-0.8085,-0.8085,-0.8085,-0.9722,-1.0913,-1.1674,-1.2638,-1.2981,-1.2869,-1.2532,-1.2418,-1.2418,-1.2412,-1.2392,-1.2365,-1.258,-1.2497,-1.2209,-1.3031,-1.3231,-1.3051,-1.3997,-1.4898,-1.5547,-1.6008,-1.6524,-1.7028,-1.7185,-1.7097,-1.6826,-1.6835,-1.6633,-1.6211,-1.529,-1.4786,-1.474,-1.5044,-1.5113,-1.4978,-1.4889,-1.4162,-1.2772,-1.2008,-1.116,-1.0021,-0.933,-0.9028,-0.9156,-0.8933,-0.9035,-0.949,-0.9253,-0.9366,0.0,-1.0183,0.0,0.0,0.0,0.0,0.0,0.0,0.0,0.0,-1.4545,-1.4974,-1.5111,-1.6606,-1.7225,-1.635,-1.6874,-1.7576,-1.8471,-1.863,-1.9061,-2.0081,-2.0333,-2.0411,-2.0576,-2.0576,-2.0557,-2.0546,-2.0605,-2.04,-2.0019,-2.0246,-2.0377,-2.0046,-1.9899,-1.9895,-2.0155,-1.9083,-1.8676,-1.8674,-1.9878,-2.1076,-2.116,-2.1794,-2.2265,-2.245,-2.2438,-2.2426,-2.2426,-2.2474,-2.2438,-2.2315,-2.2354,-2.2306,-2.2231,-2.2294,-2.2344,-2.2332,-2.2406,-2.2197,-0.8186,-0.8194,-0.8384,-0.8297,-0.7929,-0.8315,-0.9331,-1.0853,-1.1748,-1.2454,-1.312,-1.289,-1.2863,-1.3039,-1.2863,-1.2725,-1.2741,-1.2741,-1.2573,-1.2298,-1.3078,-1.3482,-1.343,-1.419,-1.4648,-1.4869,-1.6114,-1.651,-1.6044,-1.6691,-1.6743,-1.6441,-1.6431,-1.6221,-1.5817,0.0,0.0,0.0,-1.5597,-1.5378,-1.4327,-1.3805,-1.2975,-1.1658,-1.0774,0.0,-0.9825,-0.9359,-0.918,-0.9376,-0.9204,0.0,0.0,0.0,0.0,0.0,0.0,0.0,0.0,0.0,0.0,0.0,-1.2066,-1.2537,-1.3318,-1.4623,-1.5669,-1.6191,-1.7322,-1.8026,-1.8197,-1.8745,-1.9158,-1.9307,-1.8906,-1.8961,-1.9844,-1.9371,-1.9381,-2.0479,-2.0449,-2.0401,-2.0579,-2.0631,-2.04,-2.0039,-2.0311,-2.0526,-2.0439,-1.9873,-1.9478,-1.9486,-1.9223,-1.9043,-1.9027,-1.9848,-2.0743,-2.1311,-2.2015,-2.2674,-2.3215,-2.3358,-2.3448,-2.3358,-2.3472,-2.3334,-2.3096,-2.291,-2.2723,-2.2313,-2.219,-2.2197,-2.2197,-2.2197,-2.2197,-0.8113,-0.8028,-0.8212,-0.8128,0.0,-0.7643,-0.8406,-1.0036,-1.1294,-1.2316,-1.3085,-1.2855,-1.2797,-1.2883,-1.2797,-1.2713,-1.2817,-1.2817,-1.2815,-1.2752,-1.3127,-1.3355,-1.3355,-1.3726,-1.4088,-1.444,-1.4797,-1.5405,-1.6255,-1.6692,-1.6965,-1.7211,-1.7211,-1.7101,-1.689,-1.6473,-1.6093,-1.5707,-1.5851,-1.5578,-1.4894,-1.4138,-1.3097,-1.1738,-1.0955,0.0,0.0,0.0,0.0,0.0,0.0,0.0,0.0,-0.9731,0.0,-1.0821,-1.1809,-1.2167,-1.1902,-1.2041,-1.2168,-1.2294,-1.2471,-1.3007,-1.381,-1.525,-1.6259,-1.6594,-1.7105,-1.7518,-1.7706,-1.7983,-1.8167,-1.8167,-1.7908,-1.798,-1.8301,-1.8149,-1.8558,-1.9851,-1.9809,-1.965,-2.0227,-2.0372,-2.0275,-1.9976,-2.0014,-2.0235,-2.0382,-2.0129,-1.9958,-1.994,-1.9693,-1.9698,-1.9902,-2.0114,-2.04,-2.0885,-2.1527,-2.2092,-2.2571,-2.2571,-2.265,-2.265,-2.2922,-2.3214,-2.3487,-2.3448,-2.334,-2.3013,-2.2743,-2.2594,-2.257,-2.2378,-2.2197,-0.8028,-0.7856,-0.7764,-0.7764,-0.7764,-0.7305,-0.7826,-0.9231,0.0,0.0,0.0,-1.2725,-1.2624,-1.2631,-1.2624,-1.2686,-1.2888,-1.2881,-1.2942,-1.3055,-1.3048,-1.3048,-1.3048,-1.3055,-1.3344,-1.3938,-1.3372,-1.4149,-1.6201,-1.6514,-1.6977,-1.7662,-1.7821,-1.7821,-1.7794,-1.7184,-1.6634,-1.624,-1.5898,-1.5648,-1.5257,-1.4372,-1.3247,-1.1847,-1.132,-1.0626,-0.9693,-0.9574,-0.967,-0.9983,-0.9688,-0.979,-1.0287,-1.002,-1.0202,-1.122,-1.2163,-1.2635,-1.2355,-1.2385,-1.2475,-1.2687,-1.2966,-1.3542,-1.46,-1.571,-1.6527,-1.6698,-1.6698,-1.6698,-1.6698,-1.6698,-1.6698,-1.6698,-1.669,-1.6756,-1.6919,-1.6927,-1.7506,-1.8949,-1.87,-1.8594,-1.9181,-1.9552,-1.9752,-1.946,-1.907,-1.9325,-1.9923,-2.0294,-2.0487,-2.051,-2.0239,-2.0121,-2.0484,-2.048,-2.0431,-2.071,-2.1193,-2.1495,-2.1637,-2.1707,-2.1707,-2.1936,-2.228,-2.3006,-2.3849,-2.3854,-2.3819,-2.4001,-2.3532,-2.3123,-2.3087,-2.2787,-2.2462,-0.7591,-0.7507,-0.7323,-0.7228,-0.7231,-0.7139,-0.7661,-0.8807,-1.0971,-1.251,-1.3334,-1.3199,-1.318,-1.3277,-1.318,-1.3054,-1.3009,-1.3009,-1.2875,-1.2644,-1.2644,-1.2565,-1.2565,-1.2559,-1.2638,-1.279,-1.3317,-1.3782,-1.4265,-1.5358,-1.604,-1.6201,-1.6666,-1.6985,-1.6968,-1.6841,-1.6539,-1.588,-1.6033,-1.5325,-1.3677,-1.2814,-1.1888,-1.0898,-1.0754,-1.0535,-1.0218,-0.9946,-0.9934,-1.0254,-0.9958,-1.0121,-1.0563,-1.0771,-1.1159,-1.172,-1.2359,-1.2668,-1.2644,-1.2644,-1.2668,-1.2699,-1.2966,-1.3613,-1.4816,-1.5094,-1.5621,-1.6535,-1.6617,-1.6698,-1.6698,-1.6617,-1.6617,-1.6617,-1.6049,-1.5876,-1.6527,-1.6041,-1.6049,-1.7049,-1.718,-1.7147,-1.722,-1.787,-1.8227,-1.7747,-1.751,-1.7299,-1.8691,-1.9844,-2.0489,-2.0634,-2.0518,-2.0546,-2.0515,-2.0564,-2.0751,-2.1504,-2.1507,-2.1754,-2.2262,-2.241,-2.2421,-2.2644,-2.2652,-2.3352,-2.4553,-2.4176,-2.3968,-2.4481,-2.4094,-2.3544,-2.3574,-2.3466,-2.322,-0.7415,-0.7234,-0.7139,-0.7139,-0.7139,-0.7139,-0.7665,-0.8544,-0.9671,-1.0971,-1.2186,-1.218,-1.2528,-1.2966,-1.296,-1.2977,-1.304,-1.304,-1.3054,-1.3016,-1.3016,-1.301,-1.3016,-1.3016,-1.3016,-1.3016,-1.3333,-1.392,-1.4579,-1.5028,-1.5759,-1.6755,-1.7212,-1.7259,-1.684,-1.6505,-1.6089,-1.5734,-1.5846,-1.5209,-1.3645,-1.2928,-1.2131,-1.1397,-1.1044,-1.0827,-1.0749,-1.0641,-1.0628,-1.0749,-1.0641,-1.0683,-1.0924,-1.1059,-1.1312,-1.1828,-1.2194,-1.2554,-1.2693,-1.2705,-1.2705,-1.2705,-1.279,-1.313,-1.388,-1.4132,-1.4559,-1.5235,-1.5311,-1.5311,-1.5311,-1.5311,-1.5311,-1.5311,-1.4908,-1.4908,-1.5151,-1.4985,-1.4894,-1.5289,-1.5786,-1.5913,-1.533,-1.6406,-1.7229,-1.7017,-1.6708,-1.6952,-1.7496,-1.8709,-1.9794,-2.042,-2.0391,-2.0264,-2.0255,-2.0255,-2.0401,-2.0779,-2.0779,-2.0924,-2.1298,-2.1298,-2.1375,-2.1364,-2.1756,-2.2241,-2.2854,-2.304,-2.3419,-2.3709,-2.3486,-2.311,-2.3397,-2.3346,-2.2971,-0.7323,-0.7139,-0.7139,-0.7139,-0.7139,-0.7139,-0.7492,-0.8193,-0.8193,-0.9148,-1.0626,-1.1068,-1.1757,-1.2357,-1.2619,-1.2796,-1.2966,-1.2966,-1.3052,-1.3222,-1.3222,-1.3222,-1.3222,-1.3222,-1.3222,-1.3222,-1.3222,-1.3828,-1.4685,-1.4566,-1.5401,-1.7024,-1.7563,-1.7413,-1.69,-1.6165,-1.5697,-1.5513,-1.541,-1.4895,-1.3889,-1.3215,-1.258,-1.1973,-1.152,-1.1292,-1.1292,-1.1292,-1.1292,-1.1292,-1.1292,-1.1298,-1.1298,-1.1307,-1.1544,-1.1924,-1.217,-1.2404,-1.2681,-1.2705,-1.2705,-1.2705,-1.2705,-1.2796,-1.3058,-1.3398,-1.3652,-1.3913,-1.3997,-1.3997,-1.3997,-1.3997,-1.3997,-1.3997,-1.4082,-1.4166,-1.4088,-1.4088,-1.4088,-1.4173,-1.4741,-1.4866,-1.4559,-1.5245,-1.6041,-1.6049,-1.6445,-1.6527,-1.6527,-1.7423,-1.8683,-1.9809,-2.0017,-1.9854,-1.9766,-1.9854,-1.9942,-1.9872,-1.9942,-2.002,-2.0098,-1.9942,-1.9942,-2.0089,-2.0624,-2.1001,-2.0824,-2.1673,-2.2371,-2.2392,-2.2356,-2.27,-2.3191,-2.3024,-2.2672,-0.7139,-0.7139,-0.7139,-0.7139,-0.7139,-0.7051,-0.7139,-0.7228,-0.7228,-0.7753,-0.889,-1.0539,-1.1322,-1.1494,-1.2357,-1.2705,-1.279,-1.2705,-1.279,-1.279,-1.279,-1.279,-1.279,-1.279,-1.279,-1.279,-1.279,-1.2875,-1.3137,-1.3555,-1.4482,-1.5824,-1.6484,-1.6804,-1.6601,-1.6011,-1.5411,-1.4802,-1.4505,-1.4135,-1.3789,-1.3126,-1.2568,-1.1927,-1.1842,-1.1848,-1.1817,-1.1848,-1.1848,-1.1848,-1.183,-1.1836,-1.186,-1.2089,-1.224,-1.2276,-1.2518,-1.2687,-1.2705,-1.2705,-1.2705,-1.2705,-1.2705,-1.279,-1.3052,-1.3137,-1.3228,-1.3398,-1.3483,-1.3476,-1.3483,-1.3652,-1.3743,-1.3737,-1.3913,-1.4088,-1.4088,-1.4088,-1.4088,-1.4088,-1.425,-1.4166,-1.4146,-1.4405,-1.4412,-1.458,-1.5228,-1.5553,-1.5636,-1.6288,-1.7375,-1.8878,-1.9561,-1.9678,-1.9464,-1.9659,-1.9775,-1.9863,-1.9863,-1.9863,-1.9863,-1.9863,-1.9872,-1.9784,-1.9942,-2.0264,-2.0528,-2.1158,-2.1227,-2.0994,-2.1645,-2.2848,-2.3018,-2.2845,-2.2648,-0.7139,-0.7139,-0.7139,-0.7139,-0.7051,-0.6786,-0.6786,-0.6877,-0.6786,-0.6871,-0.7397,-0.8619,-1.0014,-1.1327,-1.2277,-1.2705,-1.2705,-1.2705,-1.2705,-1.2705,-1.2705,-1.2705,-1.2705,-1.2705,-1.2705,-1.2705,-1.2705,-1.2705,-1.2784,-1.3014,-1.36,-1.4482,-1.5151,-1.5484,-1.5484,-1.4817,-1.4566,-1.465,-1.3774,-1.3489,-1.3687,-1.3126,-1.2485,-1.2006,-1.1926,-1.1926,-1.1926,-1.1926,-1.1926,-1.1926,-1.1926,-1.1926,-1.1926,-1.2029,-1.2149,-1.2312,-1.2554,-1.2705,-1.2705,-1.2705,-1.2705,-1.2705,-1.2705,-1.279,-1.2881,-1.2881,-1.2881,-1.2966,-1.3222,-1.3398,-1.3398,-1.3483,-1.3561,-1.3568,-1.3737,-1.3913,-1.3906,-1.4004,-1.4088,-1.4088,-1.4088,-1.4088,-1.4088,-1.4088,-1.4088,-1.4082,-1.4496,-1.4657,-1.4657,-1.5394,-1.5869,-1.6347,-1.7155,-1.839,-1.9009,-1.9432,-1.9539,-1.9539,-1.9539,-1.9539,-1.9539,-1.9539,-1.9539,-1.9539,-1.9627,-1.9715,-1.9784,-2.0196,-2.0353,-2.0198,-2.0651,-2.1821,-2.1461,-2.1756,-2.1803,-0.6962,-0.6874,-0.6874,-0.6874,-0.6782,-0.6517,-0.652,-0.67,-0.6428,-0.6428,-0.6517,-0.7394,-0.8707,-1.0361,-1.1483,-1.2003,-1.2095,-1.2272,-1.2272,-1.2357,-1.2272,-1.2272,-1.2357,-1.2454,-1.2369,-1.2357,-1.2357,-1.2528,-1.2699,-1.2729,-1.3068,-1.3724,-1.4405,-1.4734,-1.465,-1.4068,-1.3899,-1.4321,-1.33,-1.296,-1.3334,-1.2997,-1.2544,-1.2137,-1.2137,-1.2131,-1.2131,-1.2137,-1.2137,-1.2137,-1.2137,-1.2137,-1.2131,-1.2137,-1.2222,-1.2403,-1.2596,-1.2705,-1.2705,-1.2705,-1.2705,-1.2705,-1.2705,-1.2705,-1.2705,-1.2705,-1.2705,-1.2705,-1.3052,-1.3222,-1.3222,-1.3215,-1.3215,-1.3307,-1.3483,-1.3568,-1.3646,-1.3822,-1.3919,-1.4095,-1.4004,-1.3997,-1.4082,-1.4088,-1.4088,-1.4088,-1.4088,-1.4088,-1.4166,-1.4657,-1.4873,-1.4539,-1.5666,-1.6919,-1.847,-1.8886,-1.8975,-1.9292,-1.9292,-1.9292,-1.9292,-1.9292,-1.9301,-1.946,-1.9469,-1.9478,-1.9548,-1.9696,-1.9863,-2.001,-2.0313,-2.0692,-2.0479,-2.0779,-2.0779,-0.6609,-0.6432,-0.6428,-0.634,-0.6248,-0.634,-0.6428,-0.6432,-0.6428,-0.6432,-0.6517,-0.7305,-0.7834,-0.8093,-0.9662,-1.0443,-1.0529,-1.1144,-1.1413,-1.1408,-1.1408,-1.1408,-1.1413,-1.1693,-1.1693,-1.1499,-1.1746,-1.2095,-1.2613,-1.265,-1.3068,-1.3646,-1.423,-1.465,-1.4482,-1.3893,-1.3737,-1.3652,-1.3045,-1.2705,-1.279,-1.2753,-1.2717,-1.2626,-1.2656,-1.2626,-1.2644,-1.2656,-1.2656,-1.2662,-1.2632,-1.2644,-1.265,-1.2644,-1.265,-1.2589,-1.2693,-1.2705,-1.2705,-1.2705,-1.2705,-1.2705,-1.2705,-1.2705,-1.2705,-1.2705,-1.2705,-1.2705,-1.2796,-1.279,-1.2699,-1.2778,-1.2857,-1.3052,-1.3313,-1.3392,-1.3398,-1.3483,-1.3659,-1.3932,-1.3841,-1.3835,-1.4088,-1.4088,-1.4082,-1.4088,-1.4088,-1.4088,-1.4088,-1.4166,-1.4489,-1.497,-1.5379,-1.5944,-1.7301,-1.7891,-1.8399,-1.8727,-1.8807,-1.9213,-1.9292,-1.9292,-1.9292,-1.9292,-1.9301,-1.9381,-1.9381,-1.9469,-1.9627,-1.9784,-1.9706,-1.9784,-1.9942,-1.9942,-2.002,-0.6508,-0.6251,-0.6254,-0.6166,-0.616,-0.5994,-0.5994,-0.6171,-0.5994,-0.5905,-0.5994,-0.6346,-0.6435,-0.6523,-0.7566,-0.8873,-1.0269,-1.0534,-1.088,-1.1235,-1.1322,-1.1322,-1.1322,-1.1419,-1.1419,-1.1327,-1.1408,-1.158,-1.1752,-1.1821,-1.2077,-1.2528,-1.2869,-1.3124,-1.3294,-1.3215,-1.3045,-1.3045,-1.279,-1.2705,-1.2699,-1.2705,-1.2705,-1.2705,-1.2705,-1.2705,-1.2705,-1.2705,-1.2705,-1.2705,-1.2705,-1.2705,-1.2699,-1.2443,-1.21,-1.1843,-1.21,-1.2272,-1.2272,-1.2534,-1.2705,-1.2705,-1.2705,-1.2705,-1.2705,-1.2705,-1.2705,-1.2705,-1.2705,-1.2534,-1.2015,-1.2351,-1.2699,-1.2875,-1.3052,-1.3137,-1.3228,-1.3307,-1.3483,-1.3574,-1.3574,-1.3665,-1.3939,-1.3932,-1.3913,-1.4102,-1.4095,-1.4088,-1.4088,-1.4088,-1.425,-1.4503,-1.458,-1.4901,-1.5944,-1.6764,-1.7342,-1.7674,-1.7917,-1.8238,-1.8487,-1.9054,-1.9213,-1.9134,-1.9213,-1.9292,-1.9301,-1.9301,-1.9548,-1.946,-1.9469,-1.9548,-1.9627,-1.9715,-1.9794,-0.6374,-0.6204,-0.6113,-0.6085,-0.6048,-0.5874,-0.5855,-0.5911,-0.5822,-0.5733,-0.5733,-0.5733,-0.5733,-0.5822,-0.6257,-0.739,-0.9048,-0.9396,-0.984,-1.0453,-1.0539,-1.0631,-1.0895,-1.0895,-1.0895,-1.089,-1.0885,-1.0971,-1.123,-1.1042,-1.1214,-1.1757,-1.1757,-1.1929,-1.2186,-1.2272,-1.2272,-1.2272,-1.2363,-1.2363,-1.2272,-1.2528,-1.2619,-1.2534,-1.2443,-1.2528,-1.2705,-1.2705,-1.2705,-1.2705,-1.2705,-1.2705,-1.2619,-1.21,-1.1757,-1.1757,-1.1923,-1.2015,-1.2015,-1.2277,-1.2443,-1.2272,-1.2357,-1.2448,-1.2448,-1.2619,-1.2534,-1.2363,-1.2558,-1.2215,-1.1139,-1.0844,-1.1091,-1.1643,-1.1923,-1.2095,-1.2095,-1.218,-1.2443,-1.279,-1.3039,-1.3313,-1.3776,-1.3672,-1.3665,-1.3848,-1.3919,-1.3913,-1.3913,-1.3913,-1.3828,-1.3913,-1.3906,-1.4153,-1.4636,-1.513,-1.6281,-1.6772,-1.7432,-1.7674,-1.7836,-1.8567,-1.9054,-1.8975,-1.9054,-1.9213,-1.9292,-1.9292,-1.9292,-1.9292,-1.9301,-1.9381,-1.9469,-1.9478,-1.9548,-0.6178,-0.6164,-0.6083,-0.6002,-0.5909,-0.5907,-0.5841,-0.5681,-0.5757,-0.5684,-0.5692,-0.5668,-0.5768,-0.5744,-0.5841,-0.6177,-0.6953,-0.7566,-0.8269,-0.8973,-0.9065,-0.9414,-1.0033,-1.0125,-1.012,-1.012,-1.0091,-1.0438,-1.1149,-1.0499,-1.0504,-1.1144,-1.1322,-1.1322,-1.1327,-1.1408,-1.1408,-1.1494,-1.1843,-1.1752,-1.1499,-1.2186,-1.2363,-1.2015,-1.2015,-1.2186,-1.2613,-1.2613,-1.2528,-1.2613,-1.2619,-1.2705,-1.2443,-1.1757,-1.1666,-1.2186,-1.21,-1.1929,-1.1929,-1.1923,-1.1752,-1.1671,-1.1752,-1.1929,-1.2015,-1.2357,-1.2272,-1.1682,-1.1888,-1.1819,-1.0005,-0.8636,-0.836,-0.9557,-1.0269,-1.0269,-1.0183,-1.0009,-1.0443,-1.166,-1.2431,-1.2838,-1.3209,-1.3398,-1.3404,-1.3483,-1.3483,-1.3483,-1.3483,-1.3483,-1.3476,-1.3483,-1.3483,-1.3737,-1.3568,-1.3561,-1.488,-1.5944,-1.6846,-1.7342,-1.718,-1.7585,-1.8318,-1.8487,-1.9063,-1.9222,-1.9292,-1.9292,-1.9292,-1.9292,-1.9292,-1.9301,-1.9381,-1.939,-1.9381,-0.6272,-0.6194,-0.6183,-0.6064,-0.6029,-0.6029,-0.5818,-0.5511,-0.5789,-0.5789,-0.5511,-0.5789,-0.5931,-0.5863,-0.585,-0.5896,-0.6088,-0.6349,-0.6959,-0.8009,-0.8627,-0.8978,-0.9331,-0.9772,-1.0038,-1.0038,-1.0028,-1.0115,-1.0289,-1.0101,-1.0279,-1.0722,-1.0809,-1.0977,-1.1235,-1.1322,-1.1322,-1.1322,-1.1413,-1.1408,-1.1322,-1.158,-1.1666,-1.158,-1.1499,-1.158,-1.1757,-1.1752,-1.1752,-1.1757,-1.1757,-1.1585,-1.1241,-1.0982,-1.0809,-1.0814,-1.0982,-1.1063,-1.0977,-1.0971,-1.1139,-1.1494,-1.1483,-1.1397,-1.1494,-1.1585,-1.1505,-1.1003,-1.0916,-1.0294,-0.9327,-0.7971,-0.7967,-0.9657,-0.9923,-0.9763,-0.9786,-0.9854,-1.0702,-1.202,-1.257,-1.2747,-1.2887,-1.3058,-1.3143,-1.3228,-1.3313,-1.3398,-1.3398,-1.3313,-1.3398,-1.3398,-1.3398,-1.3313,-1.3307,-1.3307,-1.3886,-1.4873,-1.5696,-1.6273,-1.6281,-1.6764,-1.7415,-1.8006,-1.8656,-1.9063,-1.9143,-1.9125,-1.9036,-1.9213,-1.9292,-1.9292,-1.9292,-1.9292,-1.9292,-0.4818,-0.4865,-0.505,-0.5126,-0.519,-0.5382,-0.536,-0.5047,-0.5329,-0.5329,-0.5138,-0.5327,-0.5482,-0.5425,-0.5413,-0.5354,-0.5262,-0.5165,-0.5676,-0.6602,-0.7658,-0.8364,-0.889,-0.9685,-1.0038,-1.0038,-1.0038,-1.0038,-1.0038,-1.0038,-1.012,-1.0294,-1.0381,-1.0549,-1.0809,-1.0809,-1.0809,-1.0814,-1.0982,-1.0982,-1.0895,-1.1149,-1.1235,-1.1068,-1.1068,-1.1068,-1.1068,-1.089,-1.0982,-1.1149,-1.1149,-1.0977,-1.0809,-1.0641,-1.0381,-1.0554,-1.0549,-1.0544,-1.0284,-1.0188,-1.0096,-1.0356,-1.0178,-1.0086,-1.0269,-1.0356,-1.0371,-0.996,-0.9975,-0.9441,-0.8296,-0.7542,-0.7638,-0.8629,-0.8819,-0.9017,-0.9063,-0.9549,-1.0126,-1.0989,-1.1396,-1.1978,-1.2525,-1.2454,-1.2625,-1.2887,-1.3052,-1.3137,-1.3137,-1.313,-1.3137,-1.3137,-1.3137,-1.3045,-1.313,-1.313,-1.3137,-1.3802,-1.4461,-1.4796,-1.4887,-1.5854,-1.6748,-1.7286,-1.787,-1.8371,-1.8523,-1.8461,-1.8443,-1.878,-1.9213,-1.9292,-1.9292,-1.9292,-1.9292,-0.2407,-0.2409,-0.3207,-0.3558,-0.3707,-0.4394,-0.4651,-0.4496,-0.4596,-0.4604,-0.4506,-0.4612,-0.4689,-0.4581,-0.4767,-0.462,-0.4453,-0.4516,-0.4567,-0.4954,-0.5991,-0.7305,-0.8711,-0.951,-0.9859,-1.0038,-1.0038,-1.0038,-1.0038,-1.0038,-1.0038,-1.0038,-1.0038,-1.0038,-1.012,-1.0038,-1.012,-1.0207,-1.0376,-1.0381,-1.0125,-1.0727,-1.0982,-1.0549,-1.0549,-1.0549,-1.0554,-1.0294,-1.0467,-1.1068,-1.0717,-1.0722,-1.0895,-1.0376,-1.0381,-1.0895,-1.0717,-1.0197,-0.9671,-0.9318,-0.9052,-0.844,-0.8524,-0.8436,-0.8694,-0.9048,-0.8965,-0.8468,-0.902,-0.8777,-0.7282,-0.6728,-0.6898,-0.7034,-0.7576,-0.7714,-0.7844,-0.8979,-0.9526,-0.9393,-0.9615,-1.0459,-1.2006,-1.1662,-1.1802,-1.2277,-1.2528,-1.2534,-1.279,-1.279,-1.2705,-1.279,-1.2881,-1.2875,-1.2875,-1.296,-1.296,-1.3215,-1.3717,-1.3808,-1.3977,-1.5032,-1.5846,-1.6378,-1.6902,-1.74,-1.7797,-1.7738,-1.8043,-1.855,-1.8886,-1.9134,-1.9292,-1.9292,-1.9213,-0.1546,-0.1642,-0.2413,-0.3078,-0.3556,-0.3891,-0.4004,-0.4093,-0.4536,-0.4445,-0.4267,-0.4569,-0.4718,-0.4867,-0.4665,-0.452,-0.4256,-0.4283,-0.443,-0.4391,-0.4681,-0.6334,-0.8093,-0.889,-0.9419,-0.9864,-0.9951,-1.0038,-1.0038,-0.9951,-0.9951,-1.0038,-0.9951,-1.0038,-1.0038,-1.0038,-1.0038,-1.0038,-1.012,-1.012,-1.012,-1.0212,-1.0299,-1.0207,-1.0207,-1.0207,-1.012,-1.0038,-1.0038,-1.0294,-1.0207,-1.0212,-1.0381,-1.0125,-1.012,-1.0207,-0.9763,-0.9327,-0.8973,-0.8181,-0.783,-0.8265,-0.783,-0.7837,-0.8006,-0.8093,-0.7742,-0.7136,-0.7146,-0.7197,-0.6557,-0.6436,-0.6534,-0.6985,-0.7331,-0.7754,-0.8344,-0.834,-0.8602,-0.9565,-0.8886,-0.9349,-1.0319,-1.079,-1.0813,-1.1473,-1.178,-1.1935,-1.2369,-1.2753,-1.2771,-1.2729,-1.2802,-1.2705,-1.2705,-1.2705,-1.2705,-1.279,-1.3052,-1.3228,-1.3639,-1.4371,-1.4866,-1.5206,-1.5801,-1.6304,-1.678,-1.6911,-1.7577,-1.7997,-1.8416,-1.8576,-1.9054,-1.9213,-1.9134,-0.0095,-0.019,-0.0951,-0.1617,-0.2001,-0.2697,-0.3001,-0.32,-0.3819,-0.3958,-0.3781,-0.3985,-0.4177,-0.4267,-0.4164,-0.3925,-0.3759,-0.3811,-0.3851,-0.3869,-0.398,-0.5186,-0.677,-0.7562,-0.8269,-0.9069,-0.9703,-0.9878,-0.9689,-0.9685,-0.9777,-0.9777,-0.9864,-0.9864,-1.0038,-1.0038,-1.0038,-1.0038,-1.0038,-1.0038,-1.0038,-1.0038,-1.0038,-1.0038,-1.0038,-1.0038,-1.0038,-1.0038,-1.0038,-1.0038,-1.0038,-1.0038,-1.0038,-1.0038,-0.9864,-0.9598,-0.9152,-0.8711,-0.8009,-0.7217,-0.6953,-0.7217,-0.6871,-0.6871,-0.6874,-0.6874,-0.652,-0.6166,-0.608,-0.6143,-0.6256,-0.6261,-0.6516,-0.6872,-0.7249,-0.7681,-0.8346,-0.8086,-0.8229,-0.8744,-0.8506,-0.816,-0.9583,-0.9648,-1.0088,-1.0666,-1.1324,-1.1603,-1.1969,-1.2463,-1.2793,-1.2707,-1.2871,-1.3037,-1.3055,-1.3055,-1.3031,-1.3,-1.2978,-1.304,-1.3174,-1.3743,-1.3873,-1.4203,-1.4706,-1.5199,-1.5606,-1.6018,-1.6437,-1.6935,-1.744,-1.7853,-1.8167,-1.8567,-1.8567,0.1517,0.1422,0.0758,0.0379,-0.0,-0.1138,-0.1898,-0.2184,-0.2767,-0.3086,-0.3123,-0.3131,-0.3354,-0.3221,-0.3396,-0.3189,-0.3147,-0.3226,-0.3147,-0.3254,-0.3455,-0.4226,-0.5092,-0.6151,-0.6946,-0.7834,-0.92,-0.9463,-0.9262,-0.9157,-0.9423,-0.9602,-0.9689,-0.9777,-0.9951,-1.0038,-1.0038,-1.0038,-1.0038,-1.0038,-1.0038,-1.0038,-1.0038,-1.0038,-1.0038,-1.0038,-1.0038,-1.0038,-1.0038,-1.0038,-1.0038,-1.0038,-1.0038,-0.9951,-0.9593,-0.8978,-0.8627,-0.8009,-0.7129,-0.6779,-0.6428,-0.5994,-0.5911,-0.5733,-0.5911,-0.5908,-0.5908,-0.5819,-0.5741,-0.5831,-0.6163,-0.6438,-0.6586,-0.6796,-0.7018,-0.7235,-0.7447,-0.7753,-0.7898,-0.7768,-0.7935,-0.8339,-0.8604,-0.8991,-0.9221,-0.9958,-1.0457,-1.0771,-1.1352,-1.2015,-1.242,-1.2703,-1.301,-1.3447,-1.3453,-1.3453,-1.3417,-1.3375,-1.3218,-1.3103,-1.2954,-1.3132,-1.2991,-1.3215,-1.388,-1.421,-1.4455,-1.4873,-1.5365,-1.5944,-1.6527,-1.6609,-1.6772,-1.7269,-1.7513,0.1455,0.1364,0.1272,0.0818,0.0364,-0.0,-0.0837,-0.1864,-0.2079,-0.2476,-0.297,-0.3068,-0.3104,-0.3159,-0.3064,-0.3174,-0.309,-0.3056,-0.3074,-0.2969,-0.304,-0.3182,-0.3776,-0.4828,-0.5977,-0.6953,-0.8572,-0.8928,-0.8368,-0.8807,-0.9331,-0.951,-0.9689,-0.9951,-0.9951,-0.9951,-1.0038,-1.0038,-0.9946,-1.0038,-1.0038,-1.0038,-1.0038,-1.0038,-1.0038,-1.0038,-1.0038,-1.0038,-1.0038,-1.0038,-1.0038,-1.0033,-0.9859,-0.9419,-0.9069,-0.8627,-0.7834,-0.7129,-0.6779,-0.6257,-0.5908,-0.5733,-0.5733,-0.5733,-0.5733,-0.5733,-0.5733,-0.5749,-0.5721,-0.5847,-0.6236,-0.6404,-0.6492,-0.6528,-0.6537,-0.6739,-0.7045,-0.755,-0.7726,-0.7704,-0.7786,-0.8041,-0.8072,-0.8147,-0.8543,-0.9153,-0.9561,-0.9916,-1.0635,-1.1535,-1.2122,-1.2507,-1.3191,-1.3707,-1.3713,-1.3701,-1.367,-1.3634,-1.3507,-1.3272,-1.3037,-1.2868,-1.2893,-1.2924,-1.3052,-1.3379,-1.3711,-1.3964,-1.4545,-1.5039,-1.5448,-1.5703,-1.5951,-1.6281,-1.6535,0.2152,0.2152,0.2151,0.1882,0.1526,0.1179,0.0546,-0.0274,-0.1104,-0.1582,-0.2062,-0.2443,-0.2757,-0.2807,-0.2715,-0.274,-0.2872,-0.2859,-0.2994,-0.3008,-0.2973,-0.2925,-0.2974,-0.3764,-0.465,-0.5445,-0.5883,-0.6325,-0.7037,-0.8105,-0.8819,-0.8719,-0.9161,-0.9519,-0.9694,-0.9777,-0.9777,-0.9864,-0.9946,-1.0038,-1.0038,-1.0038,-1.0038,-1.0038,-1.0038,-1.0038,-1.0038,-1.0038,-1.0038,-1.0038,-0.9946,-0.9772,-0.9506,-0.9065,-0.8627,-0.7834,-0.7305,-0.6605,-0.6257,-0.5997,-0.5733,-0.5733,-0.5733,-0.5733,-0.5733,-0.5733,-0.5733,-0.5668,-0.5753,-0.5903,-0.6338,-0.6369,-0.6426,-0.6437,-0.6437,-0.6439,-0.6639,-0.7045,-0.745,-0.7447,-0.7736,-0.7806,-0.7848,-0.7805,-0.7838,-0.8475,-0.9198,-0.9554,-1.0014,-1.0944,-1.1878,-1.2505,-1.3374,-1.3836,-1.3936,-1.3918,-1.3882,-1.3827,-1.3737,-1.3447,-1.3145,-1.3,-1.288,-1.2887,-1.2875,-1.2966,-1.3294,-1.3464,-1.3633,-1.4048,-1.4461,-1.4796,-1.4963,-1.497,-1.5387,0.2867,0.2867,0.2867,0.2867,0.2776,0.2239,0.1792,0.1522,0.0358,-0.0453,-0.0916,-0.1656,-0.2049,-0.2272,-0.2279,-0.2306,-0.2441,-0.2549,-0.2711,-0.2851,-0.2813,-0.285,-0.2891,-0.3051,-0.3408,-0.3942,-0.3751,-0.4192,-0.5625,-0.6874,-0.7217,-0.7397,-0.8285,-0.8727,-0.9078,-0.9428,-0.9515,-0.9602,-0.9689,-0.9864,-0.9951,-0.9951,-0.9951,-1.0038,-1.0038,-1.0038,-1.0038,-1.0038,-1.0038,-0.9946,-0.9864,-0.9419,-0.8978,-0.8627,-0.8189,-0.6956,-0.6691,-0.6346,-0.5908,-0.5733,-0.5733,-0.5733,-0.5733,-0.5733,-0.5733,-0.5733,-0.5733,-0.5692,-0.5775,-0.5951,-0.6363,-0.6377,-0.6429,-0.6437,-0.6437,-0.6437,-0.6437,-0.6437,-0.6842,-0.7244,-0.7447,-0.7524,-0.7621,-0.77,-0.774,-0.7882,-0.8527,-0.906,-0.9539,-1.0175,-1.1128,-1.1952,-1.2707,-1.3803,-1.4004,-1.4093,-1.4063,-1.3972,-1.3906,-1.3604,-1.3278,-1.3115,-1.297,-1.2783,-1.279,-1.2875,-1.2875,-1.3045,-1.313,-1.3222,-1.347,-1.3971,-1.3893,-1.3646,-1.4314,0.2867,0.2867,0.2867,0.2867,0.2867,0.2776,0.2417,0.179,0.1521,0.0537,-0.063,-0.09,-0.1461,-0.2037,-0.2233,-0.2276,-0.2328,-0.2442,-0.2425,-0.2483,-0.2458,-0.2515,-0.2528,-0.2604,-0.2782,-0.296,-0.2955,-0.3576,-0.4109,-0.4186,-0.5164,-0.6239,-0.7394,-0.7921,-0.8277,-0.8807,-0.9253,-0.9345,-0.9432,-0.9519,-0.9689,-0.9689,-0.9777,-0.9951,-0.9951,-0.9951,-0.9951,-1.0038,-1.0038,-0.9946,-0.9419,-0.8715,-0.8185,-0.8009,-0.7573,-0.6868,-0.6254,-0.5908,-0.5733,-0.5733,-0.5733,-0.5733,-0.5733,-0.5733,-0.5733,-0.5738,-0.5749,-0.5727,-0.5858,-0.6151,-0.638,-0.6423,-0.6431,-0.6437,-0.6437,-0.6437,-0.6437,-0.6437,-0.6539,-0.6945,-0.7045,-0.7144,-0.7341,-0.754,-0.7502,-0.7566,-0.7851,-0.8133,-0.8391,-0.9162,-1.0091,-1.0997,-1.1798,-1.2978,-1.3957,-1.4142,-1.4208,-1.4093,-1.3972,-1.3719,-1.3435,-1.3236,-1.3055,-1.2813,-1.2705,-1.2705,-1.2705,-1.2705,-1.2875,-1.3052,-1.3137,-1.3137,-1.3313,-1.3483,-1.3483,0.3583,0.3583,0.3582,0.3582,0.3583,0.3583,0.3403,0.3044,0.2597,0.161,0.0537,-0.009,-0.0901,-0.1545,-0.1822,-0.1947,-0.209,-0.2145,-0.2218,-0.2273,-0.2272,-0.2335,-0.234,-0.2332,-0.2424,-0.2603,-0.278,-0.3045,-0.3494,-0.3213,-0.3746,-0.4999,-0.6245,-0.6953,-0.7485,-0.8017,-0.864,-0.8907,-0.9174,-0.9349,-0.9432,-0.9432,-0.9519,-0.9607,-0.9777,-0.9777,-0.9777,-0.9951,-0.9772,-0.9423,-0.9069,-0.8277,-0.7658,-0.7309,-0.7048,-0.6343,-0.5908,-0.5733,-0.5733,-0.5733,-0.5733,-0.5733,-0.5733,-0.5733,-0.5733,-0.5741,-0.5697,-0.5736,-0.6053,-0.6249,-0.6412,-0.6434,-0.6437,-0.6437,-0.6437,-0.6437,-0.6437,-0.6437,-0.6539,-0.6642,-0.6742,-0.6942,-0.7238,-0.7338,-0.7338,-0.7338,-0.7338,-0.7437,-0.7437,-0.8326,-0.9312,-1.0867,-1.1828,-1.2962,-1.3921,-1.4082,-1.4141,-1.4063,-1.393,-1.3682,-1.3459,-1.3194,-1.2982,-1.2771,-1.2717,-1.2705,-1.2705,-1.2705,-1.279,-1.2881,-1.2881,-1.2966,-1.3143,-1.3228,-1.3313,0.4297,0.4297,0.4297,0.4297,0.4297,0.4297,0.4297,0.4119,0.3494,0.2597,0.17,0.0896,-0.0,-0.0897,-0.135,-0.1545,-0.1855,-0.1918,-0.1896,-0.1949,-0.2048,-0.2118,-0.2148,-0.2129,-0.2125,-0.231,-0.249,-0.2772,-0.2871,-0.2865,-0.3401,-0.4117,-0.501,-0.5719,-0.6428,-0.6871,-0.7665,-0.8288,-0.8732,-0.8907,-0.9174,-0.9262,-0.9349,-0.9349,-0.9432,-0.9432,-0.9157,-0.9602,-0.9152,-0.8623,-0.8273,-0.7837,-0.6779,-0.6609,-0.6257,-0.5641,-0.5555,-0.5733,-0.5733,-0.5733,-0.5733,-0.5733,-0.5733,-0.5733,-0.5746,-0.5779,-0.5767,-0.5863,-0.6093,-0.6304,-0.641,-0.6437,-0.6437,-0.6437,-0.6437,-0.6437,-0.6437,-0.6437,-0.6437,-0.6539,-0.6642,-0.6739,-0.6936,-0.6936,-0.6936,-0.7039,-0.7039,-0.7141,-0.7238,-0.7733,-0.8913,-1.0863,-1.2206,-1.3121,-1.3832,-1.392,-1.3942,-1.3821,-1.3676,-1.3465,-1.3272,-1.3067,-1.288,-1.2723,-1.2717,-1.2705,-1.2705,-1.2705,-1.2705,-1.279,-1.2705,-1.279,-1.2966,-1.2966,-1.3052,0.4297,0.4297,0.4297,0.4297,0.4297,0.4297,0.4297,0.4297,0.4121,0.3583,0.2597,0.2419,0.1523,0.0179,-0.0987,-0.1362,-0.1568,-0.1578,-0.1569,-0.1627,-0.1627,-0.1688,-0.1709,-0.1779,-0.1896,-0.2004,-0.2185,-0.2384,-0.2497,-0.2685,-0.2872,-0.332,-0.3941,-0.4563,-0.5008,-0.563,-0.6428,-0.7136,-0.7404,-0.7937,-0.8823,-0.9174,-0.9262,-0.9262,-0.9257,-0.899,-0.854,-0.8899,-0.8544,-0.7122,-0.7037,-0.6508,-0.5714,-0.5191,-0.4926,-0.4837,-0.5107,-0.5733,-0.5555,-0.5555,-0.5555,-0.5466,-0.5555,-0.5644,-0.5576,-0.5657,-0.576,-0.6161,-0.6203,-0.6317,-0.6313,-0.6434,-0.6437,-0.6437,-0.6437,-0.6437,-0.6437,-0.6437,-0.6437,-0.6437,-0.6539,-0.6539,-0.6537,-0.6537,-0.6534,-0.6637,-0.6739,-0.6839,-0.7126,-0.7707,-0.8024,-0.9723,-1.134,-1.2341,-1.308,-1.3275,-1.3442,-1.3403,-1.3447,-1.3272,-1.3091,-1.2922,-1.2825,-1.2705,-1.2705,-1.2705,-1.2705,-1.2705,-1.2705,-1.2705,-1.2705,-1.2705,-1.2705,-1.279,-1.279,0.4478,0.4297,0.4297,0.4297,0.4297,0.4297,0.4297,0.4297,0.4297,0.3762,0.3045,0.2867,0.1881,0.0448,-0.0448,-0.0901,-0.1272,-0.1455,-0.1438,-0.1414,-0.1406,-0.1386,-0.1443,-0.1515,-0.1527,-0.162,-0.1728,-0.1832,-0.2118,-0.2321,-0.2515,-0.2603,-0.305,-0.3585,-0.3941,-0.4565,-0.5453,-0.6163,-0.6874,-0.7672,-0.8472,-0.8828,-0.8915,-0.8911,-0.8999,-0.8732,-0.846,-0.8281,-0.7925,-0.6684,-0.6334,-0.5628,-0.5008,-0.4656,-0.4478,-0.4389,-0.4115,-0.4385,-0.4746,-0.4926,-0.4926,-0.4926,-0.4926,-0.4837,-0.4956,-0.5158,-0.5548,-0.6183,-0.5968,-0.6072,-0.631,-0.6437,-0.6437,-0.6431,-0.6203,-0.631,-0.6313,-0.6434,-0.6437,-0.6437,-0.6426,-0.6401,-0.6388,-0.6391,-0.6501,-0.6637,-0.6725,-0.6714,-0.718,-0.7926,-0.8115,-0.8361,-0.9759,-1.115,-1.1791,-1.2308,-1.2558,-1.2721,-1.3207,-1.3027,-1.2928,-1.2777,-1.2723,-1.2705,-1.2705,-1.2705,-1.2705,-1.2705,-1.2705,-1.2705,-1.2705,-1.2705,-1.2705,-1.2705,-1.279,0.4659,0.4476,0.4389,0.43,0.4389,0.4389,0.4389,0.4297,0.4389,0.3942,0.3405,0.3226,0.224,0.0628,0.009,-0.0449,-0.1346,-0.1427,-0.1406,-0.1386,-0.1368,-0.1349,-0.1326,-0.1322,-0.1326,-0.1338,-0.1448,-0.1554,-0.1662,-0.1861,-0.2064,-0.2155,-0.2513,-0.2871,-0.3406,-0.3851,-0.4387,-0.5364,-0.6251,-0.6962,-0.7588,-0.7764,-0.7764,-0.794,-0.8116,-0.8201,-0.7757,-0.7841,-0.7309,-0.5625,-0.5361,-0.4741,-0.4032,-0.3853,-0.3855,-0.3764,-0.3405,-0.3403,-0.3853,-0.4212,-0.43,-0.4297,-0.4297,-0.448,-0.4408,-0.4543,-0.4727,-0.5568,-0.5521,-0.5613,-0.5854,-0.5942,-0.5829,-0.5821,-0.5829,-0.5948,-0.6057,-0.6038,-0.6216,-0.639,-0.6382,-0.6301,-0.6298,-0.6323,-0.6459,-0.6617,-0.6617,-0.6583,-0.7012,-0.7617,-0.7525,-0.7483,-0.8451,-0.9627,-1.0131,-1.0744,-1.1289,-1.2065,-1.2539,-1.2726,-1.2555,-1.2655,-1.2711,-1.2705,-1.2699,-1.2705,-1.2705,-1.2705,-1.2705,-1.2705,-1.2705,-1.2705,-1.2705,-1.2705,-1.2705,0.501,0.4921,0.4474,0.4476,0.4659,0.4743,0.4563,0.4389,0.4569,0.448,0.4119,0.4125,0.3047,0.1612,0.0806,-0.0,-0.1345,-0.1406,-0.1384,-0.1355,-0.1324,-0.1309,-0.1296,-0.1292,-0.1292,-0.1315,-0.1348,-0.1373,-0.1391,-0.1509,-0.1791,-0.2155,-0.2244,-0.2424,-0.2781,-0.3141,-0.3676,-0.4565,-0.5453,-0.5897,-0.6166,-0.6166,-0.6166,-0.634,-0.6609,-0.652,-0.4921,-0.616,-0.6071,-0.3941,-0.4119,-0.4032,-0.3409,-0.323,-0.3232,-0.3141,-0.3051,-0.305,-0.332,-0.3765,-0.421,-0.43,-0.421,-0.4121,-0.4039,-0.4294,-0.4627,-0.4657,-0.4771,-0.4901,-0.4901,-0.4882,-0.5211,-0.5317,-0.5432,-0.5429,-0.5427,-0.5408,-0.5679,-0.6135,-0.6244,-0.6091,-0.6099,-0.6214,-0.6255,-0.6404,-0.6388,-0.6354,-0.6266,-0.6673,-0.6541,-0.6554,-0.7309,-0.7978,-0.8263,-0.9118,-1.0539,-1.1329,-1.1914,-1.2042,-1.2049,-1.2272,-1.2357,-1.2528,-1.2528,-1.2613,-1.2705,-1.2705,-1.2705,-1.2705,-1.2705,-1.2705,-1.2705,-1.2705,-1.2705,0.5079,0.517,0.4887,0.4775,0.4924,0.4921,0.4832,0.4743,0.4832,0.4835,0.4743,0.4656,0.4028,0.2864,0.215,0.1164,-0.0268,-0.1142,-0.1299,-0.1368,-0.1344,-0.1325,-0.1313,-0.1311,-0.1322,-0.1334,-0.1274,-0.1376,-0.1392,-0.1421,-0.1432,-0.1705,-0.1974,-0.2155,-0.2334,-0.2694,-0.3409,-0.4032,-0.4654,-0.5008,-0.5633,-0.5722,-0.5722,-0.5808,-0.5897,-0.5988,-0.5366,-0.5277,-0.4654,-0.4034,-0.3588,-0.3232,-0.3053,-0.2964,-0.2875,-0.2875,-0.2875,-0.2875,-0.2875,-0.323,-0.3409,-0.3408,-0.3408,-0.3499,-0.3501,-0.3562,-0.3781,-0.3999,-0.4131,-0.426,-0.4664,-0.4953,-0.5249,-0.5142,-0.5036,-0.4933,-0.4924,-0.4814,-0.5005,-0.5467,-0.569,-0.5731,-0.5823,-0.6005,-0.6146,-0.6187,-0.6159,-0.6024,-0.6032,-0.5966,-0.5937,-0.5996,-0.6656,-0.7692,-0.8067,-0.8995,-1.0101,-1.0712,-1.1241,-1.1413,-1.1585,-1.158,-1.1752,-1.2015,-1.2357,-1.2448,-1.2534,-1.2619,-1.2705,-1.2705,-1.2705,-1.2705,-1.2705,-1.2705,-1.2705,0.5204,0.5379,0.5201,0.5041,0.5051,0.5176,0.5102,0.501,0.5099,0.5099,0.501,0.501,0.4472,0.3669,0.3223,0.2149,0.0712,-0.0263,-0.0872,-0.1206,-0.1361,-0.135,-0.1348,-0.1346,-0.1341,-0.127,-0.1288,-0.139,-0.1391,-0.1421,-0.1432,-0.1525,-0.1615,-0.1795,-0.2155,-0.2513,-0.3051,-0.3587,-0.3853,-0.4032,-0.4743,-0.4743,-0.4743,-0.4832,-0.501,-0.501,-0.4743,-0.4478,-0.43,-0.3678,-0.3321,-0.2964,-0.2875,-0.2875,-0.2875,-0.2875,-0.2875,-0.2875,-0.2875,-0.2875,-0.2875,-0.3053,-0.2963,-0.2964,-0.2886,-0.291,-0.3289,-0.3482,-0.3618,-0.3747,-0.4219,-0.4285,-0.4278,-0.4077,-0.4173,-0.4075,-0.4171,-0.4166,-0.4453,-0.4736,-0.4939,-0.5395,-0.5673,-0.5844,-0.5898,-0.5938,-0.6037,-0.5893,-0.5896,-0.5841,-0.5814,-0.5871,-0.6189,-0.7221,-0.8333,-0.8782,-0.9318,-1.0284,-1.0722,-1.0982,-1.1063,-1.1149,-1.1322,-1.1671,-1.1929,-1.2192,-1.2454,-1.2625,-1.2711,-1.2705,-1.2705,-1.2705,-1.2705,-1.2705,-1.2705,0.5358,0.5371,0.5368,0.5268,0.5203,0.5505,0.5453,0.5085,0.5277,0.528,0.5099,0.501,0.4652,0.3937,0.3848,0.2862,0.1516,0.0966,0.0087,-0.1043,-0.1292,-0.1358,-0.1356,-0.1359,-0.1367,-0.1274,-0.138,-0.1398,-0.1395,-0.1422,-0.1434,-0.1436,-0.1436,-0.1615,-0.1795,-0.2064,-0.2334,-0.2515,-0.2603,-0.2872,-0.3141,-0.332,-0.3318,-0.3497,-0.3942,-0.4032,-0.3676,-0.3944,-0.3676,-0.323,-0.3053,-0.2875,-0.2875,-0.2875,-0.2875,-0.2875,-0.2875,-0.2875,-0.2875,-0.2875,-0.2875,-0.2875,-0.2875,-0.2875,-0.2875,-0.2882,-0.2888,-0.3172,-0.3083,-0.3077,-0.3069,-0.3159,-0.3259,-0.3447,-0.3544,-0.3638,-0.3734,-0.3645,-0.3839,-0.4027,-0.4615,-0.5114,-0.5481,-0.5676,-0.5644,-0.5684,-0.5804,-0.5858,-0.5784,-0.5757,-0.5746,-0.5994,-0.6236,-0.7204,-0.8165,-0.8177,-0.8623,-0.9593,-1.0294,-1.0549,-1.0722,-1.0809,-1.0982,-1.1327,-1.1499,-1.1763,-1.2203,-1.2729,-1.2717,-1.2705,-1.2705,-1.2705,-1.2705,-1.2705,-1.2705,0.5135,0.5143,0.5133,0.5189,0.5253,0.5529,0.5523,0.5362,0.5513,0.5552,0.5463,0.5463,0.5371,0.5015,0.4748,0.403,0.2677,0.1785,0.0798,-0.0798,-0.0966,-0.1144,-0.1229,-0.1312,-0.1315,-0.1408,-0.1418,-0.1418,-0.1421,-0.1432,-0.1434,-0.1436,-0.1436,-0.1525,-0.1795,-0.2064,-0.2244,-0.2334,-0.2334,-0.2334,-0.2424,-0.2604,-0.2604,-0.2694,-0.3141,-0.3232,-0.2964,-0.3409,-0.323,-0.2963,-0.2875,-0.2875,-0.2875,-0.2875,-0.2875,-0.2875,-0.2875,-0.2875,-0.2875,-0.2875,-0.2875,-0.2875,-0.2875,-0.2875,-0.2875,-0.2875,-0.2875,-0.2875,-0.2875,-0.2875,-0.2967,-0.3236,-0.351,-0.351,-0.3604,-0.3604,-0.3605,-0.3244,-0.3247,-0.3337,-0.3762,-0.4387,-0.4748,-0.5193,-0.523,-0.533,-0.545,-0.5719,-0.5662,-0.5744,-0.5735,-0.616,-0.6584,-0.7383,-0.8089,-0.836,-0.8803,-0.968,-1.012,-1.012,-1.0294,-1.0467,-1.0641,-1.0809,-1.1068,-1.1332,-1.1946,-1.2552,-1.2625,-1.2705,-1.2699,-1.2699,-1.2705,-1.2705,-1.2705,0.5018,0.5026,0.5015,0.5044,0.5167,0.5385,0.5422,0.5472,0.5638,0.5689,0.5636,0.5733,0.5644,0.5646,0.556,0.5384,0.4028,0.2864,0.1343,-0.0269,-0.0448,-0.0626,-0.0805,-0.1166,-0.125,-0.1346,-0.1436,-0.1434,-0.1432,-0.1434,-0.1436,-0.1436,-0.1436,-0.1436,-0.1615,-0.1795,-0.1974,-0.1974,-0.2064,-0.2155,-0.2244,-0.2334,-0.2424,-0.2425,-0.2604,-0.2784,-0.2785,-0.2875,-0.2875,-0.2875,-0.2875,-0.2875,-0.2875,-0.2875,-0.2875,-0.2875,-0.2875,-0.2875,-0.2875,-0.2784,-0.2785,-0.2875,-0.2875,-0.2875,-0.2875,-0.2875,-0.2875,-0.2875,-0.2875,-0.2875,-0.2964,-0.332,-0.332,-0.3411,-0.3411,-0.3321,-0.3321,-0.3053,-0.2963,-0.305,-0.3227,-0.3764,-0.4212,-0.4478,-0.4757,-0.4931,-0.5109,-0.5374,-0.5644,-0.573,-0.5819,-0.6248,-0.6858,-0.7749,-0.8456,-0.8894,-0.9423,-0.9946,-1.0038,-1.0038,-1.0038,-1.0207,-1.0294,-1.0381,-1.0636,-1.116,-1.186,-1.2295,-1.2363,-1.2528,-1.2613,-1.2613,-1.2699,-1.2705,-1.2705,0.5018,0.5018,0.5018,0.5023,0.4983,0.501,0.5247,0.5448,0.5456,0.5608,0.5706,0.57,0.5706,0.5719,0.5727,0.5649,0.5295,0.3765,0.215,0.0627,0.009,-0.0,-0.0,-0.0538,-0.0807,-0.1166,-0.1256,-0.1256,-0.1346,-0.1436,-0.1436,-0.1436,-0.1436,-0.1436,-0.1436,-0.1525,-0.1615,-0.1795,-0.1795,-0.1885,-0.1974,-0.2155,-0.2155,-0.2244,-0.2334,-0.2515,-0.2604,-0.2694,-0.2784,-0.2785,-0.2785,-0.2875,-0.2875,-0.2875,-0.2875,-0.2875,-0.2785,-0.2785,-0.2784,-0.2604,-0.2604,-0.2694,-0.2785,-0.2875,-0.2875,-0.2875,-0.2875,-0.2875,-0.2875,-0.2875,-0.2964,-0.2964,-0.2964,-0.2964,-0.2964,-0.2964,-0.2964,-0.2875,-0.2875,-0.3053,-0.323,-0.3678,-0.4034,-0.4302,-0.43,-0.43,-0.4478,-0.4924,-0.5193,-0.5727,-0.5902,-0.626,-0.7054,-0.8036,-0.874,-0.9349,-0.9602,-0.9951,-1.0038,-1.0038,-1.0038,-1.0038,-1.012,-1.0207,-1.0376,-1.0809,-1.1338,-1.1849,-1.2095,-1.2254,-1.2257,-1.2589,-1.2577,-1.2693,-1.2705,0.5018,0.5018,0.5018,0.5018,0.5029,0.501,0.5149,0.5407,0.542,0.545,0.5477,0.5567,0.5608,0.5523,0.5692,0.573,0.5476,0.4935,0.3765,0.2419,-0.0,-0.0,-0.0,-0.0,-0.0,-0.0538,-0.0718,-0.0897,-0.0987,-0.1166,-0.1346,-0.1436,-0.1436,-0.1436,-0.1436,-0.1436,-0.1436,-0.1525,-0.1525,-0.1615,-0.1705,-0.1885,-0.1885,-0.1974,-0.2155,-0.2244,-0.2334,-0.2424,-0.2424,-0.2424,-0.2424,-0.2424,-0.2424,-0.2424,-0.2424,-0.2424,-0.2424,-0.2424,-0.2424,-0.2334,-0.2334,-0.2424,-0.2424,-0.2694,-0.2785,-0.2875,-0.2875,-0.2785,-0.2875,-0.2875,-0.2875,-0.2875,-0.2875,-0.2875,-0.2875,-0.2875,-0.2875,-0.2875,-0.2875,-0.2964,-0.3142,-0.3232,-0.3678,-0.3857,-0.3765,-0.3764,-0.3853,-0.43,-0.4746,-0.5277,-0.6263,-0.671,-0.7143,-0.812,-0.9095,-0.9795,-0.9873,-0.9951,-0.9951,-1.0038,-1.0038,-1.0038,-1.0038,-1.012,-1.0202,-1.0458,-1.0722,-1.1031,-1.1209,-1.1713,-1.1813,-1.2193,-1.2457,-1.2505,-1.259,0.5018,0.5018,0.5018,0.5018,0.5018,0.5018,0.5108,0.5224,0.5276,0.5317,0.5374,0.5447,0.5504,0.5561,0.5627,0.5684,0.5654,0.5565,0.4844,0.4036,0.269,-0.0,-0.0,-0.0,-0.0,-0.0,-0.0,-0.0449,-0.0538,-0.0897,-0.1077,-0.1077,-0.1256,-0.1346,-0.1436,-0.1436,-0.1436,-0.1436,-0.1436,-0.1436,-0.1436,-0.1525,-0.1615,-0.1705,-0.1885,-0.2064,-0.2064,-0.2064,-0.2155,-0.2155,-0.2155,-0.2244,-0.2244,-0.2244,-0.2244,-0.2244,-0.2244,-0.2244,-0.2244,-0.2154,-0.2155,-0.2155,-0.2064,-0.2244,-0.2424,-0.2515,-0.2604,-0.2604,-0.2784,-0.2875,-0.2875,-0.2785,-0.2875,-0.2875,-0.2875,-0.2875,-0.2875,-0.2875,-0.2875,-0.2875,-0.2964,-0.2964,-0.3054,-0.3232,-0.3321,-0.323,-0.3408,-0.3676,-0.4121,-0.4656,-0.6177,-0.7439,-0.7771,-0.8285,-0.917,-0.9975,-0.996,-0.9951,-0.9951,-1.0038,-1.0038,-1.0038,-1.0038,-1.0028,-1.0024,-1.0168,-1.0297,-1.0032,-1.0119,-1.0684,-1.1249,-1.1629,-1.1934,-1.2105,-1.2212,0.5018,0.5018,0.5018,0.5018,0.5018,0.5018,0.5026,0.5029,0.5135,0.5233,0.5314,0.5347,0.5407,0.5466,0.5542,0.5624,0.5687,0.5633,0.5654,0.5654,0.5034,0.3502,0.1345,-0.0,-0.0,-0.0,-0.0,-0.0,-0.0,-0.0448,-0.0628,-0.0,-0.0987,-0.1166,-0.1346,-0.1436,-0.1436,-0.1436,-0.1436,-0.1436,-0.1436,-0.1436,-0.1436,-0.1436,-0.1615,-0.1795,-0.1795,-0.1974,-0.2155,-0.2155,-0.2155,-0.2064,-0.2064,-0.2064,-0.2064,-0.2064,-0.1974,-0.1974,-0.1974,-0.1885,-0.1885,-0.1885,-0.1974,-0.1974,-0.2064,-0.2334,-0.2334,-0.2424,-0.2515,-0.2604,-0.2604,-0.2604,-0.2604,-0.2694,-0.2694,-0.2694,-0.2784,-0.2785,-0.2875,-0.2875,-0.2875,-0.2875,-0.2875,-0.3142,-0.3142,-0.2963,-0.2963,-0.323,-0.3676,-0.4121,-0.573,-0.762,-0.8396,-0.8632,-0.9257,-0.9878,-0.9956,-1.0038,-1.0038,-1.0038,-1.0038,-1.0038,-1.0038,-1.0033,-1.0019,-0.9823,-0.9838,-0.9512,-0.948,-1.0019,-1.0595,-1.0992,-1.1324,-1.149,-1.1849,0.5018,0.5018,0.5018,0.5018,0.5018,0.5018,0.5018,0.5021,0.5045,0.508,0.5116,0.5192,0.5249,0.5309,0.5461,0.5553,0.5594,0.5678,0.5727,0.5644,0.5654,0.4851,0.2777,-0.0,-0.0,-0.0,-0.0,-0.0,-0.0,-0.0,-0.0,-0.0,-0.0,-0.0718,-0.1256,-0.1256,-0.1346,-0.1346,-0.1436,-0.1436,-0.1436,-0.1436,-0.1436,-0.1436,-0.1525,-0.1525,-0.1525,-0.1525,-0.1615,-0.1615,-0.1615,-0.1615,-0.1615,-0.1615,-0.1615,-0.1615,-0.1705,-0.1705,-0.1615,-0.1615,-0.1615,-0.1615,-0.1615,-0.1525,-0.1705,-0.1974,-0.2155,-0.2244,-0.2244,-0.2244,-0.2334,-0.2334,-0.2424,-0.2425,-0.2515,-0.2604,-0.2604,-0.2784,-0.2875,-0.2875,-0.2875,-0.2875,-0.2875,-0.2875,-0.2875,-0.2875,-0.2875,-0.3053,-0.332,-0.3855,-0.5097,-0.6972,-0.8648,-0.9253,-0.9611,-0.9786,-0.9864,-0.9951,-0.9951,-0.9951,-1.0038,-1.0038,-1.0038,-1.0038,-1.0009,-0.98,-0.9531,-0.9128,-0.9234,-0.9606,-0.9874,-1.0263,-1.039,-1.0517,-1.1094,0.5018,0.5018,0.5018,0.5018,0.5018,0.5018,0.5018,0.5018,0.5018,0.5018,0.5023,0.5086,0.5137,0.5175,0.5336,0.5442,0.5483,0.551,0.5542,0.5569,0.5625,0.5382,0.4034,0.2957,-0.0,-0.0,-0.0,-0.0,-0.0,-0.0,-0.0,-0.0,-0.0,-0.0,-0.0,-0.0987,-0.1166,-0.1346,-0.1346,-0.1346,-0.1346,-0.1436,-0.1436,-0.1436,-0.1436,-0.1436,-0.1436,-0.1436,-0.1436,-0.1436,-0.1436,-0.1436,-0.1436,-0.1436,-0.1436,-0.1436,-0.1436,-0.1436,-0.1436,-0.1436,-0.1436,-0.1436,-0.1436,-0.1436,-0.1436,-0.1705,-0.1705,-0.1795,-0.1795,-0.1795,-0.1885,-0.1974,-0.2155,-0.2244,-0.2334,-0.2424,-0.2515,-0.2784,-0.2875,-0.2875,-0.2875,-0.2875,-0.2875,-0.2875,-0.2875,-0.2875,-0.2875,-0.2875,-0.3142,-0.3676,-0.4919,-0.616,-0.7929,-0.9078,-0.9437,-0.9611,-0.9781,-0.9864,-0.9951,-0.9951,-0.9951,-1.0038,-1.0038,-1.0033,-0.9976,-0.9762,-0.9498,-0.9034,-0.8869,-0.912,-0.9354,-0.9555,-0.9606,-0.9771,-1.033,0.5015,0.5018,0.5018,0.5018,0.5018,0.5018,0.5018,0.5018,0.5015,0.5015,0.5093,0.5098,0.5159,0.5135,0.5189,0.5265,0.5358,0.5472,0.5518,0.5505,0.5579,0.5437,0.5555,0.5297,0.4216,0.2689,-0.0,-0.0,-0.0,-0.0,-0.0,-0.0,-0.0,-0.0,-0.0,-0.0448,-0.0807,-0.1166,-0.1346,-0.1346,-0.1346,-0.1436,-0.1436,-0.1436,-0.1436,-0.1436,-0.1436,-0.1436,-0.1436,-0.1436,-0.1436,-0.1436,-0.1436,-0.1436,-0.1436,-0.1436,-0.1436,-0.1436,-0.1436,-0.1436,-0.1436,-0.1436,-0.1436,-0.1436,-0.1436,-0.1436,-0.1436,-0.1436,-0.1436,-0.1436,-0.1615,-0.1705,-0.1885,-0.1974,-0.2064,-0.2244,-0.2424,-0.2694,-0.2785,-0.2875,-0.2875,-0.2875,-0.2875,-0.2875,-0.2875,-0.2875,-0.2875,-0.2875,-0.3142,-0.3855,-0.4741,-0.5808,-0.7048,-0.8109,-0.8995,-0.9437,-0.9607,-0.9689,-0.9777,-0.9864,-0.9956,-1.0038,-1.0033,-1.0024,-0.9861,-0.9705,-0.9424,-0.9091,-0.8969,-0.8793,-0.8928,-0.9158,-0.9209,-0.9392,-0.962,0.5168,0.5018,0.5018,0.5018,0.5018,0.5018,0.5018,0.5015,0.5171,0.5243,0.5246,0.5404,0.5349,0.5056,0.5151,0.5211,0.5311,0.5427,0.5466,0.5556,0.5589,0.5651,0.562,0.5644,0.5479,0.4129,0.2152,-0.0,-0.0,-0.0,-0.0,-0.0,-0.0,-0.0,-0.0,-0.0,-0.0538,-0.0897,-0.1077,-0.1076,-0.1346,-0.1346,-0.1436,-0.1436,-0.1436,-0.1436,-0.1436,-0.1436,-0.1436,-0.1436,-0.1436,-0.1436,-0.1436,-0.1436,-0.1436,-0.1436,-0.1436,-0.1436,-0.1436,-0.1436,-0.1436,-0.1436,-0.1436,-0.1436,-0.1436,-0.1436,-0.1436,-0.1436,-0.1436,-0.1436,-0.1525,-0.1525,-0.1615,-0.1615,-0.1705,-0.1974,-0.2244,-0.2515,-0.2694,-0.2694,-0.2785,-0.2785,-0.2875,-0.2875,-0.2875,-0.2875,-0.2875,-0.2875,-0.2963,-0.3764,-0.4565,-0.5542,-0.652,-0.7672,-0.8736,-0.9174,-0.9349,-0.9515,-0.9689,-0.9777,-0.9864,-0.9951,-1.0033,-1.0028,-0.979,-0.9531,-0.9243,-0.9062,-0.8913,-0.8784,-0.8737,-0.8789,-0.8856,-0.9008,-0.9311]},{"header":{"parameterUnit":"m.s-1","parameterCategory":1,"la1":31.0,"la2":29.5877,"lo1":-88.7671,"lo2":-86.6584,"dy":0.0162,"dx":0.0185,"nx":115,"ny":88,"refTime":"2023-06-26T18:00:00:Z","depth":0,"parameterNumber":3,"parameterNumberName":"V-component_of_WINDS"},"data":[0.0,0.0,0.0,0.0,0.0,0.0,0.0,0.0,0.0,0.0,0.0,0.0,0.0,0.0,0.0,0.0,0.0,0.0,0.0,0.0,0.0,0.0,0.0,0.0,0.0,0.0,0.0,0.0,0.0,0.0,0.0,0.0,0.0,0.0,0.0,0.0,0.0,0.0,0.0,0.0,0.0,0.0,0.0,0.0,0.0,0.0,0.0,0.0,0.0,0.0,0.0,0.0,0.0,0.0,0.0,0.0,0.0,0.0,0.0,0.0,0.0,0.0,0.0,0.0,0.0,0.0,0.0,0.0,0.0,0.0,0.0,0.0,0.0,0.0,0.0,0.0,0.0,0.0,0.0,0.0,0.0,0.0,0.0,0.0,0.0,0.0,0.0,0.0,0.0,0.0,0.0,0.0,0.0,0.0,0.0,0.0,0.0,0.0,0.0,0.0,0.0,0.0,0.0,0.0,0.0,0.0,0.0,0.0,0.0,0.0,0.0,0.0,0.0,0.0,0.0,0.0,0.0,0.0,0.0,0.0,0.0,0.0,0.0,0.0,0.0,0.0,0.0,0.0,0.0,0.0,0.0,0.0,0.0,0.0,0.0,0.0,0.0,0.0,0.0,0.0,0.0,0.0,0.0,0.0,0.0,0.0,0.0,0.0,0.0,0.0,0.0,0.0,0.0,0.0,0.0,0.0,0.0,0.0,0.0,0.0,0.0,0.0,0.0,0.0,0.0,0.0,0.0,0.0,0.0,0.0,0.0,0.0,0.0,0.0,0.0,0.0,0.0,0.0,0.0,0.0,0.0,0.0,0.0,0.0,0.0,0.0,0.0,0.0,0.0,0.0,0.0,0.0,0.0,0.0,0.0,0.0,0.0,0.0,0.0,0.0,0.0,0.0,0.0,0.0,0.0,0.0,0.0,0.0,0.0,0.0,0.0,0.0,0.0,0.0,0.0,0.0,0.0,0.0,0.0,0.0,0.0,0.0,0.0,0.0,0.0,0.0,0.0,0.0,0.0,0.0,0.0,0.0,0.0,0.0,0.0,0.0,0.0,0.0,0.0,0.0,0.0,0.0,0.0,0.0,0.0,0.0,0.0,0.0,0.0,0.0,0.0,0.0,0.0,0.0,0.0,0.0,0.0,0.0,0.0,0.0,0.0,0.0,0.0,0.0,0.0,0.0,0.0,0.0,0.0,0.0,0.0,0.0,0.0,0.0,0.0,0.0,0.0,0.0,0.0,0.0,0.0,0.0,0.0,0.0,0.0,0.0,0.0,0.0,0.0,0.0,0.0,0.0,0.0,0.0,0.0,0.0,0.0,0.0,0.0,0.0,0.0,0.0,0.0,0.0,0.0,0.0,0.0,0.0,0.0,0.0,0.0,0.0,0.0,0.0,0.0,0.0,0.0,0.0,0.0,0.0,0.0,0.0,0.0,0.0,0.0,0.0,0.0,0.0,0.0,0.0,0.0,0.0,0.0,0.0,0.0,0.0,0.0,0.0,0.0,0.0,0.0,0.0,0.0,0.0,0.0,0.0,0.0,0.0,0.0,0.0,0.0,0.0,0.0,0.0,0.0,0.0,0.0,0.0,0.0,0.0,0.0,0.0,0.0,0.0,0.0,0.0,0.0,0.0,0.0,0.0,0.0,0.0,0.0,0.0,0.0,0.0,0.0,0.0,0.0,0.0,0.0,0.0,0.0,0.0,0.0,0.0,0.0,0.0,0.0,0.0,0.0,0.0,0.0,0.0,0.0,0.0,0.0,0.0,0.0,0.0,0.0,0.0,0.0,0.0,0.0,0.0,0.0,0.0,0.0,0.0,0.0,0.0,0.0,0.0,0.0,0.0,0.0,0.0,0.0,0.0,0.0,0.0,0.0,0.0,0.0,0.0,0.0,0.0,0.0,0.0,0.0,0.0,0.0,0.0,0.0,0.0,0.0,0.0,0.0,0.0,0.0,0.0,0.0,0.0,0.0,0.0,0.0,0.0,0.0,0.0,0.0,0.0,0.0,0.0,0.0,0.0,0.0,0.0,0.0,0.0,0.0,0.0,0.0,0.0,0.0,0.0,0.0,0.0,0.0,0.0,0.0,0.0,0.0,0.0,0.0,0.0,0.0,0.0,0.0,0.0,0.0,0.0,0.0,0.0,0.0,0.0,0.0,0.0,0.0,0.0,0.0,0.0,0.0,0.0,0.0,0.0,0.0,0.0,0.0,0.0,0.0,0.0,0.0,0.0,0.0,0.0,0.0,0.0,0.0,0.0,0.0,0.0,0.0,0.0,0.0,0.0,0.0,0.0,0.0,0.0,0.0,0.0,0.0,0.0,0.0,0.0,0.0,0.0,0.0,0.0,0.0,0.0,0.0,0.0,0.0,0.0,0.0,0.0,0.0,0.0,0.0,0.0,0.0,0.0,0.0,0.0,0.0,0.0,0.0,0.0,0.0,0.0,0.0,0.0,0.0,0.0,0.0,0.0,0.0,0.0,0.0,0.0,0.0,0.0,0.0,0.0,0.0,0.0,0.0,0.0,0.0,0.0,0.0,0.0,0.0,0.0,0.0,0.0,0.0,0.0,0.0,0.0,0.0,0.0,0.0,0.0,0.0,0.0,0.0,0.0,0.0,0.0,0.0,0.0,0.0,0.0,0.0,0.0,0.0,0.0,0.0,0.0,0.0,0.0,0.0,0.0,0.0,0.0,0.0,0.0,0.0,0.0,0.0,0.0,0.0,0.0,0.0,0.0,0.0,0.0,0.0,0.0,0.0,0.0,0.0,0.0,0.0,0.0,0.0,0.0,0.0,0.0,0.0,0.0,0.0,0.0,0.0,0.0,0.0,0.0,0.0,0.0,0.0,0.0,0.0,0.0,0.0,0.0,0.0,0.0,0.0,0.0,0.0,0.0,0.0,0.0,0.0,0.0,0.0,0.0,0.0,0.0,0.0,0.0,0.0,0.0,0.0,0.0,0.0,0.0,0.0,0.0,0.0,0.0,0.0,0.0,0.0,0.0,0.0,0.0,0.0,0.0,0.0,0.0,0.0,0.0,0.0,0.0,0.0,0.0,0.0,0.0,0.0,0.0,0.0,0.0,0.0,0.0,0.0,0.0,0.0,0.0,0.0,0.0,0.0,0.0,0.0,0.0,0.0,0.0,0.0,0.0,0.0,0.0,0.0,0.0,0.0,0.0,0.0,0.0,0.0,0.0,0.0,0.0,0.0,0.0,0.0,0.0,0.0,0.0,0.0,0.0,0.0,0.0,0.0,0.0,0.0,0.0,0.0,0.0,0.0,0.0,0.0,0.0,0.0,0.0,0.0,0.0,0.0,0.0,0.0,0.0,0.0,0.0,0.0,0.0,0.0,0.0,0.0,0.0,0.0,0.0,0.0,0.0,0.0,0.0,0.0,0.0,0.0,0.0,0.0,0.0,0.0,0.0,0.0,0.0,0.0,0.0,0.0,0.0,0.0,0.0,0.0,0.0,0.0,0.0,0.0,0.0,0.0,0.0,0.0,0.0,0.0,0.0,0.0,0.0,0.0,0.0,0.0,0.0,0.0,0.0,0.0,0.0,0.0,0.0,0.0,0.0,0.0,0.0,0.0,0.0,0.0,0.0,0.0,0.0,0.0,0.0,0.0,0.0,0.0,0.0,0.0,0.0,0.0,0.0,0.0,0.0,0.0,0.0,0.0,0.0,0.0,0.0,0.0,0.0,0.0,0.0,0.0,0.0,0.0,0.0,0.0,0.0,0.0,0.0,0.0,0.0,0.0,0.0,0.0,0.0,0.0,0.0,0.0,0.0,0.0,0.0,0.0,0.0,0.0,0.0,0.0,0.0,0.0,0.0,0.0,0.0,0.0,0.0,0.0,0.0,0.0,0.0,0.0,0.0,0.0,0.0,0.0,0.0,0.0,0.0,0.0,0.0,0.0,0.0,0.0,0.0,0.0,0.0,0.0,0.0,0.0,0.0,0.0,0.0,0.0,0.0,0.0,0.0,0.0,0.0,0.0,0.0,0.0,0.0,0.0,0.0,0.0,0.0,0.0,0.0,0.0,0.0,0.0,0.0,0.0,0.0,0.0,0.0,0.0,0.0,0.0,0.0,0.0,0.0,0.0,0.0,0.0,0.0,0.0,0.0,0.0,0.0,0.0,0.0,0.0,0.0,0.0,0.0,0.0,0.0,0.0,0.0,0.0,0.0,0.0,0.0,0.0,0.0,0.0,0.0,0.0,0.0,0.0,0.0,0.0,0.0,0.0,0.0,0.0,0.0,0.0,0.0,0.0,0.0,-3.0734,0.0,0.0,0.0,0.0,0.0,0.0,0.0,0.0,0.0,0.0,0.0,0.0,0.0,0.0,0.0,0.0,0.0,0.0,0.0,0.0,0.0,0.0,0.0,0.0,0.0,0.0,0.0,0.0,0.0,0.0,0.0,0.0,0.0,0.0,0.0,0.0,0.0,0.0,0.0,0.0,0.0,0.0,0.0,0.0,0.0,0.0,0.0,0.0,0.0,0.0,0.0,0.0,0.0,0.0,0.0,0.0,0.0,0.0,0.0,0.0,0.0,0.0,0.0,0.0,0.0,0.0,0.0,0.0,0.0,0.0,0.0,0.0,0.0,0.0,0.0,0.0,0.0,0.0,0.0,0.0,0.0,0.0,0.0,0.0,0.0,0.0,0.0,0.0,0.0,0.0,0.0,0.0,0.0,0.0,0.0,0.0,0.0,0.0,0.0,0.0,0.0,0.0,0.0,0.0,0.0,0.0,0.0,0.0,0.0,0.0,-3.0377,-3.0808,-3.0354,-3.009,-3.0071,0.0,0.0,0.0,0.0,0.0,0.0,0.0,0.0,0.0,0.0,0.0,0.0,0.0,0.0,0.0,0.0,0.0,0.0,0.0,0.0,0.0,0.0,0.0,0.0,0.0,0.0,0.0,0.0,0.0,0.0,0.0,0.0,0.0,0.0,0.0,0.0,0.0,0.0,0.0,0.0,0.0,0.0,0.0,0.0,0.0,0.0,0.0,0.0,0.0,0.0,0.0,0.0,0.0,0.0,0.0,0.0,0.0,0.0,0.0,0.0,0.0,0.0,0.0,0.0,0.0,0.0,0.0,0.0,0.0,0.0,0.0,0.0,0.0,0.0,0.0,0.0,0.0,0.0,0.0,0.0,0.0,0.0,0.0,0.0,0.0,0.0,0.0,0.0,0.0,0.0,0.0,0.0,0.0,0.0,0.0,0.0,0.0,0.0,0.0,0.0,0.0,0.0,0.0,0.0,0.0,0.0,0.0,0.0,0.0,0.0,0.0,0.0,-3.0002,-2.9551,-2.9405,0.0,0.0,0.0,0.0,0.0,0.0,0.0,0.0,0.0,0.0,0.0,0.0,0.0,0.0,0.0,0.0,0.0,0.0,0.0,0.0,0.0,0.0,0.0,0.0,0.0,0.0,0.0,0.0,0.0,0.0,0.0,0.0,0.0,0.0,0.0,0.0,0.0,0.0,0.0,0.0,0.0,0.0,0.0,0.0,0.0,0.0,0.0,0.0,0.0,0.0,0.0,0.0,0.0,0.0,0.0,0.0,0.0,0.0,0.0,0.0,0.0,0.0,0.0,0.0,0.0,0.0,0.0,0.0,0.0,0.0,0.0,0.0,0.0,0.0,0.0,0.0,0.0,0.0,0.0,0.0,0.0,0.0,0.0,0.0,0.0,0.0,0.0,0.0,0.0,0.0,0.0,0.0,0.0,0.0,0.0,0.0,0.0,0.0,0.0,0.0,0.0,0.0,0.0,0.0,0.0,0.0,0.0,0.0,0.0,0.0,-3.0413,-3.0424,-3.035,0.0,-2.9416,0.0,0.0,0.0,0.0,0.0,0.0,0.0,0.0,0.0,0.0,0.0,0.0,0.0,0.0,0.0,0.0,0.0,0.0,0.0,0.0,0.0,0.0,0.0,0.0,0.0,0.0,0.0,0.0,0.0,0.0,0.0,0.0,0.0,0.0,0.0,0.0,0.0,0.0,0.0,0.0,0.0,0.0,0.0,0.0,0.0,0.0,0.0,0.0,0.0,0.0,0.0,0.0,0.0,0.0,0.0,0.0,0.0,0.0,0.0,0.0,0.0,0.0,0.0,0.0,0.0,0.0,0.0,0.0,0.0,0.0,0.0,0.0,0.0,0.0,0.0,0.0,0.0,0.0,0.0,0.0,0.0,0.0,0.0,0.0,0.0,0.0,0.0,0.0,0.0,0.0,0.0,0.0,0.0,0.0,0.0,0.0,0.0,0.0,0.0,0.0,0.0,0.0,0.0,0.0,0.0,0.0,0.0,0.0,0.0,0.0,-2.9654,-2.9632,-2.9677,-2.9573,0.0,0.0,0.0,0.0,0.0,0.0,0.0,0.0,0.0,0.0,0.0,0.0,0.0,0.0,0.0,0.0,0.0,0.0,0.0,0.0,0.0,0.0,0.0,0.0,0.0,0.0,0.0,0.0,0.0,0.0,0.0,0.0,0.0,0.0,0.0,0.0,0.0,0.0,0.0,0.0,0.0,0.0,0.0,0.0,0.0,0.0,0.0,0.0,0.0,0.0,0.0,0.0,0.0,0.0,0.0,0.0,0.0,0.0,0.0,0.0,0.0,0.0,0.0,0.0,0.0,0.0,0.0,0.0,0.0,0.0,0.0,0.0,0.0,0.0,0.0,0.0,0.0,0.0,0.0,0.0,0.0,0.0,0.0,0.0,0.0,0.0,0.0,0.0,0.0,0.0,0.0,0.0,0.0,0.0,0.0,0.0,0.0,0.0,0.0,0.0,0.0,0.0,0.0,0.0,0.0,0.0,0.0,0.0,0.0,0.0,-2.9067,-2.8892,-2.8797,-2.885,-2.8938,-2.9003,0.0,0.0,0.0,0.0,0.0,0.0,0.0,0.0,0.0,0.0,0.0,0.0,0.0,0.0,0.0,0.0,0.0,0.0,0.0,0.0,0.0,0.0,0.0,0.0,0.0,0.0,0.0,0.0,0.0,0.0,0.0,0.0,0.0,0.0,0.0,0.0,0.0,0.0,0.0,0.0,0.0,0.0,0.0,0.0,0.0,0.0,0.0,0.0,0.0,0.0,0.0,0.0,0.0,0.0,0.0,0.0,0.0,0.0,0.0,0.0,0.0,0.0,0.0,0.0,0.0,0.0,0.0,0.0,0.0,0.0,0.0,0.0,0.0,0.0,0.0,0.0,0.0,0.0,0.0,0.0,0.0,0.0,0.0,0.0,0.0,0.0,0.0,0.0,0.0,0.0,0.0,0.0,0.0,0.0,0.0,0.0,0.0,0.0,0.0,0.0,0.0,0.0,0.0,0.0,0.0,0.0,0.0,0.0,-2.9089,-2.8737,-2.8376,-2.8065,-2.8102,-2.8183,0.0,0.0,0.0,0.0,0.0,0.0,0.0,0.0,0.0,0.0,0.0,0.0,0.0,0.0,0.0,0.0,0.0,0.0,0.0,0.0,0.0,0.0,0.0,0.0,0.0,0.0,0.0,0.0,0.0,0.0,0.0,0.0,0.0,0.0,0.0,0.0,0.0,0.0,0.0,0.0,0.0,0.0,0.0,0.0,0.0,0.0,0.0,0.0,0.0,0.0,0.0,0.0,0.0,0.0,0.0,0.0,0.0,0.0,0.0,0.0,0.0,0.0,0.0,0.0,0.0,0.0,0.0,0.0,0.0,0.0,0.0,0.0,0.0,0.0,0.0,0.0,0.0,0.0,0.0,0.0,0.0,0.0,0.0,0.0,0.0,0.0,0.0,0.0,0.0,0.0,0.0,0.0,0.0,0.0,0.0,0.0,0.0,0.0,0.0,0.0,0.0,0.0,0.0,0.0,0.0,0.0,0.0,0.0,0.0,-2.8658,-2.8246,-2.7992,-2.7897,-2.7982,-2.8156,0.0,0.0,0.0,0.0,0.0,0.0,0.0,0.0,0.0,0.0,0.0,0.0,0.0,0.0,0.0,0.0,0.0,0.0,0.0,0.0,0.0,0.0,0.0,0.0,0.0,0.0,0.0,0.0,0.0,0.0,0.0,0.0,0.0,0.0,0.0,0.0,0.0,0.0,0.0,0.0,0.0,0.0,0.0,0.0,0.0,0.0,0.0,0.0,0.0,0.0,0.0,0.0,0.0,0.0,0.0,0.0,0.0,0.0,0.0,0.0,0.0,0.0,0.0,0.0,0.0,0.0,0.0,0.0,0.0,0.0,0.0,0.0,0.0,0.0,0.0,0.0,0.0,0.0,0.0,0.0,0.0,0.0,0.0,0.0,0.0,0.0,0.0,0.0,0.0,0.0,0.0,0.0,0.0,0.0,0.0,0.0,0.0,0.0,0.0,0.0,0.0,0.0,0.0,0.0,0.0,0.0,0.0,0.0,0.0,-2.8219,0.0,-2.7683,-2.7535,-2.7695,-2.7964,0.0,0.0,0.0,0.0,0.0,0.0,0.0,0.0,0.0,0.0,0.0,0.0,0.0,0.0,0.0,0.0,0.0,0.0,0.0,0.0,0.0,0.0,0.0,0.0,0.0,0.0,0.0,0.0,0.0,0.0,0.0,0.0,0.0,0.0,0.0,0.0,0.0,0.0,0.0,0.0,0.0,0.0,0.0,0.0,0.0,0.0,0.0,0.0,0.0,0.0,0.0,0.0,0.0,0.0,0.0,0.0,0.0,0.0,0.0,0.0,0.0,0.0,0.0,0.0,0.0,0.0,0.0,0.0,0.0,0.0,0.0,0.0,0.0,0.0,0.0,0.0,0.0,0.0,0.0,0.0,0.0,0.0,0.0,0.0,0.0,0.0,0.0,0.0,0.0,0.0,0.0,0.0,0.0,0.0,0.0,0.0,0.0,0.0,0.0,0.0,0.0,0.0,0.0,0.0,0.0,0.0,0.0,0.0,-2.8533,-2.784,-2.7742,-2.7478,-2.6959,-2.7258,-2.7487,0.0,0.0,0.0,0.0,0.0,0.0,0.0,0.0,0.0,0.0,0.0,0.0,0.0,0.0,0.0,0.0,0.0,0.0,0.0,0.0,0.0,0.0,0.0,0.0,0.0,0.0,0.0,0.0,0.0,0.0,0.0,0.0,0.0,0.0,0.0,0.0,0.0,0.0,0.0,0.0,0.0,0.0,0.0,0.0,0.0,0.0,0.0,0.0,0.0,0.0,0.0,0.0,0.0,0.0,0.0,0.0,0.0,0.0,0.0,0.0,0.0,0.0,0.0,0.0,0.0,0.0,0.0,0.0,0.0,0.0,0.0,0.0,0.0,0.0,0.0,0.0,0.0,0.0,0.0,0.0,0.0,0.0,0.0,0.0,0.0,0.0,0.0,0.0,0.0,0.0,0.0,0.0,0.0,0.0,0.0,0.0,0.0,0.0,0.0,0.0,0.0,0.0,0.0,0.0,0.0,0.0,0.0,0.0,0.0,-2.7742,-2.7491,-2.7276,-2.7135,-2.7258,-2.7572,0.0,0.0,0.0,0.0,0.0,0.0,0.0,0.0,0.0,0.0,0.0,0.0,0.0,0.0,0.0,0.0,0.0,0.0,0.0,0.0,0.0,0.0,0.0,0.0,0.0,0.0,0.0,0.0,0.0,0.0,0.0,0.0,0.0,0.0,0.0,0.0,0.0,0.0,0.0,0.0,0.0,0.0,0.0,0.0,0.0,0.0,0.0,0.0,0.0,0.0,0.0,0.0,0.0,0.0,0.0,0.0,0.0,0.0,0.0,0.0,0.0,0.0,0.0,0.0,0.0,0.0,0.0,0.0,0.0,0.0,0.0,0.0,0.0,0.0,0.0,0.0,0.0,0.0,0.0,0.0,0.0,0.0,0.0,0.0,0.0,0.0,0.0,0.0,0.0,0.0,0.0,0.0,0.0,0.0,0.0,0.0,0.0,0.0,0.0,0.0,0.0,0.0,0.0,0.0,0.0,0.0,0.0,0.0,0.0,-2.7829,-2.7577,-2.7444,-2.7352,-2.7517,-2.7776,-2.8192,0.0,0.0,0.0,0.0,0.0,0.0,0.0,0.0,0.0,0.0,0.0,0.0,0.0,0.0,0.0,0.0,0.0,0.0,0.0,0.0,0.0,0.0,0.0,0.0,0.0,0.0,0.0,0.0,0.0,0.0,0.0,0.0,0.0,0.0,0.0,0.0,0.0,0.0,0.0,0.0,0.0,0.0,0.0,0.0,0.0,0.0,0.0,0.0,0.0,0.0,0.0,0.0,0.0,0.0,0.0,0.0,0.0,0.0,0.0,0.0,0.0,0.0,0.0,0.0,0.0,0.0,0.0,0.0,0.0,0.0,0.0,0.0,0.0,0.0,0.0,0.0,0.0,0.0,0.0,0.0,0.0,0.0,0.0,0.0,0.0,0.0,0.0,0.0,0.0,0.0,0.0,0.0,0.0,0.0,0.0,0.0,0.0,0.0,0.0,0.0,0.0,0.0,0.0,0.0,0.0,0.0,0.0,0.0,-2.7982,-2.801,-2.7886,-2.7642,-2.7926,-2.8065,0.0,0.0,0.0,0.0,0.0,0.0,0.0,0.0,0.0,0.0,0.0,0.0,0.0,0.0,0.0,0.0,0.0,0.0,0.0,0.0,0.0,0.0,0.0,0.0,0.0,0.0,0.0,0.0,0.0,0.0,0.0,0.0,0.0,0.0,0.0,0.0,0.0,0.0,0.0,0.0,0.0,0.0,0.0,0.0,0.0,0.0,0.0,0.0,0.0,0.0,0.0,0.0,0.0,0.0,0.0,0.0,0.0,0.0,0.0,0.0,0.0,0.0,0.0,0.0,0.0,0.0,0.0,0.0,0.0,0.0,0.0,0.0,0.0,0.0,0.0,0.0,0.0,0.0,0.0,0.0,0.0,0.0,0.0,0.0,0.0,0.0,0.0,0.0,0.0,0.0,0.0,0.0,0.0,0.0,0.0,0.0,0.0,0.0,0.0,0.0,0.0,0.0,0.0,0.0,0.0,0.0,0.0,0.0,0.0,-2.7886,-2.8119,-2.8128,-2.7915,-2.7982,-2.8093,0.0,0.0,0.0,0.0,0.0,0.0,0.0,0.0,0.0,0.0,0.0,0.0,0.0,0.0,0.0,0.0,0.0,0.0,0.0,0.0,0.0,0.0,0.0,0.0,0.0,0.0,0.0,0.0,0.0,0.0,0.0,0.0,0.0,0.0,0.0,0.0,0.0,0.0,0.0,0.0,0.0,0.0,0.0,0.0,0.0,0.0,0.0,0.0,0.0,0.0,0.0,0.0,0.0,0.0,0.0,0.0,0.0,0.0,0.0,0.0,0.0,0.0,0.0,0.0,0.0,0.0,0.0,0.0,0.0,0.0,0.0,0.0,0.0,0.0,0.0,0.0,0.0,0.0,0.0,0.0,0.0,0.0,0.0,0.0,0.0,0.0,0.0,0.0,0.0,0.0,0.0,0.0,0.0,0.0,0.0,0.0,0.0,0.0,0.0,0.0,0.0,0.0,0.0,0.0,0.0,0.0,0.0,0.0,-2.8017,-2.7595,-2.776,-2.7876,-2.7915,-2.7735,-2.778,0.0,0.0,0.0,0.0,0.0,0.0,0.0,0.0,0.0,0.0,0.0,0.0,0.0,0.0,0.0,0.0,0.0,0.0,0.0,0.0,0.0,0.0,0.0,0.0,0.0,0.0,0.0,0.0,0.0,0.0,0.0,0.0,0.0,0.0,0.0,0.0,0.0,0.0,0.0,0.0,0.0,0.0,0.0,0.0,0.0,0.0,0.0,0.0,0.0,0.0,0.0,0.0,0.0,0.0,0.0,0.0,0.0,0.0,0.0,0.0,0.0,0.0,0.0,0.0,0.0,0.0,0.0,0.0,0.0,0.0,0.0,0.0,0.0,0.0,0.0,0.0,0.0,0.0,0.0,0.0,0.0,0.0,0.0,0.0,0.0,0.0,0.0,0.0,0.0,0.0,0.0,0.0,0.0,0.0,0.0,0.0,0.0,0.0,0.0,0.0,0.0,0.0,0.0,0.0,0.0,0.0,0.0,0.0,-2.7595,-2.7241,-2.7195,-2.7321,-2.7654,-2.7308,-2.7263,0.0,0.0,0.0,0.0,0.0,0.0,0.0,0.0,0.0,0.0,0.0,0.0,0.0,0.0,0.0,0.0,0.0,0.0,0.0,0.0,0.0,0.0,0.0,0.0,0.0,0.0,0.0,0.0,0.0,0.0,0.0,0.0,0.0,0.0,0.0,0.0,0.0,0.0,0.0,0.0,0.0,0.0,0.0,0.0,0.0,0.0,0.0,0.0,0.0,0.0,0.0,0.0,0.0,0.0,0.0,0.0,0.0,0.0,0.0,0.0,0.0,0.0,0.0,0.0,0.0,0.0,0.0,0.0,0.0,0.0,0.0,0.0,0.0,0.0,0.0,0.0,0.0,0.0,0.0,0.0,0.0,0.0,0.0,0.0,0.0,0.0,0.0,0.0,0.0,0.0,0.0,0.0,0.0,0.0,0.0,0.0,0.0,0.0,0.0,0.0,0.0,0.0,0.0,0.0,0.0,0.0,0.0,0.0,-2.721,-2.6841,-2.7085,-2.707,-2.6792,-2.6796,-2.7073,0.0,0.0,0.0,0.0,0.0,0.0,0.0,0.0,0.0,0.0,0.0,0.0,0.0,0.0,0.0,0.0,0.0,0.0,0.0,0.0,0.0,0.0,0.0,0.0,0.0,0.0,0.0,0.0,0.0,0.0,0.0,0.0,0.0,0.0,0.0,0.0,0.0,0.0,0.0,0.0,0.0,0.0,0.0,0.0,0.0,0.0,0.0,0.0,-1.7577,0.0,0.0,0.0,0.0,0.0,0.0,0.0,0.0,0.0,0.0,0.0,0.0,0.0,0.0,0.0,0.0,0.0,0.0,0.0,0.0,0.0,0.0,0.0,0.0,0.0,0.0,0.0,0.0,0.0,0.0,0.0,0.0,0.0,0.0,0.0,0.0,0.0,0.0,0.0,0.0,0.0,0.0,0.0,0.0,0.0,0.0,0.0,0.0,0.0,0.0,0.0,0.0,0.0,0.0,0.0,0.0,0.0,0.0,0.0,-2.6841,-2.6486,-2.6607,-2.6708,-2.6624,-2.6375,-2.6566,0.0,0.0,0.0,0.0,0.0,0.0,0.0,0.0,0.0,0.0,0.0,0.0,0.0,0.0,0.0,0.0,0.0,0.0,0.0,0.0,0.0,0.0,0.0,0.0,0.0,0.0,0.0,0.0,0.0,0.0,0.0,0.0,0.0,0.0,0.0,0.0,0.0,0.0,0.0,0.0,0.0,0.0,0.0,0.0,0.0,0.0,0.0,0.0,0.0,0.0,0.0,0.0,0.0,0.0,0.0,0.0,0.0,0.0,0.0,0.0,0.0,0.0,0.0,0.0,0.0,0.0,0.0,0.0,0.0,0.0,0.0,0.0,0.0,0.0,0.0,0.0,0.0,0.0,0.0,0.0,0.0,0.0,0.0,0.0,0.0,0.0,0.0,0.0,0.0,0.0,0.0,0.0,0.0,0.0,0.0,0.0,0.0,0.0,0.0,0.0,0.0,0.0,0.0,0.0,0.0,0.0,0.0,-2.6607,-2.6486,-2.6203,-2.6203,-2.6364,-2.6708,-2.6027,-2.6027,-2.6825,0.0,0.0,0.0,0.0,0.0,0.0,0.0,0.0,0.0,0.0,0.0,0.0,0.0,0.0,0.0,0.0,0.0,0.0,0.0,0.0,0.0,0.0,0.0,0.0,0.0,0.0,0.0,0.0,0.0,0.0,0.0,0.0,0.0,0.0,0.0,0.0,0.0,0.0,-2.0114,-1.9235,0.0,0.0,0.0,0.0,0.0,0.0,0.0,0.0,-1.9065,0.0,0.0,0.0,0.0,0.0,0.0,0.0,0.0,0.0,0.0,0.0,0.0,0.0,0.0,0.0,0.0,0.0,0.0,0.0,0.0,0.0,0.0,0.0,0.0,0.0,0.0,0.0,0.0,0.0,0.0,0.0,0.0,0.0,0.0,0.0,0.0,0.0,0.0,0.0,0.0,0.0,0.0,0.0,0.0,0.0,0.0,0.0,0.0,0.0,0.0,0.0,0.0,0.0,0.0,0.0,0.0,-2.5395,-2.5994,-2.6239,-2.6203,-2.6203,-2.631,-2.6521,-2.5799,-2.5815,-2.6657,0.0,0.0,0.0,0.0,0.0,0.0,0.0,0.0,0.0,0.0,0.0,0.0,0.0,0.0,0.0,0.0,0.0,0.0,0.0,0.0,0.0,0.0,0.0,0.0,0.0,0.0,0.0,0.0,0.0,0.0,0.0,0.0,0.0,0.0,0.0,0.0,0.0,0.0,0.0,-1.9767,-1.9092,0.0,0.0,0.0,0.0,0.0,0.0,0.0,0.0,-2.1635,0.0,0.0,0.0,0.0,0.0,0.0,0.0,0.0,0.0,0.0,0.0,0.0,0.0,0.0,0.0,0.0,0.0,0.0,0.0,0.0,0.0,0.0,0.0,0.0,0.0,0.0,0.0,0.0,0.0,0.0,0.0,0.0,0.0,0.0,0.0,0.0,0.0,0.0,0.0,0.0,0.0,0.0,0.0,0.0,0.0,0.0,0.0,0.0,0.0,0.0,0.0,0.0,0.0,0.0,0.0,-2.516,-2.5839,-2.6203,-2.6203,-2.6203,-2.6274,-2.6485,-2.6133,-2.6,0.0,0.0,0.0,0.0,0.0,0.0,0.0,0.0,0.0,0.0,0.0,0.0,0.0,0.0,0.0,0.0,0.0,0.0,0.0,0.0,0.0,0.0,0.0,0.0,0.0,0.0,0.0,0.0,0.0,0.0,0.0,0.0,0.0,0.0,0.0,0.0,0.0,0.0,0.0,0.0,-2.0864,-2.0808,-2.1648,0.0,0.0,0.0,0.0,0.0,0.0,-2.2505,-2.252,0.0,0.0,0.0,0.0,0.0,0.0,0.0,0.0,0.0,0.0,0.0,0.0,0.0,0.0,0.0,0.0,0.0,0.0,0.0,0.0,0.0,0.0,0.0,0.0,0.0,0.0,0.0,0.0,0.0,0.0,0.0,0.0,0.0,0.0,0.0,0.0,0.0,0.0,0.0,0.0,0.0,0.0,0.0,0.0,0.0,0.0,0.0,0.0,0.0,0.0,0.0,0.0,0.0,0.0,0.0,-2.4945,-2.5756,-2.6203,-2.6203,-2.6203,-2.631,-2.6485,-2.62,-2.595,0.0,0.0,0.0,0.0,0.0,0.0,0.0,0.0,0.0,0.0,0.0,0.0,0.0,0.0,0.0,0.0,0.0,0.0,0.0,0.0,0.0,0.0,0.0,0.0,0.0,0.0,0.0,0.0,0.0,0.0,0.0,0.0,0.0,0.0,0.0,0.0,0.0,0.0,0.0,0.0,0.0,-2.2519,-2.2993,-2.2951,0.0,0.0,0.0,0.0,-2.3363,-2.3456,0.0,0.0,0.0,0.0,0.0,0.0,0.0,0.0,0.0,0.0,0.0,0.0,0.0,0.0,0.0,0.0,0.0,0.0,0.0,0.0,0.0,0.0,0.0,0.0,0.0,0.0,0.0,0.0,0.0,0.0,0.0,0.0,0.0,0.0,0.0,0.0,0.0,0.0,0.0,0.0,0.0,0.0,0.0,0.0,0.0,0.0,0.0,0.0,0.0,0.0,0.0,0.0,0.0,0.0,0.0,0.0,-2.4298,-2.5542,-2.6203,-2.6203,-2.6241,-2.6364,-2.6468,-2.5295,-2.497,0.0,0.0,0.0,0.0,0.0,0.0,0.0,0.0,0.0,0.0,0.0,0.0,0.0,0.0,0.0,0.0,0.0,0.0,0.0,0.0,0.0,0.0,0.0,0.0,0.0,0.0,0.0,0.0,0.0,0.0,0.0,0.0,0.0,0.0,0.0,0.0,0.0,0.0,0.0,0.0,0.0,-2.3053,-2.4238,-2.3879,-2.3699,0.0,0.0,-2.5255,-2.527,-2.5749,0.0,0.0,0.0,0.0,0.0,0.0,0.0,0.0,0.0,0.0,0.0,0.0,0.0,0.0,0.0,0.0,0.0,0.0,0.0,0.0,0.0,0.0,0.0,0.0,0.0,0.0,0.0,0.0,0.0,0.0,0.0,0.0,0.0,0.0,0.0,0.0,0.0,0.0,0.0,0.0,0.0,0.0,0.0,0.0,0.0,0.0,0.0,0.0,0.0,0.0,0.0,0.0,0.0,0.0,0.0,-2.4495,-2.418,-2.5493,-2.6203,-2.6258,-2.6295,-2.6382,-2.6537,-2.5547,-2.5038,0.0,0.0,0.0,0.0,0.0,0.0,0.0,0.0,0.0,0.0,0.0,0.0,0.0,0.0,0.0,0.0,0.0,0.0,0.0,0.0,0.0,0.0,0.0,0.0,0.0,0.0,0.0,0.0,0.0,0.0,0.0,0.0,0.0,0.0,0.0,0.0,0.0,0.0,0.0,0.0,0.0,0.0,-2.4937,-2.4867,0.0,0.0,0.0,-2.5073,-2.5014,0.0,0.0,0.0,0.0,0.0,0.0,0.0,0.0,0.0,0.0,0.0,0.0,0.0,0.0,0.0,0.0,0.0,0.0,0.0,0.0,0.0,0.0,0.0,0.0,0.0,0.0,0.0,0.0,0.0,0.0,0.0,0.0,0.0,0.0,0.0,0.0,0.0,0.0,0.0,0.0,0.0,0.0,0.0,0.0,0.0,0.0,0.0,0.0,0.0,0.0,0.0,0.0,0.0,0.0,0.0,0.0,0.0,-2.4195,-2.5511,-2.6241,-2.633,-2.6382,-2.6452,-2.6555,-2.5916,0.0,0.0,0.0,0.0,0.0,0.0,0.0,0.0,0.0,0.0,0.0,0.0,0.0,0.0,0.0,0.0,0.0,0.0,0.0,0.0,0.0,0.0,0.0,0.0,0.0,0.0,0.0,-2.4353,0.0,0.0,0.0,0.0,0.0,0.0,0.0,0.0,0.0,0.0,0.0,0.0,0.0,0.0,-2.5477,-2.5389,-2.5515,-2.5674,0.0,0.0,-2.4993,-2.5073,-2.5712,-2.5909,0.0,0.0,0.0,0.0,0.0,0.0,0.0,0.0,0.0,0.0,0.0,0.0,0.0,0.0,0.0,0.0,0.0,0.0,0.0,0.0,0.0,0.0,0.0,0.0,0.0,0.0,0.0,0.0,0.0,0.0,0.0,0.0,0.0,0.0,0.0,0.0,0.0,0.0,0.0,0.0,0.0,0.0,0.0,0.0,0.0,0.0,0.0,0.0,0.0,0.0,0.0,0.0,0.0,0.0,-2.4258,-2.4421,-2.5631,-2.6347,-2.6485,-2.6537,-2.6572,-2.6606,-2.6015,-2.538,0.0,0.0,0.0,0.0,0.0,0.0,0.0,0.0,0.0,0.0,0.0,0.0,0.0,0.0,0.0,0.0,0.0,0.0,0.0,0.0,0.0,0.0,0.0,0.0,0.0,0.0,0.0,0.0,0.0,0.0,0.0,0.0,0.0,0.0,0.0,0.0,0.0,0.0,0.0,0.0,0.0,-2.5986,-2.5633,-2.5585,-2.5824,0.0,-2.5956,-2.5747,-2.6378,-2.7021,-2.7016,-2.5749,0.0,0.0,0.0,0.0,0.0,0.0,0.0,0.0,0.0,0.0,0.0,0.0,0.0,0.0,0.0,0.0,0.0,0.0,0.0,0.0,0.0,0.0,0.0,0.0,0.0,0.0,0.0,0.0,0.0,0.0,0.0,0.0,0.0,0.0,0.0,0.0,0.0,0.0,0.0,0.0,0.0,0.0,0.0,0.0,0.0,0.0,0.0,0.0,0.0,0.0,0.0,0.0,0.0,-2.437,-2.4387,-2.5732,-2.6485,-2.6537,-2.6572,-2.664,-2.6792,-2.6063,-2.5411,0.0,0.0,0.0,0.0,0.0,0.0,0.0,0.0,0.0,0.0,0.0,0.0,0.0,0.0,0.0,0.0,0.0,0.0,0.0,0.0,0.0,0.0,0.0,0.0,0.0,0.0,0.0,0.0,-2.5147,-2.5093,-2.4729,0.0,0.0,0.0,0.0,0.0,0.0,0.0,0.0,0.0,0.0,-2.629,-2.6533,-2.6389,0.0,0.0,-2.6056,-2.5737,-2.5956,-2.6204,-2.609,-2.5118,-2.5001,0.0,0.0,0.0,0.0,0.0,0.0,0.0,0.0,0.0,0.0,0.0,0.0,0.0,0.0,0.0,0.0,0.0,0.0,0.0,0.0,0.0,0.0,0.0,0.0,0.0,0.0,0.0,0.0,0.0,0.0,0.0,0.0,0.0,0.0,0.0,0.0,0.0,0.0,0.0,0.0,0.0,0.0,0.0,0.0,0.0,0.0,0.0,0.0,0.0,0.0,0.0,0.0,-2.4402,-2.4416,-2.5799,-2.6589,-2.664,-2.664,-2.6708,-2.6876,-2.6366,-2.5814,0.0,0.0,0.0,0.0,0.0,0.0,0.0,0.0,0.0,0.0,0.0,0.0,0.0,0.0,0.0,0.0,0.0,0.0,0.0,0.0,0.0,0.0,0.0,0.0,0.0,0.0,0.0,0.0,-2.6029,-2.5781,-2.5176,0.0,0.0,0.0,0.0,0.0,0.0,0.0,0.0,0.0,0.0,-2.6551,-2.6687,-2.6464,-2.6303,-2.6288,-2.5756,-2.5423,-2.5597,-2.5623,-2.5511,-2.4984,0.0,0.0,0.0,0.0,0.0,0.0,0.0,0.0,0.0,0.0,0.0,0.0,0.0,0.0,0.0,0.0,0.0,0.0,0.0,0.0,0.0,0.0,0.0,0.0,0.0,0.0,0.0,-2.9209,0.0,0.0,-2.8694,0.0,0.0,0.0,0.0,0.0,0.0,0.0,0.0,0.0,0.0,0.0,0.0,0.0,0.0,0.0,0.0,0.0,0.0,0.0,0.0,0.0,0.0,-2.4433,-2.4492,-2.5882,-2.664,-2.6708,-2.6691,-2.6775,-2.6876,-2.6925,-2.6646,-2.597,0.0,0.0,0.0,0.0,0.0,0.0,0.0,0.0,0.0,0.0,0.0,0.0,0.0,0.0,0.0,0.0,0.0,0.0,0.0,0.0,0.0,0.0,0.0,0.0,0.0,0.0,-2.6431,-2.6435,-2.6231,0.0,0.0,0.0,0.0,0.0,0.0,0.0,0.0,0.0,-2.5462,-2.6412,-2.6778,-2.5813,-2.563,-2.5659,-2.5674,-2.5075,-2.4866,-2.5525,-2.5568,-2.5615,0.0,0.0,0.0,0.0,0.0,0.0,0.0,0.0,0.0,0.0,0.0,0.0,0.0,0.0,0.0,0.0,0.0,0.0,0.0,0.0,0.0,0.0,0.0,0.0,0.0,0.0,0.0,-2.9984,-2.9821,0.0,0.0,0.0,0.0,0.0,0.0,0.0,0.0,0.0,0.0,0.0,-2.6573,-2.6472,0.0,0.0,0.0,0.0,0.0,0.0,0.0,0.0,0.0,0.0,0.0,0.0,-2.4461,-2.4591,-2.5914,-2.6674,-2.6691,-2.6792,-2.6876,-2.6959,-2.7023,-2.6759,-2.6096,0.0,0.0,0.0,0.0,0.0,0.0,0.0,0.0,0.0,0.0,0.0,0.0,0.0,0.0,0.0,0.0,0.0,0.0,0.0,0.0,0.0,0.0,0.0,0.0,0.0,-2.7272,0.0,0.0,0.0,0.0,0.0,0.0,0.0,0.0,0.0,0.0,0.0,-2.6527,-2.6466,-2.6156,-2.5848,-2.5616,-2.56,-2.5764,0.0,0.0,0.0,0.0,0.0,0.0,0.0,0.0,0.0,0.0,0.0,0.0,0.0,0.0,-2.2964,-2.3198,-2.3735,-2.4086,-2.388,0.0,0.0,0.0,0.0,0.0,0.0,0.0,0.0,0.0,0.0,0.0,0.0,0.0,0.0,-3.0623,0.0,-3.0443,0.0,0.0,0.0,0.0,0.0,0.0,0.0,0.0,-2.6909,-2.7345,-2.7623,-2.7346,-2.718,0.0,-2.6683,-2.5412,0.0,0.0,0.0,0.0,0.0,0.0,0.0,0.0,-2.4746,-2.4591,-2.5947,-2.6742,-2.6775,-2.6842,-2.6942,-2.704,-2.712,-2.7006,-2.664,-2.6079,-2.5738,0.0,0.0,0.0,0.0,0.0,0.0,0.0,0.0,0.0,0.0,0.0,0.0,0.0,0.0,0.0,0.0,0.0,0.0,0.0,0.0,0.0,0.0,0.0,-2.7977,0.0,0.0,0.0,0.0,0.0,0.0,0.0,0.0,0.0,-2.7097,-2.701,-2.6921,-2.6812,-2.6311,-2.5772,-2.5317,0.0,0.0,0.0,0.0,0.0,0.0,0.0,-2.4657,-2.4476,-2.4537,-2.4777,-2.5241,-2.5183,-2.511,-2.5188,0.0,0.0,-2.3674,-2.3929,-2.4182,-2.4175,-2.418,-2.4295,-2.464,-2.4709,-2.4846,0.0,0.0,0.0,0.0,0.0,0.0,0.0,0.0,-3.1805,-3.1288,0.0,-3.1131,0.0,0.0,0.0,0.0,-2.8685,-2.8576,0.0,0.0,-2.9293,-2.9143,-2.8147,-2.7451,-2.6778,-2.6226,-2.6179,-2.5999,-2.5761,-2.6404,0.0,0.0,0.0,0.0,0.0,0.0,-2.522,-2.4625,-2.5964,-2.6775,-2.6876,-2.6893,-2.6957,-2.7085,-2.7233,-2.7434,-2.7666,-2.7136,-2.7054,-2.7455,-2.6206,0.0,0.0,0.0,0.0,0.0,0.0,0.0,0.0,0.0,0.0,0.0,0.0,0.0,0.0,0.0,0.0,0.0,0.0,0.0,0.0,-2.928,0.0,0.0,0.0,0.0,0.0,0.0,0.0,0.0,0.0,0.0,-2.6945,-2.7243,-2.7278,-2.651,0.0,0.0,0.0,0.0,-2.5196,-2.3999,-2.3861,-2.4008,-2.4038,-2.464,-2.5304,-2.591,0.0,0.0,-2.6621,-2.6001,-2.558,-2.5736,-2.6246,-2.6007,-2.3778,-2.3519,-2.3632,-2.4096,-2.4314,-2.4381,-2.4797,-2.5024,-2.5025,-3.2523,0.0,0.0,0.0,0.0,-3.1347,-3.1742,-3.2342,-3.2305,-3.2169,-3.2017,-3.2157,0.0,0.0,0.0,0.0,0.0,0.0,-2.8662,-2.8587,-2.8586,-2.8702,-2.8959,-2.8825,-2.8685,-2.8539,-2.8254,-2.8081,-2.8063,-2.8235,-2.7148,-2.4831,0.0,0.0,0.0,0.0,-2.4966,-2.5321,-2.63,-2.6893,-2.6876,-2.699,-2.712,-2.7233,-2.7465,-2.763,-2.7701,-2.7897,-2.7843,-2.751,-2.727,0.0,0.0,0.0,0.0,0.0,0.0,0.0,0.0,0.0,0.0,0.0,0.0,0.0,0.0,0.0,0.0,0.0,0.0,0.0,-2.9584,-2.9347,-2.8834,0.0,0.0,0.0,0.0,0.0,0.0,0.0,0.0,0.0,-2.9592,-2.8431,-2.7284,0.0,0.0,-2.6193,-2.5336,-2.6001,-2.6605,-2.671,-2.6793,0.0,-2.7415,-2.6918,-2.6504,-2.6655,-2.6803,-2.6862,-2.6877,-2.7055,-2.7267,-2.7331,-2.7141,-2.6754,-2.6213,-2.6428,-2.6562,-2.6286,-2.6512,-2.6858,-2.6849,-2.6844,-2.6992,-3.392,-3.3223,-3.2447,-3.2173,-3.2277,-3.2289,-3.2662,-3.3284,-3.3184,-3.2992,-3.2741,-3.2934,-3.2405,-3.1327,-3.1313,0.0,0.0,0.0,-3.0104,-3.0033,-2.9376,-2.908,-2.913,-2.9045,-2.8939,-2.8853,-2.924,-2.9457,-2.9471,-2.9476,-2.8422,-2.6434,0.0,0.0,-2.4323,-2.5048,-2.552,-2.5675,-2.6502,-2.6942,-2.6957,-2.712,-2.7233,-2.7299,-2.7587,-2.7771,-2.7897,-2.8334,-2.8488,-2.8223,-2.8006,-2.754,0.0,0.0,0.0,0.0,0.0,0.0,0.0,0.0,0.0,0.0,0.0,-2.9439,-2.9527,0.0,0.0,0.0,-3.0089,-2.9988,-2.9715,-2.9219,0.0,0.0,0.0,0.0,0.0,0.0,0.0,-2.8459,-2.9607,-3.056,-3.0857,-2.9796,-2.887,-2.8527,-2.8313,-2.7827,-2.6819,0.0,-2.7891,-2.755,-2.752,-2.7659,-2.7832,-2.7509,-2.7265,-2.7496,-2.7575,-2.7575,-2.759,-2.7893,-2.8137,-2.8103,-2.7875,-2.7595,-2.7595,-2.8216,-2.8337,-2.7252,-2.7371,-2.7668,-2.7769,-2.7894,-2.814,-3.53,-3.5167,-3.3644,-3.3256,-3.3599,-3.3583,-3.3929,-3.445,-3.4197,-3.3654,-3.3043,-3.3482,-3.2847,-3.1407,-3.1415,0.0,-3.2502,-3.2365,-3.2283,-3.2256,-3.1038,-2.9953,-2.8978,-2.86,-2.8237,-2.7943,-2.9347,-3.0082,-3.0105,-3.0105,-2.9785,-2.9194,-2.8285,-2.7114,-2.5844,-2.6503,-2.657,-2.5941,-2.665,-2.704,-2.7103,-2.7264,-2.7313,-2.7362,-2.763,-2.7943,-2.8228,-2.8554,-2.8902,-2.9243,-2.8604,-2.8179,-2.8087,0.0,0.0,0.0,0.0,0.0,0.0,0.0,0.0,0.0,0.0,0.0,0.0,0.0,0.0,-3.0255,-3.0198,0.0,-3.0179,-2.9261,0.0,0.0,0.0,-2.9743,-3.1055,-3.1241,-3.1308,-3.1281,0.0,0.0,-3.1202,-3.136,-3.152,-3.1609,-3.1446,-3.0588,-2.8785,-2.9134,-2.8962,-2.7473,-2.724,-2.7194,-2.7303,-2.747,-2.7911,-2.835,-2.8411,-2.8365,-2.8365,-2.8381,-2.8411,-2.8411,-2.8411,-2.8411,-2.8411,-2.8839,-2.8885,-2.7451,-2.7308,-2.7524,-2.7997,-2.8326,-2.8525,-3.7085,-3.7045,-3.6657,-3.5718,-3.4508,-3.4334,-3.4264,-3.4245,-3.3972,-3.3776,-3.3592,-3.3723,-3.3568,-3.3193,-3.3193,-3.325,-3.336,-3.2738,-3.2411,-3.2293,-3.0903,-3.0158,-2.9859,-2.9331,-2.9024,-2.8988,-2.9313,-2.952,-2.95,-2.9498,-2.9106,-2.8425,-2.8135,-2.7572,-2.6719,-2.6855,-2.7178,-2.7538,-2.7244,-2.7152,-2.7233,-2.7496,-2.76,-2.763,-2.8165,-2.85,-2.8576,-2.8957,-2.9218,-2.9302,-2.9161,-2.8812,-2.8142,-2.7901,0.0,0.0,0.0,0.0,0.0,0.0,0.0,0.0,0.0,-3.0094,-2.9983,0.0,-2.9737,0.0,-3.0505,-3.1445,-3.1655,-3.1629,0.0,0.0,-3.0883,-3.084,-3.1157,-3.1681,-3.2032,-3.2025,-3.253,-3.2865,-3.2848,-3.3363,-3.3711,-3.3725,-3.1974,-3.0269,-2.9247,-2.9881,-3.0354,-2.9977,-3.021,-3.0623,-3.0275,-2.9879,-2.9277,-2.8998,-2.8621,-2.8411,-2.8411,-2.8411,-2.8411,-2.8411,-2.8411,-2.8411,-2.8411,-2.855,-2.8529,-2.8228,-2.8629,-2.8986,-2.8832,-2.8846,-2.8846,-3.7693,-3.7693,-3.7706,-3.7066,-3.6065,-3.5766,-3.5509,-3.5293,-3.5026,-3.4706,-3.4339,-3.3972,-3.3807,-3.3807,-3.3807,-3.378,-3.3716,-3.325,-3.2838,-3.2374,-3.1409,-3.0779,-3.0463,-3.0302,-3.0161,-3.0024,-3.0352,-3.0455,-3.0326,-3.0341,-3.0118,-2.9763,-2.9763,-2.9385,-2.8613,-2.7585,-2.7244,-2.7654,-2.7652,-2.7732,-2.7782,-2.7938,-2.7762,-2.7256,-2.7674,-2.7863,-2.7687,-2.7985,-2.8339,-2.8732,-2.8476,-2.8422,-2.8663,-2.8292,-2.8442,0.0,0.0,0.0,0.0,0.0,0.0,0.0,0.0,0.0,0.0,0.0,-3.1034,-3.0592,-3.1603,-3.2275,-3.2197,-3.2219,-3.2278,-3.2474,-3.2412,-3.2547,-3.3168,-3.3567,-3.377,-3.3752,-3.4109,-3.4387,-3.4404,-3.4726,-3.4871,-3.4539,-3.3235,-3.21,-3.17,-3.2094,-3.2281,-3.1761,-3.1678,-3.1518,-3.1024,-3.0231,-2.9532,-2.9138,-2.87,-2.8411,-2.8411,-2.8411,-2.8411,-2.8411,-2.8411,-2.8411,-2.8411,-2.8411,-2.8411,-2.8455,-2.8782,-2.8985,-2.8771,-2.8719,-2.8719,-3.8035,-3.8054,-3.8037,-3.8037,-3.8037,-3.7591,-3.7141,-3.6745,-3.6445,-3.5909,-3.5119,-3.4431,-3.4119,-3.4119,-3.41,-3.4045,-3.3972,-3.3872,-3.3424,-3.2655,-3.2252,-3.1748,-3.1124,-3.1439,-3.1411,-3.1183,-3.176,-3.1913,-3.1691,-3.1651,-3.1654,-3.1645,-3.1662,-3.1282,-3.0489,-2.8457,-2.7375,-2.7289,-2.8146,-2.8574,-2.8468,-2.8449,-2.7944,-2.6929,-2.7129,-2.7109,-2.6801,-2.6905,-2.7378,-2.8179,-2.7491,-2.7807,-2.9425,-2.8907,-2.926,0.0,-3.111,0.0,0.0,0.0,0.0,0.0,0.0,0.0,0.0,-3.2862,-3.2669,-3.2778,-3.2946,-3.2913,-3.2615,-3.2414,-3.2882,-3.402,-3.4134,-3.4565,-3.5674,-3.5756,-3.5711,-3.5639,-3.5639,-3.5605,-3.5408,-3.5509,-3.5334,-3.4675,-3.4543,-3.4421,-3.4547,-3.4293,-3.3775,-3.289,-3.2236,-3.1705,-3.0773,-3.0033,-2.9685,-2.9529,-2.9186,-2.8755,-2.8735,-2.8719,-2.8704,-2.8704,-2.8765,-2.8719,-2.8691,-2.8611,-2.855,-2.8583,-2.8535,-2.847,-2.8455,-2.8422,-2.8411,-3.9792,-3.983,-3.987,-3.9888,-3.9863,-3.9545,-3.8495,-3.6934,-3.6701,-3.6426,-3.6046,-3.5901,-3.5827,-3.5826,-3.5827,-3.5441,-3.477,-3.477,-3.4312,-3.356,-3.3201,-3.2954,-3.2828,-3.2634,-3.2517,-3.2438,-3.2319,-3.2228,-3.2179,-3.1893,-3.1489,-3.092,-3.0903,-3.0506,-2.9748,0.0,0.0,0.0,-2.9179,-2.9383,-2.8736,-2.8622,-2.8472,-2.8319,-2.8625,0.0,-2.8738,-2.8174,-2.8253,-2.9072,-2.8327,0.0,0.0,0.0,0.0,0.0,0.0,0.0,0.0,0.0,0.0,0.0,-3.6062,-3.5404,-3.447,-3.3234,-3.2667,-3.3196,-3.3633,-3.4081,-3.4587,-3.507,-3.5469,-3.5744,-3.5935,-3.6039,-3.5985,-3.6241,-3.6259,-3.583,-3.5779,-3.5514,-3.4936,-3.52,-3.5334,-3.4709,-3.5003,-3.5374,-3.5402,-3.4421,-3.3567,-3.3246,-3.3128,-3.2983,-3.279,-3.223,-3.1638,-3.1447,-3.1007,-3.0503,-3.0118,-3.0032,-3.0012,-3.0032,-3.0043,-3.0001,-2.9964,-2.9589,-2.9215,-2.9211,-2.8788,-2.8411,-2.8411,-2.8411,-2.8411,-4.0325,-4.0362,-4.0364,-4.0401,0.0,-4.0257,-3.9546,-3.8458,-3.8128,-3.7625,-3.6951,-3.6555,-3.639,-3.638,-3.639,-3.615,-3.5698,-3.5698,-3.545,-3.5037,-3.4877,-3.479,-3.479,-3.4624,-3.4437,-3.4227,-3.4031,-3.3804,-3.3512,-3.3296,-3.2939,-3.2369,-3.2369,-3.2162,-3.1765,-3.1477,-3.075,-2.9541,-3.0128,-3.0247,-2.9872,-2.9978,-2.9765,-2.9236,-2.9496,0.0,0.0,0.0,0.0,0.0,0.0,0.0,0.0,-3.1582,0.0,-3.3552,-3.4789,-3.5843,-3.663,-3.7058,-3.7448,-3.7838,-3.7821,-3.7247,-3.5976,-3.5283,-3.5066,-3.5384,-3.5661,-3.5917,-3.6303,-3.6667,-3.6838,-3.6838,-3.6921,-3.6865,-3.6706,-3.6803,-3.6818,-3.656,-3.6294,-3.6002,-3.5569,-3.5644,-3.5654,-3.5307,-3.5555,-3.5766,-3.5661,-3.504,-3.4395,-3.4021,-3.3938,-3.3777,-3.3453,-3.2984,-3.2646,-3.2315,-3.1915,-3.155,-3.1209,-3.1209,-3.1176,-3.1176,-3.0977,-3.0807,-3.0747,-3.0284,-2.9874,-2.9855,-2.9373,-2.8919,-2.8889,-2.8642,-2.8411,-4.0362,-4.0415,-4.0413,-4.0413,-4.0413,-4.0399,-4.0262,-3.9983,0.0,0.0,0.0,-3.7221,-3.6925,-3.6943,-3.6925,-3.6842,-3.6648,-3.6629,-3.6546,-3.636,-3.6342,-3.6342,-3.6342,-3.636,-3.6172,-3.5842,-3.5765,-3.5465,-3.4942,-3.4817,-3.4616,-3.4293,-3.4233,-3.4233,-3.4181,-3.3726,-3.2823,-3.1532,-3.1203,-3.1045,-3.1109,-3.1355,-3.102,-3.0075,-3.0277,-3.0217,-2.9832,-2.9686,-2.9983,-3.0724,-3.0039,-3.0355,-3.1898,-3.2269,-3.3112,-3.4531,-3.5576,-3.6694,-3.8024,-3.8116,-3.8395,-3.9045,-3.9036,-3.8508,-3.7303,-3.7464,-3.756,-3.7505,-3.7505,-3.7505,-3.7505,-3.7505,-3.7505,-3.7505,-3.7487,-3.7415,-3.7342,-3.736,-3.7329,-3.7189,-3.6899,-3.669,-3.6651,-3.6388,-3.6191,-3.6216,-3.6246,-3.6155,-3.5941,-3.5688,-3.5307,-3.4818,-3.4705,-3.4503,-3.3924,-3.3584,-3.3178,-3.3143,-3.279,-3.2476,-3.2382,-3.2334,-3.2334,-3.2369,-3.1967,-3.181,-3.1649,-3.1228,-3.0763,-3.072,-3.012,-2.9597,-2.955,-2.9166,-2.875,-4.0466,-4.0502,-4.0495,-4.0473,-4.0492,-4.0489,-4.0353,-4.0139,-3.9561,-3.9082,-3.8726,-3.8607,-3.8551,-3.8559,-3.8551,-3.8182,-3.7515,-3.7515,-3.7128,-3.6464,-3.6464,-3.6491,-3.6491,-3.6473,-3.6445,-3.6371,-3.6098,-3.5903,-3.5755,-3.5321,-3.4995,-3.4942,-3.4745,-3.4633,-3.4598,-3.453,-3.4481,-3.4446,-3.2512,-3.1597,-3.1835,-3.1518,-3.1378,-3.1426,-3.1455,-3.1487,-3.1448,-3.0838,-3.0801,-3.1559,-3.0875,-3.1151,-3.2753,-3.4162,-3.5392,-3.634,-3.7755,-3.8702,-3.8915,-3.8915,-3.899,-3.9082,-3.9036,-3.8711,-3.8099,-3.8074,-3.7946,-3.7578,-3.7542,-3.7505,-3.7505,-3.7542,-3.7542,-3.7542,-3.7809,-3.7861,-3.756,-3.7791,-3.7809,-3.7411,-3.7266,-3.7195,-3.714,-3.7048,-3.6961,-3.6999,-3.6917,-3.6887,-3.6487,-3.5985,-3.5667,-3.556,-3.5537,-3.5408,-3.5178,-3.5262,-3.488,-3.4582,-3.4419,-3.4147,-3.3795,-3.3697,-3.3714,-3.3729,-3.3582,-3.3505,-3.3486,-3.2672,-3.2097,-3.1905,-3.1118,-3.0408,-3.031,-3.0171,-2.972,-4.0499,-4.0511,-4.0489,-4.0489,-4.0489,-4.0489,-4.0372,-4.0196,-3.9899,-3.9561,-3.9245,-3.9227,-3.9137,-3.9036,-3.9017,-3.8785,-3.8413,-3.8413,-3.8182,-3.7802,-3.7802,-3.7784,-3.7802,-3.7802,-3.7802,-3.7802,-3.765,-3.7479,-3.7249,-3.6964,-3.668,-3.6343,-3.6086,-3.5782,-3.5506,-3.5598,-3.5509,-3.5134,-3.3599,-3.2991,-3.3352,-3.2819,-3.2664,-3.2865,-3.3006,-3.3078,-3.3083,-3.2748,-3.2711,-3.3083,-3.2748,-3.2878,-3.3621,-3.4809,-3.5876,-3.6675,-3.7809,-3.8637,-3.9064,-3.9101,-3.9101,-3.9101,-3.9073,-3.896,-3.8658,-3.8566,-3.8428,-3.8186,-3.8135,-3.8135,-3.8135,-3.8135,-3.8135,-3.8135,-3.8336,-3.8336,-3.8219,-3.8285,-3.83,-3.808,-3.7877,-3.7718,-3.7706,-3.7506,-3.7372,-3.734,-3.7308,-3.7198,-3.7097,-3.6522,-3.6079,-3.5909,-3.5858,-3.5817,-3.58,-3.58,-3.5694,-3.5453,-3.5453,-3.5345,-3.5098,-3.5098,-3.5052,-3.5035,-3.4816,-3.4578,-3.4528,-3.3838,-3.3291,-3.3085,-3.2475,-3.1808,-3.1475,-3.1123,-3.0623,-4.0495,-4.0489,-4.0489,-4.0489,-4.0489,-4.0489,-4.0425,-4.0269,-4.0269,-4.0022,-3.9656,-3.9575,-3.9376,-3.9192,-3.9129,-3.9092,-3.9036,-3.9036,-3.9007,-3.895,-3.895,-3.895,-3.895,-3.895,-3.895,-3.895,-3.895,-3.878,-3.8506,-3.8446,-3.8119,-3.7573,-3.7238,-3.692,-3.6448,-3.6738,-3.6536,-3.5892,-3.5021,-3.467,-3.4812,-3.4426,-3.433,-3.4526,-3.468,-3.4754,-3.4754,-3.4754,-3.4754,-3.4754,-3.4754,-3.4773,-3.4773,-3.5591,-3.6335,-3.6972,-3.7734,-3.8459,-3.9027,-3.9101,-3.9101,-3.9101,-3.9101,-3.9092,-3.9026,-3.891,-3.8822,-3.875,-3.8719,-3.8719,-3.8719,-3.8719,-3.8719,-3.8719,-3.8689,-3.8658,-3.8707,-3.8707,-3.8707,-3.8676,-3.8401,-3.8227,-3.8177,-3.7972,-3.7791,-3.7809,-3.7596,-3.756,-3.756,-3.7152,-3.6667,-3.6294,-3.6112,-3.6002,-3.6028,-3.6002,-3.5975,-3.6036,-3.5975,-3.5932,-3.5888,-3.5975,-3.5975,-3.5871,-3.5543,-3.5299,-3.5177,-3.4684,-3.4284,-3.4154,-3.3616,-3.3029,-3.2663,-3.2278,-3.1785,-4.0489,-4.0489,-4.0489,-4.0489,-4.0489,-4.0504,-4.0489,-4.0473,-4.0473,-4.0356,-4.0101,-3.9679,-3.9483,-3.9433,-3.9192,-3.9101,-3.9073,-3.9101,-3.9073,-3.9073,-3.9073,-3.9073,-3.9073,-3.9073,-3.9073,-3.9073,-3.9073,-3.9045,-3.8979,-3.8815,-3.8478,-3.7967,-3.7685,-3.7522,-3.7506,-3.7719,-3.7905,-3.8063,-3.7298,-3.6583,-3.5921,-3.6064,-3.6242,-3.6437,-3.6445,-3.6463,-3.637,-3.6463,-3.6463,-3.6463,-3.6408,-3.6426,-3.65,-3.7206,-3.7671,-3.7782,-3.8525,-3.9045,-3.9101,-3.9101,-3.9101,-3.9101,-3.9101,-3.9073,-3.9007,-3.8979,-3.8968,-3.891,-3.8881,-3.8862,-3.8881,-3.8822,-3.881,-3.8792,-3.875,-3.8707,-3.8707,-3.8707,-3.8707,-3.8707,-3.8627,-3.8658,-3.8603,-3.8528,-3.8546,-3.8483,-3.8168,-3.8016,-3.7982,-3.7685,-3.7261,-3.6852,-3.6405,-3.6054,-3.6036,-3.602,-3.6045,-3.6019,-3.6019,-3.6019,-3.6019,-3.6019,-3.6036,-3.6062,-3.5975,-3.5817,-3.5735,-3.5388,-3.4981,-3.494,-3.4471,-3.3874,-3.3806,-3.3711,-3.342,-4.0489,-4.0489,-4.0489,-4.0489,-4.0504,-4.0549,-4.0549,-4.0554,-4.0549,-4.0515,-4.0403,-4.012,-3.9794,-3.9502,-3.9237,-3.9101,-3.9101,-3.9101,-3.9101,-3.9101,-3.9101,-3.9101,-3.9101,-3.9101,-3.9101,-3.9101,-3.9101,-3.9101,-3.9055,-3.8896,-3.8674,-3.8478,-3.8219,-3.8086,-3.8086,-3.835,-3.8446,-3.8415,-3.8364,-3.8092,-3.7606,-3.6812,-3.6518,-3.6679,-3.6705,-3.6705,-3.6705,-3.6705,-3.6705,-3.6705,-3.6705,-3.6705,-3.6705,-3.7021,-3.7392,-3.7894,-3.8637,-3.9101,-3.9101,-3.9101,-3.9101,-3.9101,-3.9101,-3.9073,-3.9064,-3.9064,-3.9064,-3.9036,-3.895,-3.891,-3.891,-3.8881,-3.8833,-3.8851,-3.8792,-3.875,-3.8732,-3.8738,-3.8707,-3.8707,-3.8707,-3.8707,-3.8707,-3.8707,-3.8707,-3.8689,-3.8515,-3.8433,-3.8433,-3.8101,-3.7843,-3.7596,-3.7212,-3.6684,-3.6323,-3.6165,-3.6174,-3.6174,-3.6174,-3.6174,-3.6174,-3.6174,-3.6174,-3.6174,-3.6148,-3.6122,-3.6062,-3.5878,-3.561,-3.5518,-3.5234,-3.4752,-3.5021,-3.4816,-3.4556,-4.0519,-4.0534,-4.0534,-4.0534,-4.053,-4.0574,-4.0593,-4.0583,-4.0588,-4.0588,-4.0574,-4.0383,-4.0101,-3.9705,-3.9396,-3.9261,-3.9253,-3.9219,-3.9219,-3.9192,-3.9219,-3.9219,-3.9192,-3.9202,-3.9229,-3.9192,-3.9192,-3.9137,-3.9082,-3.8888,-3.8775,-3.8755,-3.8528,-3.8382,-3.8415,-3.8652,-3.8713,-3.8559,-3.8902,-3.9017,-3.8726,-3.7747,-3.722,-3.7355,-3.7355,-3.7336,-3.7336,-3.7355,-3.7355,-3.7355,-3.7355,-3.7355,-3.7336,-3.7355,-3.7615,-3.8172,-3.8767,-3.9101,-3.9101,-3.9101,-3.9101,-3.9101,-3.9101,-3.9101,-3.9101,-3.9101,-3.9101,-3.9101,-3.9007,-3.895,-3.895,-3.8931,-3.8931,-3.8921,-3.8881,-3.8851,-3.8803,-3.8762,-3.8768,-3.8726,-3.8738,-3.8719,-3.8689,-3.8707,-3.8707,-3.8707,-3.8707,-3.8707,-3.8658,-3.8433,-3.8245,-3.8123,-3.7821,-3.7342,-3.6643,-3.6474,-3.6451,-3.6284,-3.6284,-3.6284,-3.6284,-3.6284,-3.6301,-3.6216,-3.6233,-3.6251,-3.6191,-3.6088,-3.6019,-3.5915,-3.5722,-3.5481,-3.565,-3.5453,-3.5453,-4.0579,-4.0607,-4.0588,-4.0602,-4.0596,-4.0602,-4.0588,-4.0607,-4.0588,-4.0607,-4.0574,-4.0399,-4.03,-4.0229,-3.9861,-3.9664,-3.9641,-3.9513,-3.9477,-3.9458,-3.9458,-3.9458,-3.9477,-3.9476,-3.9476,-3.9452,-3.9338,-3.9253,-3.911,-3.8934,-3.8775,-3.8803,-3.8572,-3.8415,-3.8478,-3.8695,-3.8792,-3.8822,-3.8989,-3.9101,-3.9073,-3.8962,-3.885,-3.8859,-3.8952,-3.8859,-3.8915,-3.8952,-3.8952,-3.8971,-3.8878,-3.8915,-3.8934,-3.8915,-3.8934,-3.9036,-3.9064,-3.9101,-3.9101,-3.9101,-3.9101,-3.9101,-3.9101,-3.9101,-3.9101,-3.9101,-3.9101,-3.9101,-3.9092,-3.9073,-3.9082,-3.9036,-3.899,-3.9007,-3.8939,-3.8892,-3.891,-3.8881,-3.884,-3.8805,-3.8817,-3.8799,-3.8707,-3.8707,-3.8689,-3.8707,-3.8707,-3.8707,-3.8707,-3.8658,-3.8496,-3.8249,-3.8065,-3.779,-3.7102,-3.6886,-3.6701,-3.6557,-3.6516,-3.6326,-3.6284,-3.6284,-3.6284,-3.6284,-3.6301,-3.6259,-3.6259,-3.6233,-3.6148,-3.6062,-3.6105,-3.6062,-3.5975,-3.5975,-3.5932,-4.1089,-4.0615,-4.0635,-4.0648,-4.061,-4.0713,-4.0713,-4.0687,-4.0713,-4.0726,-4.0713,-4.064,-4.0626,-4.0612,-4.0332,-4.0024,-3.9709,-3.966,-3.9566,-3.9508,-3.9483,-3.9483,-3.9483,-3.9496,-3.9496,-3.9502,-3.9458,-3.9408,-3.9357,-3.9275,-3.9197,-3.9137,-3.9027,-3.8942,-3.8884,-3.8931,-3.8989,-3.8989,-3.9073,-3.9101,-3.9082,-3.9101,-3.9101,-3.9101,-3.9101,-3.9101,-3.9101,-3.9101,-3.9101,-3.9101,-3.9101,-3.9101,-3.9082,-3.9165,-3.9272,-3.935,-3.9272,-3.9219,-3.9219,-3.9156,-3.9101,-3.9101,-3.9101,-3.9101,-3.9101,-3.9101,-3.9101,-3.9101,-3.9101,-3.9156,-3.9298,-3.9173,-3.9082,-3.9045,-3.9007,-3.8979,-3.8968,-3.8921,-3.8881,-3.887,-3.887,-3.8859,-3.8823,-3.8805,-3.875,-3.8744,-3.8726,-3.8707,-3.8707,-3.8707,-3.8627,-3.8533,-3.8483,-3.8318,-3.779,-3.7433,-3.719,-3.7055,-3.6939,-3.6781,-3.6678,-3.6409,-3.6326,-3.6367,-3.6326,-3.6284,-3.6301,-3.6301,-3.6191,-3.6216,-3.6233,-3.6191,-3.6148,-3.6122,-3.6079,-4.2019,-4.1512,-4.1525,-4.1332,-4.1081,-4.1145,-4.101,-4.0765,-4.0778,-4.079,-4.079,-4.079,-4.079,-4.0778,-4.0654,-4.0364,-3.9985,-3.9905,-3.9838,-3.9702,-3.9679,-3.9675,-3.9623,-3.9623,-3.9623,-3.9604,-3.9585,-3.9561,-3.9489,-3.9481,-3.9432,-3.9376,-3.9376,-3.9324,-3.9245,-3.9219,-3.9219,-3.9219,-3.921,-3.921,-3.9219,-3.9137,-3.9129,-3.9156,-3.9165,-3.9137,-3.9101,-3.9101,-3.9101,-3.9101,-3.9101,-3.9101,-3.9129,-3.9272,-3.9376,-3.9376,-3.9305,-3.9298,-3.9298,-3.9237,-3.9165,-3.9219,-3.9192,-3.9183,-3.9183,-3.9129,-3.9156,-3.921,-3.923,-3.9339,-3.9494,-3.9435,-3.9325,-3.9308,-3.9305,-3.9253,-3.9253,-3.9227,-3.9165,-3.9073,-3.897,-3.8939,-3.8902,-3.8877,-3.8859,-3.8835,-3.8768,-3.875,-3.875,-3.875,-3.878,-3.875,-3.8732,-3.8621,-3.8378,-3.8165,-3.7667,-3.7451,-3.717,-3.7055,-3.6978,-3.6638,-3.6409,-3.6451,-3.6409,-3.6326,-3.6284,-3.6284,-3.6284,-3.6284,-3.6301,-3.6259,-3.6233,-3.6251,-3.6191,-4.3272,-4.3175,-4.3285,-4.2705,-4.2048,-4.2028,-4.1564,-4.1074,-4.0965,-4.1093,-4.1151,-4.0977,-4.1042,-4.0868,-4.0913,-4.0725,-4.0462,-4.0332,-4.0193,-4.0062,-4.0061,-3.9981,-3.987,-3.9867,-3.9848,-3.9848,-3.9735,-3.9645,-3.9532,-3.9528,-3.9547,-3.9513,-3.9483,-3.9483,-3.9502,-3.9458,-3.9458,-3.9433,-3.935,-3.9357,-3.9452,-3.9245,-3.921,-3.9298,-3.9298,-3.9245,-3.911,-3.911,-3.9137,-3.911,-3.9129,-3.9101,-3.9165,-3.9376,-3.9383,-3.9245,-3.9272,-3.9324,-3.9324,-3.9305,-3.9357,-3.9401,-3.9357,-3.9324,-3.9298,-3.9192,-3.9219,-3.9439,-3.95,-3.9582,-3.9757,-3.9776,-3.9755,-3.9806,-3.9709,-3.9709,-3.9731,-3.9775,-3.9664,-3.9364,-3.9127,-3.8934,-3.8913,-3.891,-3.8929,-3.8881,-3.8881,-3.8881,-3.8881,-3.8881,-3.8862,-3.8881,-3.8881,-3.8792,-3.8851,-3.8833,-3.8263,-3.779,-3.7396,-3.719,-3.7266,-3.7076,-3.6741,-3.6678,-3.6426,-3.6343,-3.6284,-3.6284,-3.6284,-3.6284,-3.6284,-3.6301,-3.6259,-3.6276,-3.6259,-4.3929,-4.3388,-4.3311,-4.315,-4.2899,-4.2899,-4.275,-4.2574,-4.2537,-4.2537,-4.2574,-4.2537,-4.2202,-4.1719,-4.1622,-4.13,-4.0739,-4.066,-4.05,-4.0266,-4.0158,-4.0081,-4.002,-3.9935,-3.9889,-3.9889,-3.9851,-3.9829,-3.9785,-3.9772,-3.9747,-3.967,-3.9647,-3.958,-3.9508,-3.9483,-3.9483,-3.9483,-3.9477,-3.9458,-3.9483,-3.9408,-3.9383,-3.9408,-3.9452,-3.9408,-3.9376,-3.9357,-3.9357,-3.9376,-3.9376,-3.9427,-3.9526,-3.9599,-3.9647,-3.9665,-3.9599,-3.9556,-3.958,-3.9561,-3.9494,-3.9433,-3.9396,-3.9421,-3.9433,-3.9427,-3.9471,-3.9674,-3.9698,-3.9804,-4.0001,-4.0074,-4.0055,-3.9842,-3.9797,-3.9897,-3.9992,-3.9895,-3.9595,-3.9317,-3.9268,-3.9231,-3.9082,-3.9026,-3.8997,-3.8968,-3.8939,-3.891,-3.891,-3.8939,-3.891,-3.891,-3.891,-3.8939,-3.8921,-3.8921,-3.8676,-3.8245,-3.7893,-3.7649,-3.7667,-3.7433,-3.7135,-3.6917,-3.6615,-3.6426,-3.6385,-3.635,-3.6374,-3.6326,-3.6284,-3.6284,-3.6284,-3.6284,-3.6284,-4.4898,-4.4422,-4.4323,-4.4137,-4.3854,-4.3831,-4.3656,-4.3458,-4.3404,-4.3404,-4.3408,-4.3385,-4.309,-4.2644,-4.2548,-4.2083,-4.1366,-4.1319,-4.1035,-4.054,-4.0334,-4.0213,-4.0101,-3.9956,-3.9889,-3.9889,-3.9889,-3.9889,-3.9889,-3.9889,-3.9848,-3.9804,-3.9781,-3.9717,-3.9647,-3.9647,-3.9647,-3.9665,-3.9599,-3.9599,-3.9623,-3.9532,-3.9508,-3.9575,-3.9575,-3.9575,-3.9575,-3.9604,-3.9599,-3.9532,-3.9532,-3.958,-3.9647,-3.9712,-3.9781,-3.9735,-3.9717,-3.9698,-3.9766,-3.975,-3.9754,-3.9687,-3.9712,-3.9716,-3.9709,-3.9687,-3.9743,-3.9949,-4.0006,-4.0095,-4.0327,-4.0694,-4.0715,-4.0597,-4.0616,-4.0673,-4.0882,-4.0952,-4.0612,-4.0306,-4.0071,-3.9799,-3.9425,-3.9202,-3.9147,-3.9082,-3.9007,-3.8979,-3.8979,-3.896,-3.8979,-3.8979,-3.8979,-3.8989,-3.896,-3.896,-3.8979,-3.8707,-3.8423,-3.8296,-3.8281,-3.7807,-3.7397,-3.7281,-3.7048,-3.6846,-3.6748,-3.6626,-3.6591,-3.6464,-3.6326,-3.6284,-3.6284,-3.6284,-3.6284,-4.5933,-4.5972,-4.5864,-4.5212,-4.4612,-4.4608,-4.4248,-4.3695,-4.3724,-4.3802,-4.3792,-4.3879,-4.3694,-4.3588,-4.3529,-4.3053,-4.2364,-4.2083,-4.1704,-4.1089,-4.0694,-4.0399,-4.012,-3.9998,-3.9914,-3.9889,-3.9889,-3.9889,-3.9889,-3.9889,-3.9889,-3.9889,-3.9889,-3.9889,-3.9848,-3.9889,-3.9848,-3.9826,-3.9762,-3.9781,-3.9867,-3.9689,-3.9599,-3.9717,-3.9717,-3.9717,-3.9735,-3.9804,-3.9758,-3.9575,-3.9651,-3.967,-3.9623,-3.9762,-3.9781,-3.9623,-3.9651,-3.9788,-3.9899,-3.9963,-4.0004,-4.0138,-4.01,-4.0119,-4.0043,-3.9985,-4.0024,-4.0272,-4.0272,-4.0425,-4.0781,-4.1311,-4.1778,-4.2033,-4.1899,-4.2132,-4.2842,-4.2699,-4.21,-4.1509,-4.1238,-4.081,-3.9892,-3.9689,-3.9526,-3.9237,-3.9137,-3.9156,-3.9073,-3.9073,-3.9101,-3.9073,-3.9064,-3.9045,-3.9045,-3.9017,-3.9017,-3.8931,-3.8737,-3.8725,-3.8664,-3.8162,-3.7789,-3.7667,-3.7521,-3.7314,-3.7105,-3.6981,-3.679,-3.6603,-3.6474,-3.6367,-3.6284,-3.6284,-3.6326,-4.427,-4.4247,-4.4192,-4.4014,-4.3958,-4.4478,-4.4645,-4.4539,-4.5046,-4.5133,-4.5346,-4.5376,-4.4889,-4.4441,-4.4384,-4.3928,-4.3209,-4.2539,-4.2151,-4.1781,-4.1082,-4.0563,-4.0229,-4.0101,-4.0,-3.9933,-3.9911,-3.9889,-3.9889,-3.9911,-3.9911,-3.9889,-3.9911,-3.9889,-3.9889,-3.9889,-3.9889,-3.9889,-3.9848,-3.9848,-3.9848,-3.9845,-3.9823,-3.9826,-3.9826,-3.9826,-3.9848,-3.9889,-3.9889,-3.9804,-3.9826,-3.9845,-3.9781,-3.9867,-3.9848,-3.9826,-3.9897,-4.0001,-4.0062,-4.0211,-4.0281,-4.0174,-4.0281,-4.0319,-4.0247,-4.0229,-4.0298,-4.0469,-4.0527,-4.0816,-4.1398,-4.1812,-4.2449,-4.3485,-4.323,-4.2879,-4.2927,-4.2908,-4.2757,-4.2271,-4.2259,-4.1739,-4.1007,-4.0623,-4.0354,-3.9683,-3.9451,-3.9343,-3.9229,-3.925,-3.9305,-3.9175,-3.911,-3.9101,-3.9101,-3.9101,-3.9101,-3.9073,-3.9007,-3.8968,-3.8785,-3.8436,-3.8227,-3.8114,-3.7913,-3.7721,-3.7469,-3.7324,-3.7058,-3.69,-3.6736,-3.6655,-3.6409,-3.6326,-3.6367,-4.3633,-4.3652,-4.3603,-4.3583,-4.3645,-4.4097,-4.4312,-4.4377,-4.4779,-4.5237,-4.5507,-4.5549,-4.5453,-4.5346,-4.5317,-4.4868,-4.4078,-4.3564,-4.2933,-4.2108,-4.1332,-4.0765,-4.0453,-4.0312,-4.0193,-4.008,-4.0032,-3.9989,-3.9975,-3.9956,-3.9954,-3.9954,-3.9933,-3.9933,-3.9889,-3.9889,-3.9889,-3.9889,-3.9889,-3.9889,-3.9889,-3.9889,-3.9889,-3.9889,-3.9889,-3.9889,-3.9889,-3.9889,-3.9889,-3.9889,-3.9889,-3.9889,-3.9889,-3.9889,-3.9933,-3.9977,-4.0041,-4.012,-4.0266,-4.0415,-4.0462,-4.0415,-4.0515,-4.0515,-4.0534,-4.0534,-4.0593,-4.0648,-4.0681,-4.1106,-4.1859,-4.253,-4.3598,-4.465,-4.4511,-4.4122,-4.3961,-4.4168,-4.3864,-4.3465,-4.3254,-4.2982,-4.1926,-4.1791,-4.1225,-4.0514,-4.0152,-3.9808,-3.9455,-3.9527,-3.9668,-3.9695,-3.9909,-4.0123,-4.0178,-4.0178,-4.0104,-4.0011,-3.9649,-3.9546,-3.909,-3.881,-3.864,-3.8499,-3.831,-3.8096,-3.791,-3.7737,-3.7578,-3.7377,-3.7188,-3.7013,-3.6838,-3.6638,-3.6638,-4.343,-4.3434,-4.3411,-4.3436,-4.334,-4.3442,-4.3474,-4.348,-4.3682,-4.413,-4.4656,-4.4773,-4.5129,-4.6059,-4.5694,-4.5611,-4.5007,-4.4727,-4.3637,-4.2532,-4.1575,-4.1072,-4.0738,-4.0552,-4.0423,-4.03,-4.0251,-4.019,-4.0117,-4.006,-4.0019,-3.9996,-3.9975,-3.9954,-3.9911,-3.9889,-3.9889,-3.9889,-3.9889,-3.9889,-3.9889,-3.9889,-3.9889,-3.9889,-3.9889,-3.9889,-3.9889,-3.9889,-3.9889,-3.9889,-3.9889,-3.9889,-3.9889,-3.9911,-3.9958,-4.0081,-4.0158,-4.0266,-4.0431,-4.0511,-4.0588,-4.0713,-4.0765,-4.079,-4.0765,-4.0746,-4.0746,-4.0759,-4.0848,-4.1487,-4.2505,-4.3728,-4.4733,-4.5471,-4.5596,-4.568,-4.5726,-4.5714,-4.5372,-4.4622,-4.4434,-4.3922,-4.3254,-4.2756,-4.2467,-4.1478,-4.1173,-4.091,-4.0591,-4.0562,-4.0624,-4.0598,-4.0952,-4.1386,-4.1404,-4.1404,-4.1293,-4.1163,-4.068,-4.0327,-3.9574,-3.9248,-3.911,-3.8931,-3.8658,-3.8517,-3.8405,-3.8245,-3.8029,-3.779,-3.756,-3.7524,-3.7451,-3.7246,-3.7132,-4.1654,-4.1657,-4.1641,-4.1652,-4.1756,-4.2344,-4.2648,-4.2694,-4.329,-4.3602,-4.3845,-4.3877,-4.4384,-4.5183,-4.5228,-4.5397,-4.5618,-4.5111,-4.3955,-4.2455,-4.2156,-4.1597,-4.1096,-4.0789,-4.0597,-4.0462,-4.0329,-4.0272,-4.0233,-4.0139,-4.002,-3.9998,-3.9975,-3.9911,-3.9911,-3.9911,-3.9889,-3.9889,-3.9892,-3.9889,-3.9889,-3.9889,-3.9889,-3.9889,-3.9889,-3.9889,-3.9889,-3.9889,-3.9889,-3.9889,-3.9889,-3.987,-3.9914,-4.0,-4.008,-4.0158,-4.03,-4.0431,-4.0511,-4.0654,-4.0746,-4.079,-4.079,-4.079,-4.079,-4.079,-4.079,-4.0906,-4.1364,-4.2273,-4.3678,-4.4858,-4.5476,-4.5728,-4.5786,-4.5776,-4.577,-4.5728,-4.556,-4.5426,-4.5312,-4.503,-4.4091,-4.3958,-4.3445,-4.2602,-4.2252,-4.211,-4.1874,-4.1594,-4.159,-4.1557,-4.1837,-4.2184,-4.2203,-4.2166,-4.2073,-4.1962,-4.1571,-4.0847,-4.0123,-3.9602,-3.9389,-3.9194,-3.9007,-3.8855,-3.8718,-3.8628,-3.8392,-3.818,-3.7995,-3.7911,-3.7808,-3.7667,-3.7578,-4.1057,-4.1057,-4.1037,-4.1051,-4.1124,-4.1546,-4.1735,-4.1815,-4.2173,-4.2627,-4.2939,-4.3017,-4.3526,-4.4306,-4.439,-4.4799,-4.5339,-4.5124,-4.4196,-4.302,-4.2513,-4.1831,-4.124,-4.096,-4.081,-4.0672,-4.0572,-4.0505,-4.0427,-4.0286,-4.0196,-4.0158,-4.008,-4.0036,-3.9994,-3.9954,-3.9954,-3.9933,-3.9892,-3.9889,-3.9889,-3.9889,-3.9889,-3.9889,-3.9889,-3.9889,-3.9889,-3.9889,-3.9889,-3.9889,-3.9892,-3.9935,-3.9979,-4.0061,-4.0158,-4.03,-4.0399,-4.0559,-4.0654,-4.0733,-4.079,-4.079,-4.079,-4.079,-4.079,-4.079,-4.079,-4.0977,-4.1596,-4.268,-4.4394,-4.5316,-4.5722,-4.58,-4.58,-4.5819,-4.5791,-4.577,-4.5745,-4.5726,-4.5618,-4.5428,-4.5084,-4.4833,-4.4451,-4.3598,-4.3271,-4.3094,-4.2528,-4.2319,-4.2472,-4.2556,-4.2742,-4.2902,-4.289,-4.2835,-4.2723,-4.2556,-4.2277,-4.1386,-4.0457,-4.0011,-3.964,-3.937,-3.9045,-3.9036,-3.8884,-3.8826,-3.8766,-3.8597,-3.8423,-3.8296,-3.8231,-3.8249,-3.8083,-4.0994,-4.0994,-4.0994,-4.0994,-4.098,-4.1013,-4.1055,-4.1026,-4.0994,-4.156,-4.2002,-4.2155,-4.2666,-4.3358,-4.3495,-4.4002,-4.4718,-4.4889,-4.4331,-4.35,-4.2916,-4.2071,-4.1344,-4.1059,-4.1011,-4.0943,-4.0824,-4.0742,-4.0667,-4.0534,-4.0415,-4.0403,-4.027,-4.0196,-4.0118,-4.0038,-4.0017,-3.9996,-3.9975,-3.9933,-3.9911,-3.9911,-3.9911,-3.9889,-3.9889,-3.9889,-3.9889,-3.9889,-3.9889,-3.9892,-3.9933,-4.0,-4.0081,-4.0158,-4.025,-4.0481,-4.0526,-4.064,-4.0746,-4.079,-4.079,-4.079,-4.079,-4.079,-4.079,-4.079,-4.079,-4.1151,-4.1751,-4.3028,-4.4568,-4.5374,-4.5742,-4.58,-4.58,-4.58,-4.58,-4.58,-4.5781,-4.5738,-4.5726,-4.5574,-4.5539,-4.5406,-4.5043,-4.4701,-4.4384,-4.4039,-4.3477,-4.3213,-4.3421,-4.3465,-4.3596,-4.3446,-4.3423,-4.3373,-4.328,-4.3002,-4.2797,-4.1869,-4.0866,-4.0364,-3.9918,-3.9342,-3.9073,-3.9045,-3.9045,-3.8989,-3.896,-3.895,-3.8844,-3.8646,-3.8695,-3.8803,-3.8541,-4.0994,-4.0994,-4.0994,-4.0994,-4.0994,-4.098,-4.0983,-4.0996,-4.0987,-4.1051,-4.1226,-4.126,-4.183,-4.2412,-4.2617,-4.3436,-4.4412,-4.4738,-4.4426,-4.3719,-4.329,-4.2641,-4.1329,-4.1109,-4.1078,-4.1046,-4.0968,-4.0879,-4.0809,-4.0684,-4.0591,-4.0538,-4.0383,-4.0283,-4.0232,-4.0139,-4.0078,-4.0077,-4.0057,-4.0036,-3.9975,-3.9975,-3.9954,-3.9911,-3.9911,-3.9911,-3.9911,-3.9889,-3.9889,-3.9892,-4.0,-4.0139,-4.023,-4.0266,-4.037,-4.0496,-4.0635,-4.0746,-4.079,-4.079,-4.079,-4.079,-4.079,-4.079,-4.079,-4.0829,-4.0906,-4.1403,-4.2351,-4.3769,-4.5394,-4.5703,-4.5761,-4.58,-4.58,-4.58,-4.58,-4.58,-4.5805,-4.5785,-4.577,-4.5754,-4.5703,-4.5671,-4.5439,-4.5211,-4.5103,-4.4974,-4.4727,-4.4536,-4.4595,-4.4521,-4.4417,-4.4168,-4.393,-4.385,-4.3726,-4.3373,-4.3002,-4.2222,-4.1349,-4.0736,-4.0178,-3.9435,-3.9101,-3.9101,-3.9101,-3.9101,-3.9045,-3.9007,-3.8979,-3.8979,-3.8939,-3.8881,-3.8881,-4.0957,-4.0957,-4.0937,-4.0937,-4.0957,-4.0957,-4.0953,-4.0961,-4.0992,-4.0984,-4.0992,-4.1054,-4.1279,-4.1651,-4.1737,-4.2475,-4.3504,-4.4655,-4.4163,-4.3378,-4.3358,-4.2768,-4.1203,-4.1067,-4.11,-4.1089,-4.1039,-4.0981,-4.0964,-4.0831,-4.0766,-4.071,-4.0577,-4.0462,-4.0386,-4.0304,-4.0215,-4.0177,-4.0137,-4.0096,-4.0057,-4.0057,-4.0036,-4.0015,-3.9954,-3.9954,-3.9954,-3.9911,-3.9935,-4.0019,-4.008,-4.0232,-4.0334,-4.0419,-4.0485,-4.0621,-4.0746,-4.079,-4.079,-4.079,-4.079,-4.079,-4.079,-4.079,-4.079,-4.0848,-4.119,-4.215,-4.3073,-4.4465,-4.5626,-4.578,-4.58,-4.58,-4.58,-4.58,-4.58,-4.58,-4.5805,-4.581,-4.5795,-4.5765,-4.57,-4.5684,-4.5684,-4.5684,-4.5684,-4.5668,-4.5668,-4.5475,-4.5263,-4.4834,-4.453,-4.4112,-4.3818,-4.3664,-4.3522,-4.328,-4.2872,-4.211,-4.1423,-4.0606,-3.9955,-3.9305,-3.9138,-3.9101,-3.9101,-3.9101,-3.9073,-3.9064,-3.9064,-3.9036,-3.8997,-3.8968,-3.8939,-4.0888,-4.0888,-4.0888,-4.0888,-4.0888,-4.0888,-4.0888,-4.0906,-4.0964,-4.0992,-4.1,-4.1064,-4.1094,-4.1123,-4.1228,-4.1631,-4.2479,-4.3923,-4.3416,-4.2514,-4.2646,-4.2173,-4.0979,-4.0628,-4.055,-4.0677,-4.0705,-4.0922,-4.1052,-4.0974,-4.0933,-4.0887,-4.0807,-4.0694,-4.0588,-4.0515,-4.0372,-4.0289,-4.0215,-4.0177,-4.0137,-4.0117,-4.0096,-4.0096,-4.0057,-4.0057,-4.006,-3.9996,-4.0041,-4.0139,-4.0212,-4.0319,-4.0511,-4.0579,-4.0654,-4.0784,-4.0815,-4.079,-4.079,-4.079,-4.079,-4.079,-4.079,-4.079,-4.0887,-4.1119,-4.1693,-4.3079,-4.4053,-4.4852,-4.5606,-4.58,-4.58,-4.58,-4.58,-4.58,-4.58,-4.58,-4.58,-4.5805,-4.581,-4.5776,-4.5727,-4.5727,-4.5727,-4.5731,-4.5731,-4.5735,-4.57,-4.5599,-4.5323,-4.4815,-4.4388,-4.3942,-4.3539,-4.3162,-4.2909,-4.2537,-4.2092,-4.1441,-4.0847,-4.0215,-3.964,-3.9157,-3.9138,-3.9101,-3.9101,-3.9101,-3.9101,-3.9073,-3.9101,-3.9073,-3.9036,-3.9036,-3.9007,-4.0888,-4.0888,-4.0888,-4.0888,-4.0888,-4.0888,-4.0888,-4.0888,-4.0926,-4.0957,-4.0992,-4.1022,-4.1046,-4.1093,-4.1101,-4.1618,-4.2256,-4.2529,-4.2295,-4.1413,-4.1413,-4.0688,-3.9142,-3.8807,-3.9466,-3.9911,-4.0018,-4.0418,-4.0822,-4.0967,-4.1071,-4.1038,-4.0924,-4.084,-4.0787,-4.0706,-4.0588,-4.0469,-4.0441,-4.036,-4.0215,-4.0137,-4.0117,-4.0117,-4.0098,-4.0138,-4.0177,-4.0139,-4.0196,-4.0392,-4.0427,-4.0516,-4.0655,-4.0804,-4.0856,-4.0867,-4.0854,-4.079,-4.0815,-4.0815,-4.0815,-4.0827,-4.0815,-4.0803,-4.097,-4.157,-4.2325,-4.3156,-4.4136,-4.4949,-4.564,-4.578,-4.58,-4.58,-4.58,-4.58,-4.58,-4.58,-4.58,-4.58,-4.5805,-4.5805,-4.5786,-4.5786,-4.5766,-4.5771,-4.5776,-4.5761,-4.5638,-4.5445,-4.4934,-4.4317,-4.385,-4.3396,-4.3118,-4.2752,-4.231,-4.1872,-4.1386,-4.0847,-4.029,-3.977,-3.9472,-3.9101,-3.9101,-3.9101,-3.9101,-3.9101,-3.9101,-3.9101,-3.9101,-3.9101,-3.9101,-3.9073,-3.9073,-4.0888,-4.0888,-4.0888,-4.0888,-4.0888,-4.0888,-4.0888,-4.0888,-4.0888,-4.0941,-4.0981,-4.0994,-4.1031,-4.1091,-4.1111,-4.1299,-4.1621,-4.1674,-4.1186,-4.0483,-4.0249,-3.9683,-3.8879,-3.8564,-3.8876,-3.9068,-3.9572,-3.9958,-4.0413,-4.0872,-4.1114,-4.1089,-4.1039,-4.0976,-4.0924,-4.0859,-4.073,-4.0629,-4.0534,-4.0411,-4.0291,-4.0234,-4.0215,-4.0196,-4.0176,-4.0215,-4.0233,-4.0251,-4.0302,-4.0487,-4.0563,-4.0687,-4.0787,-4.0868,-4.0888,-4.0898,-4.0867,-4.0859,-4.0858,-4.0856,-4.0856,-4.0856,-4.0856,-4.0867,-4.1108,-4.2009,-4.2865,-4.3311,-4.4583,-4.5357,-4.562,-4.58,-4.58,-4.5761,-4.5576,-4.562,-4.564,-4.578,-4.58,-4.58,-4.5722,-4.5548,-4.5452,-4.5471,-4.5534,-4.5771,-4.5679,-4.5602,-4.5333,-4.4951,-4.4322,-4.352,-4.3128,-4.2729,-4.2516,-4.2227,-4.1725,-4.1288,-4.095,-4.0393,-3.9788,-3.9324,-3.9157,-3.9101,-3.9101,-3.9101,-3.9101,-3.9101,-3.9101,-3.9101,-3.9101,-3.9101,-3.9101,-3.9101,-3.9073,-4.0888,-4.0869,-4.0898,-4.0907,-4.0898,-4.0898,-4.0898,-4.0888,-4.0898,-4.0943,-4.0972,-4.0986,-4.1033,-4.1089,-4.1094,-4.115,-4.1111,-4.0873,-4.0249,-3.9702,-3.9175,-3.8629,-3.7965,-3.7848,-3.7985,-3.8316,-3.9036,-3.9559,-4.0063,-4.0582,-4.11,-4.1115,-4.1095,-4.1052,-4.0991,-4.0932,-4.0878,-4.0742,-4.0615,-4.0519,-4.0447,-4.0413,-4.0413,-4.0379,-4.0344,-4.0307,-4.0375,-4.0339,-4.0419,-4.0667,-4.0723,-4.0819,-4.0935,-4.0952,-4.0971,-4.096,-4.0972,-4.0953,-4.0952,-4.0936,-4.0907,-4.0888,-4.0888,-4.0908,-4.1073,-4.2335,-4.316,-4.302,-4.4168,-4.4904,-4.5228,-4.5138,-4.5034,-4.4976,-4.5034,-4.5176,-4.5241,-4.5105,-4.4943,-4.4761,-4.4703,-4.4833,-4.4813,-4.4987,-4.5244,-4.5636,-4.5636,-4.5404,-4.4905,-4.4331,-4.3792,-4.2986,-4.2488,-4.2117,-4.1797,-4.1543,-4.1054,-4.0731,-4.0383,-4.0058,-3.9518,-3.924,-3.912,-3.9101,-3.9082,-3.9101,-3.9101,-3.9101,-3.9101,-3.9101,-3.9101,-3.9101,-3.9101,-3.9101,-3.9101,-4.0807,-4.0818,-4.0849,-4.0869,-4.0888,-4.0839,-4.084,-4.0898,-4.0898,-4.0908,-4.0906,-4.0965,-4.1,-4.1023,-4.1066,-4.1094,-4.1072,-4.0268,-3.9624,-3.8804,-3.7906,-3.7477,-3.7106,-3.6989,-3.6989,-3.7653,-3.8609,-3.9331,-3.9839,-4.0675,-4.1016,-4.1115,-4.1111,-4.11,-4.1058,-4.1052,-4.0988,-4.0859,-4.073,-4.0668,-4.0648,-4.0648,-4.0648,-4.0602,-4.0579,-4.0593,-4.0818,-4.061,-4.0623,-4.0924,-4.0906,-4.0935,-4.103,-4.1045,-4.1064,-4.1052,-4.1059,-4.1039,-4.1038,-4.098,-4.0917,-4.0907,-4.0917,-4.0926,-4.1012,-4.1733,-4.2247,-4.2519,-4.3568,-4.3868,-4.3868,-4.3693,-4.4029,-4.4095,-4.4238,-4.4219,-4.4199,-4.4044,-4.3872,-4.3653,-4.3736,-4.4034,-4.4092,-4.4214,-4.4504,-4.4858,-4.4742,-4.451,-4.3891,-4.3357,-4.312,-4.2584,-4.1986,-4.1526,-4.1072,-4.071,-4.0386,-4.0171,-3.99,-3.9698,-3.941,-3.9219,-3.9192,-3.9137,-3.9137,-3.911,-3.9101,-3.9101,-3.9101,-3.9101,-3.9101,-3.9101,-3.9101,-3.9101,-3.9101,-3.9243,-3.927,-3.9799,-4.0343,-4.0837,-4.0818,-4.0828,-4.0839,-4.0828,-4.0848,-4.0839,-4.0868,-4.0896,-4.0955,-4.1018,-4.1038,-4.0937,-4.0238,-3.9666,-3.9175,-3.8492,-3.7946,-3.7614,-3.7536,-3.7848,-3.8199,-3.8905,-3.9409,-3.9858,-4.0678,-4.101,-4.1117,-4.1105,-4.1115,-4.1106,-4.1103,-4.103,-4.0935,-4.0849,-4.0787,-4.0725,-4.0713,-4.0713,-4.0681,-4.0668,-4.0675,-4.0761,-4.0773,-4.0849,-4.0954,-4.1015,-4.1064,-4.1078,-4.1104,-4.111,-4.111,-4.111,-4.111,-4.111,-4.1045,-4.103,-4.1011,-4.1011,-4.1023,-4.1042,-4.1762,-4.2155,-4.2507,-4.2907,-4.3248,-4.3461,-4.3469,-4.3532,-4.3447,-4.3361,-4.3294,-4.3216,-4.3091,-4.3089,-4.2974,-4.3221,-4.3531,-4.3499,-4.3415,-4.373,-4.402,-4.3827,-4.355,-4.2918,-4.2454,-4.2241,-4.1996,-4.1441,-4.1003,-4.0553,-4.0157,-3.9772,-3.9632,-3.9526,-3.9477,-3.9427,-3.9408,-3.9357,-3.9298,-3.9192,-3.9183,-3.9156,-3.9129,-3.9101,-3.9101,-3.9101,-3.9101,-3.9101,-3.9101,-3.9101,-3.8241,-3.8276,-3.8853,-3.9622,-4.0408,-4.0688,-4.0815,-4.0807,-4.0796,-4.0796,-4.0807,-4.0807,-4.083,-4.091,-4.0948,-4.0998,-4.0794,-4.0253,-3.9951,-3.9474,-3.898,-3.8668,-3.8609,-3.8531,-3.8414,-3.8807,-3.9354,-3.98,-3.9839,-4.0678,-4.101,-4.1104,-4.1101,-4.1113,-4.1115,-4.1095,-4.1059,-4.0996,-4.0952,-4.0935,-4.0839,-4.0839,-4.0839,-4.0828,-4.0807,-4.0807,-4.0839,-4.0888,-4.0907,-4.1007,-4.1057,-4.1104,-4.111,-4.111,-4.111,-4.111,-4.111,-4.111,-4.111,-4.111,-4.111,-4.1078,-4.1085,-4.1104,-4.1266,-4.1617,-4.1785,-4.1906,-4.2424,-4.2825,-4.2839,-4.2558,-4.248,-4.2343,-4.2373,-4.2324,-4.2354,-4.2295,-4.2364,-4.2392,-4.2527,-4.2412,-4.2376,-4.2254,-4.2641,-4.2931,-4.2957,-4.2602,-4.1951,-4.1564,-4.1371,-4.1126,-4.0803,-4.0434,-4.006,-4.0024,-3.9963,-3.9766,-3.967,-3.9599,-3.9556,-3.9532,-3.9483,-3.9401,-3.9324,-3.9264,-3.9202,-3.9147,-3.912,-3.9101,-3.9101,-3.9101,-3.9101,-3.9101,-3.9101,-3.8121,-3.8218,-3.8199,-3.8706,-3.9522,-4.0447,-4.073,-4.0679,-4.0773,-4.0792,-4.0796,-4.0807,-4.0829,-4.0885,-4.0894,-4.0935,-4.0851,-4.0262,-3.998,-3.985,-3.9451,-3.8882,-3.8824,-3.8921,-3.9156,-3.8905,-3.9507,-4.0034,-3.9937,-4.0717,-4.1069,-4.1108,-4.1108,-4.1101,-4.1113,-4.11,-4.1106,-4.1114,-4.1089,-4.1071,-4.1052,-4.1038,-4.1018,-4.1003,-4.0943,-4.0935,-4.0988,-4.0963,-4.0988,-4.1045,-4.1078,-4.111,-4.111,-4.111,-4.111,-4.111,-4.111,-4.111,-4.111,-4.111,-4.111,-4.111,-4.111,-4.111,-4.111,-4.1208,-4.1305,-4.1461,-4.1487,-4.1409,-4.1292,-4.1286,-4.1415,-4.1478,-4.1548,-4.1579,-4.163,-4.1657,-4.1777,-4.1818,-4.1305,-4.0912,-4.0943,-4.1035,-4.1473,-4.1763,-4.1964,-4.168,-4.1158,-4.0965,-4.0887,-4.0713,-4.0519,-4.0338,-4.0135,-4.0192,-4.0139,-3.9958,-3.9804,-3.9717,-3.967,-3.9647,-3.9599,-3.9502,-3.9452,-3.9395,-3.9301,-3.9175,-3.9138,-3.9101,-3.9101,-3.9101,-3.9101,-3.9101,-3.9101,-3.6535,-3.6593,-3.7108,-3.7514,-3.7978,-3.934,-3.9932,-4.0053,-4.0505,-4.0796,-4.0808,-4.0808,-4.08,-4.0846,-4.0877,-4.0915,-4.085,-4.0879,-4.0637,-4.0617,-4.0242,-4.0316,-4.0216,-4.0076,-4.0174,-4.0307,-4.06,-4.06,-4.0698,-4.101,-4.1069,-4.1108,-4.1108,-4.1104,-4.1113,-4.11,-4.1111,-4.1106,-4.1106,-4.1106,-4.11,-4.1109,-4.1109,-4.1103,-4.1052,-4.1064,-4.1104,-4.103,-4.1045,-4.1085,-4.111,-4.111,-4.111,-4.111,-4.111,-4.111,-4.111,-4.111,-4.111,-4.111,-4.111,-4.111,-4.111,-4.111,-4.111,-4.111,-4.111,-4.111,-4.111,-4.111,-4.1143,-4.1123,-4.1159,-4.1159,-4.119,-4.119,-4.121,-4.122,-4.1259,-4.1252,-4.0941,-4.0878,-4.0877,-4.0823,-4.1114,-4.118,-4.14,-4.1345,-4.0938,-4.0868,-4.081,-4.061,-4.0424,-4.0326,-4.021,-4.0194,-4.012,-3.9937,-3.9848,-3.9848,-3.9804,-3.9758,-3.9712,-3.9647,-3.9575,-3.9521,-3.938,-3.9212,-3.9147,-3.9101,-3.9082,-3.9082,-3.9101,-3.9101,-3.9101,-3.5704,-3.5762,-3.6256,-3.6469,-3.6767,-3.8315,-3.9197,-3.9565,-4.0113,-4.0481,-4.0745,-4.079,-4.0803,-4.0822,-4.0854,-4.0897,-4.0896,-4.0955,-4.1033,-4.1093,-4.1091,-4.0972,-4.1008,-4.1116,-4.0899,-4.1111,-4.1108,-4.1069,-4.101,-4.1069,-4.1108,-4.1108,-4.1108,-4.1108,-4.1101,-4.1113,-4.1105,-4.1105,-4.11,-4.1115,-4.1111,-4.1106,-4.11,-4.112,-4.1109,-4.1097,-4.1117,-4.111,-4.111,-4.111,-4.111,-4.111,-4.111,-4.111,-4.111,-4.111,-4.111,-4.111,-4.111,-4.1097,-4.1117,-4.111,-4.111,-4.111,-4.111,-4.111,-4.111,-4.111,-4.111,-4.111,-4.1104,-4.1038,-4.1038,-4.105,-4.105,-4.1057,-4.1057,-4.1078,-4.1085,-4.1039,-4.1006,-4.096,-4.0936,-4.0888,-4.0955,-4.0895,-4.0873,-4.082,-4.0803,-4.0771,-4.0759,-4.0596,-4.0438,-4.0336,-4.0214,-4.012,-4.0019,-3.9892,-3.9889,-3.9889,-3.9889,-3.9826,-3.9804,-3.9781,-3.9693,-3.957,-3.9406,-3.9293,-3.921,-3.9137,-3.911,-3.911,-3.9082,-3.9101,-3.9101,-3.5704,-3.5704,-3.5704,-3.5742,-3.6024,-3.742,-3.8551,-3.9391,-3.9449,-3.9901,-4.0597,-4.0558,-4.0597,-4.0694,-4.0752,-4.0842,-4.0909,-4.098,-4.1018,-4.1069,-4.1094,-4.1094,-4.1113,-4.111,-4.1105,-4.1116,-4.1114,-4.1114,-4.1111,-4.1108,-4.1108,-4.1108,-4.1108,-4.1108,-4.1108,-4.1104,-4.1101,-4.1113,-4.1113,-4.1109,-4.1105,-4.1115,-4.1115,-4.1111,-4.1106,-4.1114,-4.1109,-4.1103,-4.1097,-4.1117,-4.1117,-4.111,-4.111,-4.111,-4.111,-4.111,-4.1117,-4.1117,-4.1097,-4.1109,-4.1109,-4.1103,-4.1117,-4.111,-4.111,-4.111,-4.111,-4.111,-4.111,-4.111,-4.1104,-4.1104,-4.1104,-4.1104,-4.1104,-4.1104,-4.1104,-4.111,-4.111,-4.1078,-4.1045,-4.1007,-4.0954,-4.0927,-4.0907,-4.0907,-4.0888,-4.0837,-4.0823,-4.0752,-4.0707,-4.0673,-4.0523,-4.04,-4.0253,-4.0096,-3.9996,-3.9911,-3.9889,-3.9889,-3.9889,-3.9889,-3.9848,-3.9826,-3.9762,-3.9647,-3.9539,-3.9369,-3.9253,-3.9163,-3.8875,-3.9036,-3.8998,-3.9064,-3.9101,-3.5704,-3.5704,-3.5704,-3.5704,-3.5781,-3.6218,-3.7224,-3.847,-3.8566,-3.8779,-3.8972,-3.9611,-3.9901,-3.9932,-4.05,-4.0771,-4.0905,-4.0934,-4.098,-4.1022,-4.1074,-4.1094,-4.1113,-4.1113,-4.1113,-4.111,-4.1107,-4.1103,-4.1101,-4.1116,-4.1111,-4.1108,-4.1108,-4.1108,-4.1108,-4.1108,-4.1108,-4.1104,-4.1104,-4.1101,-4.1117,-4.1109,-4.1109,-4.1105,-4.1115,-4.1111,-4.1106,-4.11,-4.11,-4.11,-4.11,-4.11,-4.11,-4.11,-4.11,-4.11,-4.11,-4.11,-4.11,-4.1106,-4.1106,-4.11,-4.11,-4.1103,-4.1117,-4.111,-4.111,-4.1117,-4.111,-4.111,-4.111,-4.111,-4.111,-4.111,-4.111,-4.111,-4.111,-4.111,-4.111,-4.1104,-4.1071,-4.1064,-4.1007,-4.0991,-4.098,-4.096,-4.0952,-4.0907,-4.0858,-4.0773,-4.0693,-4.0641,-4.0508,-4.0363,-4.0195,-4.003,-3.997,-3.9911,-3.9911,-3.9889,-3.9889,-3.9889,-3.9889,-3.9848,-3.9807,-3.9721,-3.967,-3.9443,-3.9089,-3.8614,-3.8338,-3.867,-3.8914,-3.8775,-3.8748,-3.5704,-3.5704,-3.5704,-3.5704,-3.5704,-3.5704,-3.6342,-3.7174,-3.7541,-3.7831,-3.8237,-3.876,-3.9166,-3.9572,-4.0036,-4.0442,-4.088,-4.0892,-4.0925,-4.0974,-4.1045,-4.1094,-4.1113,-4.1113,-4.1152,-4.1152,-4.1133,-4.113,-4.111,-4.1103,-4.1119,-4.1119,-4.1114,-4.1111,-4.1108,-4.1108,-4.1108,-4.1108,-4.1108,-4.1108,-4.1108,-4.1104,-4.1101,-4.1117,-4.1109,-4.11,-4.11,-4.11,-4.1115,-4.1115,-4.1115,-4.1111,-4.1111,-4.1111,-4.1111,-4.1111,-4.1111,-4.1111,-4.1111,-4.1096,-4.1115,-4.1115,-4.11,-4.1111,-4.11,-4.1114,-4.1109,-4.1109,-4.1097,-4.111,-4.111,-4.1117,-4.111,-4.111,-4.111,-4.111,-4.111,-4.111,-4.111,-4.111,-4.1104,-4.1104,-4.1098,-4.1064,-4.1057,-4.1045,-4.1011,-4.0988,-4.0926,-4.0868,-4.0725,-4.0633,-4.0452,-4.027,-4.0118,-4.0006,-3.9949,-3.9911,-3.9911,-3.9889,-3.9889,-3.9889,-3.9889,-3.9851,-3.9832,-3.9675,-3.946,-3.9145,-3.8779,-3.8202,-3.7673,-3.7741,-3.7851,-3.7817,-3.7865,-3.5704,-3.5704,-3.5704,-3.5704,-3.5704,-3.5704,-3.5762,-3.5781,-3.6535,-3.7232,-3.7812,-3.8044,-3.847,-3.8895,-3.9437,-4.0017,-4.0462,-4.0725,-4.088,-4.088,-4.1001,-4.1062,-4.1091,-4.1133,-4.1152,-4.1172,-4.1191,-4.1172,-4.1113,-4.1111,-4.1128,-4.1113,-4.1101,-4.1116,-4.1111,-4.1108,-4.1108,-4.1108,-4.1108,-4.1108,-4.1108,-4.1108,-4.1108,-4.1108,-4.1101,-4.1113,-4.1113,-4.1105,-4.1115,-4.1115,-4.1115,-4.11,-4.11,-4.11,-4.11,-4.11,-4.1105,-4.1105,-4.1105,-4.1109,-4.1109,-4.1109,-4.1105,-4.1105,-4.11,-4.1106,-4.1106,-4.11,-4.1114,-4.1109,-4.1109,-4.1109,-4.1109,-4.1103,-4.1103,-4.1103,-4.1097,-4.1117,-4.111,-4.111,-4.111,-4.111,-4.111,-4.1071,-4.1071,-4.1085,-4.1085,-4.1045,-4.0988,-4.0926,-4.0771,-4.0619,-4.0366,-4.0177,-4.0098,-3.9989,-3.993,-3.9889,-3.9889,-3.9889,-3.9889,-3.9889,-3.9889,-3.987,-3.9813,-3.9399,-3.9094,-3.8873,-3.8378,-3.7392,-3.6948,-3.6812,-3.6752,-3.6721,-3.7017,-3.5704,-3.5704,-3.5704,-3.5704,-3.5704,-3.5704,-3.5704,-3.5723,-3.5897,-3.6149,-3.64,-3.6942,-3.7348,-3.7773,-3.8856,-3.9514,-3.9804,-4.0404,-4.0752,-4.0803,-4.088,-4.0983,-4.1,-4.1074,-4.1113,-4.1152,-4.1172,-4.1191,-4.1172,-4.1172,-4.1152,-4.1113,-4.1113,-4.1107,-4.1114,-4.1114,-4.1111,-4.1111,-4.1108,-4.1108,-4.1108,-4.1108,-4.1108,-4.1108,-4.1104,-4.1104,-4.1104,-4.1104,-4.1101,-4.1101,-4.1101,-4.1101,-4.1101,-4.1101,-4.1101,-4.1101,-4.1097,-4.1097,-4.1101,-4.1101,-4.1101,-4.1101,-4.1101,-4.1104,-4.1097,-4.1105,-4.1115,-4.1111,-4.1111,-4.1111,-4.1106,-4.1106,-4.11,-4.112,-4.1114,-4.1109,-4.1109,-4.1097,-4.111,-4.111,-4.111,-4.111,-4.111,-4.111,-4.111,-4.111,-4.111,-4.1078,-4.1038,-4.0971,-4.0776,-4.0577,-4.0253,-4.0078,-4.0034,-3.9992,-3.9933,-3.9911,-3.9911,-3.9911,-3.9889,-3.9889,-3.9889,-3.9889,-3.9775,-3.9304,-3.8948,-3.8764,-3.8096,-3.6814,-3.6217,-3.6088,-3.5646,-3.5506,-3.6005,-3.5704,-3.5704,-3.5704,-3.5704,-3.5704,-3.5704,-3.5704,-3.5704,-3.5704,-3.5704,-3.5742,-3.6187,-3.6555,-3.6826,-3.7967,-3.8721,-3.9011,-3.9835,-4.0068,-4.0261,-4.0667,-4.0878,-4.0954,-4.1007,-4.1035,-4.1074,-4.1113,-4.1152,-4.1191,-4.1191,-4.1172,-4.1133,-4.1133,-4.1113,-4.1113,-4.1101,-4.1116,-4.1111,-4.1111,-4.1111,-4.1111,-4.1108,-4.1108,-4.1108,-4.1108,-4.1108,-4.1108,-4.1108,-4.1108,-4.1108,-4.1108,-4.1108,-4.1108,-4.1108,-4.1108,-4.1108,-4.1108,-4.1108,-4.1108,-4.1108,-4.1108,-4.1108,-4.1108,-4.1108,-4.1108,-4.1117,-4.1117,-4.1113,-4.1113,-4.1113,-4.1109,-4.1105,-4.1115,-4.1111,-4.1106,-4.11,-4.1114,-4.1097,-4.111,-4.111,-4.111,-4.111,-4.111,-4.111,-4.111,-4.111,-4.111,-4.111,-4.1071,-4.0988,-4.0798,-4.061,-4.0321,-4.0118,-4.0076,-4.0034,-3.9973,-3.9933,-3.9911,-3.9911,-3.9911,-3.9889,-3.9889,-3.987,-3.9643,-3.9153,-3.8816,-3.8365,-3.73,-3.5911,-3.5528,-3.5352,-3.4934,-3.4645,-3.5154,-3.5684,-3.5704,-3.5704,-3.5704,-3.5704,-3.5704,-3.5704,-3.5704,-3.5684,-3.5684,-3.5673,-3.5712,-3.6137,-3.6535,-3.6922,-3.7464,-3.8121,-3.8934,-3.9262,-3.9797,-4.0339,-4.0614,-4.0815,-4.0928,-4.0975,-4.1025,-4.1094,-4.1133,-4.1172,-4.1191,-4.1191,-4.1172,-4.1152,-4.1113,-4.1113,-4.1111,-4.1105,-4.1116,-4.1111,-4.1111,-4.1111,-4.1108,-4.1108,-4.1108,-4.1108,-4.1108,-4.1108,-4.1108,-4.1108,-4.1108,-4.1108,-4.1108,-4.1108,-4.1108,-4.1108,-4.1108,-4.1108,-4.1108,-4.1108,-4.1108,-4.1108,-4.1108,-4.1108,-4.1108,-4.1108,-4.1108,-4.1108,-4.1108,-4.1108,-4.1108,-4.1101,-4.1097,-4.1109,-4.1105,-4.11,-4.1111,-4.11,-4.1103,-4.1117,-4.111,-4.111,-4.111,-4.111,-4.111,-4.111,-4.111,-4.111,-4.111,-4.1071,-4.0971,-4.0819,-4.0681,-4.0485,-4.0306,-4.0157,-4.0076,-4.0015,-3.9975,-3.9954,-3.9933,-3.993,-3.9889,-3.987,-3.9832,-3.9551,-3.8925,-3.815,-3.7508,-3.6311,-3.5268,-3.5153,-3.5094,-3.498,-3.4749,-3.4687,-3.5643,-3.5704,-3.5704,-3.5704,-3.5704,-3.5704,-3.5704,-3.5684,-3.5662,-3.5612,-3.5631,-3.5628,-3.5794,-3.5974,-3.6651,-3.7077,-3.7201,-3.8013,-3.8895,-3.9533,-3.9765,-4.021,-4.0629,-4.0803,-4.0924,-4.1003,-4.1057,-4.1113,-4.1152,-4.1172,-4.1191,-4.1191,-4.1191,-4.1172,-4.1172,-4.1152,-4.111,-4.1123,-4.1119,-4.1099,-4.1111,-4.1111,-4.1108,-4.1108,-4.1108,-4.1108,-4.1108,-4.1108,-4.1108,-4.1108,-4.1108,-4.1108,-4.1108,-4.1108,-4.1108,-4.1108,-4.1108,-4.1108,-4.1108,-4.1108,-4.1108,-4.1108,-4.1108,-4.1108,-4.1108,-4.1108,-4.1108,-4.1108,-4.1108,-4.1108,-4.1104,-4.1104,-4.1101,-4.1101,-4.1117,-4.1105,-4.1111,-4.1114,-4.1103,-4.1103,-4.1117,-4.1117,-4.111,-4.111,-4.111,-4.111,-4.111,-4.111,-4.1085,-4.096,-4.0859,-4.0718,-4.0593,-4.0411,-4.0234,-4.0137,-4.0096,-4.0017,-3.9975,-3.9954,-3.9933,-3.9911,-3.987,-3.9851,-3.9267,-3.8586,-3.7772,-3.7032,-3.6083,-3.523,-3.504,-3.4927,-3.487,-3.4831,-3.4751]}]]